GFSSE_850_thetae_000.txt.gz
Theta_e
354 342 345 342 345 347 349 349 348 349 346 345 343 341 339 334 332 331 331 333 337 336 337 337 338 338 340 341 341 341 341 340 340 339 335 334 336 339 340 340 338 333 334
354 340 344 340 344 346 349 350 347 348 347 347 346 343 342 337 332 330 331 335 338 340 338 338 338 338 339 339 341 342 340 339 339 337 332 335 336 340 343 344 340 332 333
358 350 343 339 344 346 349 349 347 347 348 347 347 345 343 343 339 330 332 339 340 340 341 341 340 339 339 338 341 343 340 337 336 333 332 335 337 341 344 342 333 332 333
360 354 344 337 342 346 347 347 346 347 348 348 347 346 345 344 343 333 338 341 337 338 340 341 342 341 341 339 338 339 340 335 336 345 348 344 339 336 336 336 334 334 334
360 359 342 335 339 344 346 347 346 347 348 348 347 346 343 343 343 336 330 332 334 339 343 342 340 341 340 341 337 339 339 340 345 346 345 347 340 332 335 335 334 337 336
356 356 353 333 336 342 347 347 347 348 348 347 347 343 341 340 342 337 332 336 342 340 343 343 345 340 338 341 338 337 337 340 345 346 347 345 341 333 334 337 340 339 333
354 352 349 331 333 342 346 347 346 345 343 346 344 342 340 337 337 334 337 336 340 340 342 344 345 342 337 337 336 335 336 342 349 347 345 344 344 334 340 340 339 335 332
356 355 351 338 334 339 345 345 341 338 337 338 340 339 338 334 333 335 338 338 339 339 342 344 344 342 342 341 342 336 335 344 346 346 349 344 342 337 336 335 335 334 332
358 360 351 340 335 335 339 335 333 333 333 335 336 337 335 332 334 338 336 338 339 341 342 344 344 343 343 340 339 336 336 344 347 347 344 345 336 337 335 332 333 335 335
357 360 354 350 342 336 333 333 334 335 334 334 334 334 334 335 338 339 339 338 338 341 342 344 344 344 342 340 339 337 336 343 346 349 345 345 338 336 337 335 334 334 337
359 354 350 351 352 349 345 338 341 341 338 337 335 335 334 334 338 343 341 342 341 340 343 343 344 344 341 341 341 338 335 340 345 347 345 345 335 334 337 337 336 333 335
356 354 354 353 352 350 349 347 342 342 341 339 338 337 337 344 348 345 346 339 344 340 342 342 342 344 342 343 342 340 338 341 347 345 346 344 342 333 337 338 337 337 333
354 354 352 349 349 350 351 347 346 343 342 341 340 339 339 346 341 339 344 345 342 339 341 341 342 342 341 347 347 342 341 345 347 345 347 344 341 333 335 335 337 338 337
353 346 349 347 348 346 348 346 344 346 345 342 341 340 336 340 338 337 341 342 343 343 341 343 344 344 346 346 348 346 343 346 346 347 346 345 342 331 331 336 336 336 338
349 351 349 350 348 350 348 333 342 345 347 345 344 343 341 336 337 339 337 341 344 341 341 342 347 348 347 346 346 346 345 345 344 344 346 343 339 330 331 334 336 335 336
348 349 350 343 347 351 345 348 349 347 348 346 343 340 343 342 342 339 338 339 339 339 339 340 347 347 346 345 345 345 345 346 345 347 346 345 344 336 331 331 335 337 336
351 352 353 342 341 341 340 338 339 342 348 347 348 338 342 339 343 339 340 341 339 338 338 341 341 344 344 346 347 346 346 348 347 347 346 345 343 339 336 332 336 339 339
353 352 353 353 342 338 337 334 334 338 345 339 338 337 339 340 339 341 340 339 338 336 337 340 341 343 343 345 345 345 345 345 345 345 348 345 345 337 336 336 337 340 339
354 353 352 353 353 346 342 336 334 338 344 346 345 343 341 340 341 340 341 340 338 336 335 340 340 339 341 344 343 344 346 346 347 347 347 345 347 345 342 339 339 339 339
353 354 353 354 354 351 349 345 344 343 344 343 342 341 341 340 338 338 340 341 341 338 336 339 338 337 342 345 343 342 344 345 344 344 347 346 345 344 342 344 342 339 339
354 355 354 353 352 349 346 344 342 342 342 344 343 342 341 341 340 337 340 340 341 342 342 337 339 340 343 345 343 342 342 342 343 342 342 345 345 346 343 341 342 339 340
355 355 354 353 350 349 347 345 344 345 344 341 341 336 338 340 339 339 338 339 340 342 342 341 338 339 340 342 341 341 342 343 347 347 345 344 340 341 344 342 341 341 341
356 356 352 351 349 349 348 347 344 343 341 338 338 338 337 338 339 337 338 338 339 341 341 340 339 339 339 339 339 341 341 343 343 344 345 345 343 343 344 343 343 342 343
358 357 355 351 350 351 346 344 342 342 337 338 338 335 335 339 338 338 338 338 339 339 339 340 338 339 339 338 340 339 344 345 343 344 342 342 342 342 345 344 342 342 341
357 355 352 349 350 347 345 343 343 339 337 338 338 338 335 336 337 338 337 337 338 340 339 338 339 338 338 338 340 341 342 343 340 340 342 339 341 341 344 344 342 342 342
345 352 350 349 345 346 343 344 338 337 339 338 338 339 337 337 338 338 339 338 337 339 340 340 341 339 340 340 341 341 342 341 342 342 341 340 340 341 343 340 339 339 339

GFSSE_850_thetae_003.txt.gz
Theta_e
346 340 345 347 349 348 347 348 345 345 345 343 341 339 334 332 331 331 332 334 335 335 336 337 338 339 341 341 341 341 340 340 340 341 333 334 338 339 340 335 332 333 333
347 343 341 346 349 348 347 347 348 347 346 345 343 343 339 332 329 330 334 337 338 336 337 338 338 339 340 339 340 341 340 338 339 334 334 337 338 342 343 339 332 332 333
344 345 343 345 347 348 348 346 347 347 347 346 345 343 343 340 330 329 336 339 339 340 340 339 339 338 338 340 342 341 338 337 335 331 333 335 341 343 341 338 332 333 335
348 346 342 345 346 347 347 346 346 347 347 347 346 344 343 343 337 331 337 337 338 340 341 341 340 339 339 338 339 341 336 335 334 336 340 337 338 341 336 334 333 333 333
356 350 341 343 345 345 346 345 346 346 347 347 346 344 343 342 341 332 333 333 335 341 342 340 340 340 340 339 338 340 335 336 344 346 345 341 334 333 335 333 334 333 332
354 351 338 338 343 345 346 344 344 345 344 346 346 342 340 339 341 335 332 336 340 341 343 343 344 341 338 340 337 339 338 344 345 344 345 344 334 333 334 333 335 335 331
354 350 333 335 340 345 346 345 344 344 342 343 344 341 338 337 337 335 334 337 338 340 342 343 345 341 336 339 335 339 337 344 344 345 343 342 338 332 338 339 338 331 329
353 351 339 329 338 344 346 345 344 341 340 340 340 340 339 336 335 334 339 337 339 339 342 343 344 342 341 339 335 338 335 344 345 345 343 343 339 336 338 337 335 332 328
352 351 346 332 334 342 344 342 338 337 337 337 338 338 338 334 333 336 336 337 339 340 341 343 343 344 341 341 338 337 336 343 346 345 344 342 341 337 333 333 333 333 329
356 354 349 337 333 336 339 334 332 333 334 335 337 337 337 333 334 338 338 337 338 341 341 343 344 344 342 339 339 336 335 342 345 349 343 343 338 337 333 331 333 336 332
356 351 351 346 340 336 334 334 335 338 335 334 337 336 335 334 337 339 340 340 339 340 341 343 344 344 342 341 340 335 335 343 346 348 345 343 339 336 336 334 334 333 335
354 351 348 347 347 346 342 338 340 342 339 335 336 335 335 335 338 345 343 339 339 342 341 343 342 344 344 341 342 337 335 342 345 346 345 344 340 332 337 336 335 333 335
356 353 351 347 346 349 347 346 343 342 341 340 339 339 339 337 340 341 340 342 342 340 339 342 342 342 343 342 342 342 337 334 345 347 346 345 343 339 333 336 336 336 335
352 348 348 345 348 348 346 347 345 344 342 341 341 340 339 340 341 340 338 339 339 339 338 340 342 342 342 345 347 345 341 337 344 346 345 344 343 338 329 334 336 337 337
347 350 350 347 348 346 344 345 341 336 343 345 343 342 341 339 338 339 338 338 337 339 341 339 341 344 343 345 346 347 345 340 343 342 345 345 343 340 330 333 334 335 336
355 353 351 348 343 343 340 340 337 333 343 342 345 341 341 343 341 337 339 338 336 339 339 338 339 346 348 346 345 345 345 345 343 344 345 343 341 340 330 331 334 335 334
349 350 350 344 343 338 332 332 334 335 338 335 339 327 335 342 344 342 342 340 340 338 337 337 339 344 346 344 345 345 344 345 346 345 344 345 343 343 337 332 331 334 337
345 340 339 341 338 342 339 335 336 338 336 336 335 335 333 338 342 341 342 342 339 340 337 336 339 341 343 343 345 345 346 346 347 344 346 345 345 343 340 336 331 334 338
349 344 346 341 339 337 341 339 340 340 341 342 341 343 341 337 337 338 338 340 339 338 337 336 337 340 343 343 343 344 344 345 344 344 344 346 344 342 339 336 336 335 338
353 351 351 353 353 353 348 343 342 338 340 343 343 344 342 341 340 340 338 339 341 339 336 334 336 339 339 343 343 342 343 344 346 346 344 344 344 344 345 342 339 337 338
353 353 351 352 353 348 349 344 342 340 342 341 341 341 341 339 339 340 338 338 339 339 338 336 336 338 336 341 343 344 341 342 342 341 342 343 345 344 344 341 342 343 339
352 351 350 349 348 348 349 346 345 344 343 343 342 342 342 340 338 338 338 337 338 339 338 340 337 338 338 342 340 340 341 341 341 343 344 343 344 344 343 343 342 342 341
354 354 353 350 348 348 348 347 346 344 342 341 340 339 337 337 337 337 337 337 337 338 339 339 341 337 338 340 340 337 340 341 340 341 342 343 345 343 341 341 342 341 341
355 355 354 351 349 349 350 345 342 342 342 338 336 336 336 336 334 337 338 338 337 338 339 340 341 340 337 339 338 337 338 340 341 340 342 342 342 343 342 343 343 342 342
352 352 342 341 350 350 345 342 342 340 336 337 337 337 338 338 335 338 338 338 337 339 338 340 339 340 339 339 339 337 337 339 341 340 339 340 340 342 341 343 343 342 342
348 343 347 350 348 343 341 341 337 337 336 335 335 338 337 337 336 335 337 338 337 337 338 338 339 339 338 337 338 337 337 340 340 339 341 340 340 340 340 343 343 341 341

GFSSE_850_thetae_006.txt.gz
Theta_e
349 349 349 347 345 342 341 342 343 342 340 338 334 332 332 332 332 332 335 337 338 337 337 337 338 340 342 342 342 342 341 343 341 333 333 333 334 334 332 332 333 332 334
344 348 349 348 348 347 344 344 344 344 341 341 338 333 331 330 330 332 335 336 336 336 336 337 338 340 340 340 341 341 339 340 339 332 335 338 340 339 333 332 333 333 331
340 345 347 348 348 347 347 346 345 345 344 343 342 340 334 329 329 332 337 338 338 337 338 337 338 338 339 341 342 339 338 339 334 334 335 338 342 341 337 333 333 338 331
341 340 345 348 349 347 345 346 345 346 346 345 343 342 341 335 329 334 336 338 340 340 339 339 339 337 338 341 342 337 337 335 333 334 336 339 340 339 334 333 336 334 332
340 340 342 346 348 346 344 344 345 345 344 344 342 342 340 340 333 334 335 334 339 340 340 340 340 340 338 338 341 336 335 333 336 338 337 335 337 334 333 333 334 331 333
351 343 341 345 346 345 343 344 343 343 343 343 342 340 340 340 337 332 333 336 339 342 343 341 340 339 340 336 340 335 334 339 344 344 342 340 332 334 332 333 332 330 329
354 349 341 344 344 345 344 344 343 342 342 342 341 338 337 339 338 334 335 339 337 341 342 343 345 338 337 337 340 335 340 345 345 344 343 339 332 333 332 334 336 329 330
350 341 340 341 343 346 345 343 342 341 340 340 340 338 337 336 336 335 337 338 338 339 341 344 344 339 337 337 337 335 343 344 344 344 343 342 335 335 337 336 332 329 328
351 342 329 334 340 345 344 342 341 340 338 338 339 339 337 334 334 335 337 337 339 339 341 343 343 342 341 339 335 336 338 344 344 343 343 344 338 337 337 335 333 328 328
352 351 342 329 333 342 342 342 339 338 337 338 339 338 338 335 333 336 337 337 337 340 341 342 343 343 340 340 339 337 336 344 345 344 343 343 340 336 332 332 333 332 328
354 351 348 336 332 335 338 338 334 334 335 337 337 337 337 335 334 338 339 338 337 339 340 342 343 343 341 340 340 337 335 342 345 344 343 343 340 336 334 331 333 335 331
354 351 348 343 339 334 334 334 333 334 336 342 338 336 335 334 335 338 339 339 339 340 340 341 342 343 343 340 341 338 336 339 345 347 344 345 338 335 336 334 334 333 334
350 347 346 346 344 342 339 336 337 340 340 338 335 336 335 336 335 340 341 341 340 340 339 340 342 342 343 342 340 339 337 338 343 345 340 344 341 337 335 336 335 333 334
352 348 347 345 344 345 346 344 343 342 342 340 340 339 339 338 338 341 339 338 338 340 338 338 341 342 341 342 341 342 339 337 340 344 345 344 344 342 335 335 336 336 336
355 348 348 345 345 345 345 345 346 345 343 342 341 341 339 339 339 342 338 337 339 338 337 339 339 341 342 342 344 344 343 339 335 340 341 343 344 342 337 331 334 336 336
347 348 347 348 346 345 343 344 345 341 332 342 344 344 342 340 340 338 338 338 339 337 337 337 338 341 345 343 345 345 345 342 339 340 344 343 344 342 340 330 333 334 334
347 349 351 347 345 339 338 338 340 336 335 342 341 344 342 335 340 343 341 337 340 340 336 337 337 339 345 346 345 344 345 345 344 342 342 343 345 341 340 330 330 333 334
351 351 352 347 337 336 334 331 332 336 339 338 336 338 337 335 338 341 343 341 341 342 340 338 336 338 342 345 345 345 345 344 343 345 344 344 344 344 343 340 332 331 333
349 349 345 337 337 337 337 338 338 339 337 334 339 340 340 339 336 341 339 339 338 340 339 339 336 337 341 343 342 344 343 343 343 344 344 346 344 345 343 340 338 333 332
345 340 338 335 338 342 342 342 341 340 338 336 335 339 340 342 341 339 338 337 338 338 339 338 336 337 340 343 342 342 343 344 345 344 345 343 345 344 343 342 337 337 336
349 347 346 346 344 345 344 344 344 341 340 340 340 341 340 341 339 338 338 338 337 338 339 337 336 336 339 341 343 342 342 342 343 343 345 343 343 344 343 345 342 340 338
352 351 349 346 346 346 345 346 345 344 344 343 342 340 340 341 342 341 338 338 337 337 338 339 336 334 337 337 340 341 341 342 341 341 342 342 343 343 344 344 343 342 341
350 350 350 349 347 346 347 348 347 346 345 341 340 340 339 340 338 338 337 336 337 336 338 338 339 336 338 337 337 340 338 339 340 340 342 342 344 343 344 342 342 342 341
342 344 335 347 349 349 348 348 344 342 341 339 335 336 336 336 336 336 336 337 337 337 337 338 338 339 337 339 339 341 338 341 340 339 339 343 342 341 342 343 342 341 341
343 346 335 345 350 350 346 341 337 336 336 335 334 336 336 336 337 337 334 336 338 337 336 337 339 339 340 338 338 339 338 339 339 340 338 334 335 339 339 341 341 342 343
349 346 341 342 349 344 339 337 335 334 335 337 336 337 338 338 337 336 335 337 338 338 337 337 338 339 340 341 340 339 338 337 338 339 338 335 334 339 339 340 341 343 343

GFSSE_850_thetae_012.txt.gz
Theta_e
346 344 341 343 344 343 340 338 337 337 336 335 335 338 337 339 342 341 338 339 341 340 338 340 344 345 343 342 339 343 343 338 338 331 337 332 335 338 337 334 330 329 338
345 344 342 341 341 340 339 339 340 337 335 333 332 332 333 335 336 336 337 338 338 338 336 339 340 343 343 342 341 341 343 335 331 332 330 337 337 337 337 332 328 334 326
345 344 343 342 341 341 341 340 339 336 333 332 331 331 332 333 333 335 336 336 337 336 336 338 339 340 340 341 341 339 341 333 333 340 339 338 335 335 334 339 336 335 328
346 343 344 342 341 341 341 341 339 339 337 333 331 330 330 332 334 336 336 335 335 336 337 338 338 339 340 341 339 339 338 334 339 339 339 339 338 337 335 335 333 329 332
347 346 343 342 342 341 342 342 341 340 340 337 334 330 330 333 342 341 340 338 337 337 337 338 338 339 342 341 339 339 334 335 337 337 339 339 338 337 337 337 336 328 327
347 347 345 343 342 342 343 344 343 342 341 340 339 334 330 333 337 337 338 340 341 340 339 340 339 339 341 340 337 336 332 335 334 337 336 337 334 337 336 334 332 333 327
345 346 346 346 346 346 345 345 345 344 343 341 341 340 335 333 335 335 335 341 341 341 340 341 340 339 338 340 336 334 332 334 336 336 337 333 334 334 335 336 328 335 329
340 341 346 346 346 345 346 346 345 345 344 342 340 339 339 336 333 333 337 338 340 342 342 344 341 339 338 340 336 335 333 340 338 339 337 331 333 336 335 336 327 335 333
342 340 343 346 347 346 345 345 345 345 344 342 339 337 338 337 335 334 335 337 337 340 341 343 342 337 339 339 337 334 338 342 342 340 338 335 332 333 335 335 328 329 334
350 347 341 344 346 346 345 345 345 345 344 343 340 337 335 335 335 336 336 338 338 338 341 342 342 339 339 337 339 339 343 343 343 341 340 340 334 337 336 335 328 326 331
349 349 346 342 344 344 343 344 345 345 344 343 341 338 336 334 334 335 336 336 337 338 340 341 343 342 340 339 335 338 343 343 341 342 341 341 338 336 336 333 331 327 328
349 344 338 341 343 343 344 344 344 345 343 342 340 338 336 335 333 335 337 337 337 338 339 340 342 343 341 340 339 337 337 341 342 342 340 340 338 337 336 332 332 332 328
351 349 348 338 338 341 345 344 343 343 341 340 339 338 337 337 334 335 337 338 338 338 339 339 341 341 342 341 340 340 338 336 342 342 342 341 341 339 337 334 332 333 332
349 348 349 346 336 337 342 344 342 339 337 338 338 338 337 336 335 334 336 339 339 338 338 338 338 340 341 342 341 340 340 339 336 340 343 340 342 335 335 336 334 334 333
349 351 347 345 343 339 339 339 338 336 335 339 340 341 339 337 335 334 334 339 338 338 338 338 337 338 340 341 343 341 340 337 336 337 343 340 338 341 338 337 336 335 334
350 351 347 346 344 343 343 342 340 336 337 339 341 340 337 338 339 338 337 338 338 337 338 338 337 337 338 340 342 341 341 340 337 335 339 343 340 341 342 342 337 334 335
350 353 351 347 345 344 344 345 345 346 346 344 343 342 341 340 340 339 339 339 340 338 337 338 337 336 337 338 343 342 342 342 342 338 336 341 342 341 341 343 341 333 334
350 351 351 348 346 347 345 345 344 344 344 345 344 334 339 343 343 341 340 339 340 339 339 338 339 336 336 337 343 344 344 344 343 343 339 336 337 342 342 343 341 341 332
347 343 347 349 348 345 338 340 339 340 339 339 338 336 339 338 340 342 338 333 337 341 340 338 340 339 336 336 343 343 344 344 344 343 343 339 337 339 341 343 342 342 335
349 348 344 345 344 343 343 341 339 338 339 338 338 338 338 337 338 338 339 338 336 340 341 340 339 340 339 336 339 344 343 344 343 343 343 344 344 342 342 343 344 343 342
342 338 344 344 344 343 341 341 342 341 340 340 340 339 338 337 336 337 340 338 337 340 338 337 336 339 339 336 339 342 342 341 341 343 343 343 343 344 344 344 344 344 342
341 335 336 340 342 343 343 342 345 342 342 342 342 341 341 340 339 339 338 339 338 337 336 336 336 337 339 337 338 341 340 340 342 343 344 344 344 343 343 343 343 343 343
338 338 335 335 338 338 342 343 344 345 344 344 341 340 338 338 338 338 337 338 339 337 337 337 336 337 338 337 338 340 339 339 340 340 341 342 342 342 341 341 342 342 342
339 340 341 342 337 337 343 343 344 345 344 337 335 335 335 335 336 336 338 338 339 338 337 336 336 337 338 337 336 339 339 338 339 340 341 340 341 342 341 341 341 341 342
339 341 338 333 335 337 343 343 346 340 334 335 336 336 336 335 333 335 336 336 337 336 336 336 336 336 338 338 336 336 338 339 339 338 338 338 339 341 341 337 338 338 340
339 336 340 338 342 341 339 344 338 334 335 335 335 336 336 336 337 337 336 336 336 336 335 336 336 336 336 338 337 336 338 337 339 339 338 337 337 336 335 335 338 338 340

GFSSE_850_thetae_015.txt.gz
Theta_e
345 348 345 345 348 349 347 344 342 341 343 344 342 344 344 344 342 340 339 341 341 340 341 343 345 343 341 339 336 339 343 339 331 334 332 335 337 339 339 334 330 339 330
343 345 345 347 349 347 341 338 338 337 338 337 340 341 342 342 341 338 338 340 340 338 337 340 344 344 343 341 341 342 338 337 334 339 333 335 337 335 332 328 340 336 337
343 341 343 346 344 340 338 338 338 336 335 335 336 336 337 337 336 336 337 338 338 337 337 338 340 342 342 342 340 342 336 330 332 335 340 344 341 337 337 329 337 324 327
343 342 340 341 340 339 339 340 337 334 333 332 332 334 334 334 335 336 336 336 335 335 336 338 338 339 340 341 340 342 335 333 340 339 342 342 343 337 340 336 331 334 331
343 342 341 341 341 341 341 340 338 336 334 332 330 330 331 333 335 337 336 336 336 336 337 337 338 339 341 341 339 339 340 337 339 339 339 341 344 338 338 330 329 328 331
344 343 342 341 341 341 341 340 339 339 338 335 332 330 330 335 339 340 342 341 340 340 338 338 338 339 342 340 339 339 337 338 335 339 340 339 342 338 337 332 332 327 329
346 343 343 342 341 341 342 342 342 341 340 339 338 334 331 334 336 335 336 340 341 341 340 340 340 338 340 339 338 334 336 335 335 334 337 340 341 336 334 331 334 326 336
346 346 344 342 342 342 343 344 343 343 342 341 339 339 335 333 334 338 335 340 341 342 342 342 340 339 338 340 335 333 332 334 335 336 336 336 335 335 333 332 330 330 332
346 347 346 346 346 346 345 345 344 344 343 341 339 338 339 336 333 334 337 338 339 341 342 343 341 338 338 340 336 334 333 338 337 341 337 335 332 336 335 333 326 333 333
343 345 346 345 346 345 345 345 344 344 344 342 340 337 337 337 335 334 335 338 338 339 341 343 343 337 339 338 339 335 335 339 342 342 339 338 333 338 338 334 327 330 334
344 343 343 345 346 347 346 345 344 345 344 341 342 338 336 337 339 335 336 337 337 339 340 342 343 341 338 337 338 336 339 343 344 341 341 340 335 339 337 335 329 327 331
350 349 346 343 344 344 344 345 344 345 345 344 342 340 339 338 334 334 336 336 336 337 339 340 342 343 340 339 336 337 341 342 342 341 341 341 340 336 339 335 332 329 328
349 343 341 344 342 344 343 344 344 344 345 343 342 341 339 338 336 333 337 337 337 338 340 339 341 342 343 340 340 338 337 337 339 340 341 340 339 338 337 336 337 332 330
349 348 347 341 341 342 342 344 343 342 342 341 339 340 339 341 340 334 335 338 338 338 338 339 339 340 341 342 341 340 340 338 336 337 341 342 341 340 338 339 337 334 333
349 347 349 347 340 335 338 342 343 341 341 338 339 340 340 338 337 339 334 337 339 339 338 338 338 339 340 341 342 342 340 340 340 336 340 342 340 341 335 337 336 334 334
350 348 350 344 345 339 338 338 338 339 339 336 337 340 341 341 339 338 337 336 338 338 338 338 338 338 338 339 341 342 342 341 339 338 336 339 340 338 340 338 339 335 335
350 349 347 346 345 343 342 342 342 342 339 338 338 340 340 340 338 339 340 339 337 339 338 337 338 337 337 337 338 341 341 340 341 338 336 336 342 342 339 341 342 342 334
352 349 348 349 346 345 344 344 345 344 344 345 345 345 344 337 339 341 341 340 339 339 340 338 339 338 337 336 336 339 343 341 342 343 342 336 337 342 342 341 342 343 340
346 341 344 346 347 345 343 339 339 340 338 337 338 339 339 336 339 341 340 342 340 339 340 340 340 339 339 337 336 337 343 343 344 344 343 343 338 338 338 340 342 343 341
343 337 340 342 343 344 343 340 341 342 339 340 340 339 339 338 338 338 338 340 338 334 334 337 340 341 339 339 337 336 341 344 344 344 343 343 342 338 337 337 341 342 343
346 342 338 336 340 344 342 342 341 341 343 342 341 340 340 339 338 337 337 338 339 340 337 336 339 340 340 340 339 336 338 343 343 344 343 343 343 343 343 343 342 342 343
346 339 338 337 341 342 343 343 341 342 343 344 343 343 342 341 339 339 339 337 337 339 338 337 338 338 339 339 340 336 341 340 341 341 342 343 342 343 343 344 344 344 344
340 339 338 336 336 337 338 340 342 343 345 345 343 336 335 335 336 338 339 338 339 339 338 336 336 336 340 339 339 337 340 340 341 339 340 342 343 343 344 343 343 343 343
338 340 341 335 336 337 336 338 344 343 345 337 334 335 336 336 336 335 335 338 338 337 338 338 336 337 337 339 338 337 339 338 339 339 339 339 341 341 342 341 341 341 341
339 339 337 338 338 338 338 341 344 343 335 334 334 335 336 336 336 337 334 335 336 338 338 338 336 338 336 338 338 340 337 339 339 339 341 340 340 339 340 341 340 338 338
339 337 337 337 338 341 342 341 341 336 334 332 334 335 335 335 335 337 337 336 336 336 337 337 336 336 337 336 339 340 336 337 338 338 338 338 339 338 338 339 337 335 337

GFSSE_850_thetae_018.txt.gz
Theta_e
353 353 344 345 350 349 347 346 346 346 347 346 346 346 344 341 341 342 341 341 340 340 341 343 342 342 342 339 335 337 341 337 336 337 339 337 338 340 336 332 339 340 330
353 353 344 345 350 349 347 344 341 343 344 344 344 344 344 343 341 340 341 341 340 340 341 343 345 343 342 338 337 343 339 336 339 336 337 338 339 336 330 342 344 336 332
353 353 345 347 349 347 341 338 338 340 340 340 341 341 343 342 340 338 340 340 339 338 338 340 343 343 342 341 342 343 336 339 340 335 342 348 343 333 331 340 332 331 333
353 353 352 348 347 340 338 338 338 337 336 335 335 336 337 337 336 336 338 339 338 336 337 339 339 340 341 342 340 343 333 337 338 340 344 345 343 339 333 337 325 331 328
352 351 351 345 340 338 339 339 336 334 333 332 332 332 333 334 335 336 336 336 336 336 337 338 337 339 340 342 340 340 332 340 339 345 344 344 343 342 338 332 336 328 340
352 351 343 341 340 340 340 340 337 335 333 332 330 330 331 333 337 339 339 338 338 340 337 337 339 340 342 341 339 339 337 339 339 346 347 342 346 339 335 336 327 327 330
353 353 341 341 341 341 341 340 339 339 337 335 333 331 331 337 339 339 340 340 340 339 339 339 339 339 341 340 340 339 336 338 347 345 345 344 345 337 335 337 327 327 330
353 353 352 341 341 341 341 341 341 341 340 339 338 335 332 334 345 336 337 341 341 341 341 341 341 339 339 339 339 336 337 336 345 345 345 344 342 336 333 333 333 327 335
354 354 355 349 341 341 343 343 343 342 342 341 340 339 336 334 339 344 336 340 340 342 342 343 342 339 338 340 336 333 334 334 346 346 344 344 335 335 335 332 331 329 332
354 354 355 354 349 346 345 344 344 344 343 341 339 337 339 339 338 334 335 338 339 340 341 343 343 339 339 338 339 334 333 338 346 346 346 344 338 334 337 334 326 333 333
354 354 353 355 353 355 352 346 345 344 343 343 342 338 337 348 349 348 342 343 338 338 340 342 343 340 337 339 339 337 335 345 348 347 346 345 333 335 340 336 329 328 335
354 353 352 351 352 350 351 350 345 348 348 349 345 345 343 349 348 349 348 339 337 338 339 341 343 343 339 337 339 338 339 347 349 348 347 346 339 335 339 337 334 328 329
354 354 353 353 351 352 354 350 350 347 348 348 343 343 344 345 346 347 347 347 344 342 347 344 344 345 344 343 341 341 344 345 350 347 348 344 340 339 336 338 335 334 329
355 354 354 354 351 352 349 349 351 350 348 348 345 342 340 340 340 340 341 344 347 350 345 348 347 345 346 343 341 338 339 340 345 346 346 343 340 339 338 338 336 336 335
355 354 354 354 353 352 345 348 349 352 351 351 342 340 340 339 338 333 335 338 344 347 349 349 349 348 348 344 342 344 345 339 341 340 343 346 342 341 340 338 338 333 336
355 355 355 353 352 351 349 348 345 347 349 348 347 347 343 341 339 340 331 337 341 346 348 349 346 348 347 347 345 341 343 344 341 340 345 345 342 341 341 337 337 334 334
354 354 352 344 350 350 348 344 341 348 347 348 348 346 345 341 342 341 339 340 341 345 342 341 346 347 348 348 347 346 345 342 346 345 343 345 345 342 339 340 338 336 337
354 353 345 337 344 344 343 342 346 349 349 349 349 349 345 345 343 343 345 342 342 345 343 346 345 342 346 347 346 347 347 343 346 343 344 346 344 345 345 341 340 341 342
356 347 338 337 341 344 344 343 341 342 343 348 347 348 347 345 345 344 342 346 346 345 346 346 346 346 344 345 346 345 346 343 342 342 343 344 344 344 344 346 343 341 341
349 343 343 343 341 342 342 342 339 343 344 348 348 348 344 344 343 342 345 345 344 346 345 344 344 343 343 345 345 344 344 346 342 344 344 345 343 344 346 346 344 341 340
351 342 339 340 339 341 340 342 345 345 348 350 348 341 341 341 341 341 345 344 340 340 344 344 344 342 342 344 346 344 342 345 345 342 343 344 344 345 350 347 340 338 346
351 346 340 339 340 339 338 343 342 345 346 344 346 344 344 343 342 341 341 342 342 340 338 338 342 339 344 342 342 339 339 341 344 345 342 347 348 346 347 347 344 345 347
349 346 345 341 338 339 339 342 343 344 347 348 346 343 343 339 337 338 338 339 341 340 341 339 339 338 343 343 341 340 340 340 343 346 346 345 348 346 346 346 346 346 348
347 341 336 340 337 337 337 341 343 347 346 343 341 342 338 339 338 339 341 341 338 339 340 340 338 337 337 340 339 341 342 343 341 344 345 348 348 348 347 346 348 348 348
343 342 339 336 338 337 338 339 348 342 340 340 340 337 340 341 339 338 340 339 340 336 339 339 337 337 337 337 338 342 342 343 341 341 341 338 347 347 348 349 349 349 349
346 343 335 338 337 338 341 340 340 334 334 338 336 340 341 340 343 339 338 339 340 337 337 338 338 338 336 337 338 339 342 343 342 341 338 338 340 344 345 346 348 348 346

GFSSE_850_thetae_021.txt.gz
Theta_e
353 350 346 348 348 347 347 347 347 347 347 347 346 343 341 342 341 342 342 342 340 340 340 341 341 341 341 337 335 341 339 331 332 333 336 337 338 335 337 340 341 341 335
355 352 345 349 348 347 346 346 346 347 346 345 345 344 342 341 341 341 341 341 341 341 342 344 345 343 342 339 336 343 338 333 335 338 337 339 337 332 339 341 342 333 329
354 352 345 350 349 347 345 341 343 343 342 341 341 343 343 341 339 340 341 341 341 338 339 341 344 343 343 339 342 343 338 338 333 339 344 346 341 330 342 342 338 339 334
353 352 349 349 349 345 339 338 338 338 337 338 339 340 341 340 338 338 340 339 338 337 339 339 341 341 341 341 341 341 337 338 340 344 348 345 342 329 337 332 324 328 335
353 353 349 348 346 340 338 339 337 336 335 334 335 337 337 336 336 336 337 337 337 336 337 338 338 339 340 342 340 340 332 337 344 343 348 345 342 336 339 329 330 332 337
352 354 346 346 341 338 339 339 336 334 333 332 333 333 334 335 336 337 336 336 336 338 338 338 339 340 342 342 340 338 333 338 344 346 342 343 346 338 333 335 334 338 340
351 356 344 341 340 339 340 339 336 335 333 332 331 331 333 342 341 341 341 341 340 341 339 339 339 339 342 340 339 339 335 337 347 347 345 343 345 341 333 333 328 328 327
351 356 346 341 341 341 341 340 338 337 336 335 334 333 334 338 343 338 342 340 341 342 341 341 341 339 340 339 338 337 336 339 344 344 345 344 346 337 333 332 327 329 332
352 354 354 347 341 341 341 341 340 340 340 339 338 337 335 345 346 344 337 341 340 342 342 343 342 339 338 340 337 334 335 334 346 347 344 345 341 333 333 332 334 329 335
352 354 352 354 352 347 343 342 342 342 342 341 340 339 337 338 335 335 335 338 338 341 341 343 342 339 339 339 339 334 332 334 345 349 346 344 345 335 336 336 327 332 336
353 352 352 353 354 353 354 346 343 344 344 343 341 339 338 349 349 345 343 346 339 338 340 342 343 340 337 339 340 339 334 343 345 347 346 347 342 333 338 336 329 329 335
352 351 354 354 355 353 352 350 347 347 350 350 350 347 348 349 349 350 348 345 337 337 338 340 342 343 339 342 338 339 337 344 346 346 348 347 345 335 337 337 333 328 335
354 352 353 354 354 353 354 350 348 348 349 350 348 345 345 350 347 348 348 351 347 343 345 342 340 343 344 339 347 343 345 344 348 348 348 346 346 341 335 337 336 333 331
352 352 352 351 355 354 354 354 351 349 347 345 347 346 341 342 340 342 349 344 342 347 350 348 349 349 348 344 347 346 339 346 347 346 346 347 343 340 339 336 338 333 335
351 351 354 353 354 354 353 352 353 350 351 351 347 343 341 344 344 340 337 331 334 339 343 346 347 344 347 349 345 348 346 342 342 345 347 345 345 341 340 340 338 334 333
351 351 353 354 355 353 349 349 346 348 353 351 350 348 344 341 342 340 337 335 332 335 341 346 349 346 347 348 346 344 346 346 347 347 344 346 345 344 341 340 339 338 335
351 352 354 355 354 353 349 347 344 349 347 349 348 348 351 347 346 341 341 340 334 334 338 335 347 347 349 347 347 349 347 347 346 346 344 344 347 345 343 341 338 337 334
353 353 354 352 354 352 346 349 350 350 348 346 348 347 348 349 346 346 346 344 341 337 333 338 346 345 345 348 347 347 347 346 347 347 347 348 345 345 345 342 339 337 336
355 355 352 340 341 341 338 338 348 349 349 349 346 347 347 344 349 348 346 346 343 342 345 343 345 347 345 345 347 347 346 345 346 347 346 347 344 345 346 344 345 343 340
357 358 350 341 340 345 347 337 349 348 347 345 349 347 348 348 346 343 342 343 342 347 346 343 344 346 344 344 342 343 345 346 348 348 347 344 344 344 346 347 347 343 341
358 358 355 348 342 341 342 342 349 348 343 343 350 348 347 346 348 348 346 347 345 343 346 347 346 344 345 345 345 345 342 342 343 348 348 345 345 345 343 345 347 347 343
358 354 351 343 341 340 339 337 350 349 351 346 350 348 349 348 346 345 343 343 343 342 343 344 346 344 343 343 344 343 341 338 340 347 344 344 346 344 346 344 346 346 342
356 353 351 345 341 340 337 338 345 346 344 349 349 346 346 346 345 344 344 342 340 341 341 342 341 340 341 342 343 343 340 338 338 345 348 345 349 347 344 345 346 345 344
353 352 351 349 342 338 337 339 348 345 347 347 344 345 343 345 342 343 341 341 340 341 339 341 340 342 340 339 344 345 342 342 344 342 347 347 346 345 343 343 344 344 345
349 348 349 342 338 339 339 347 346 347 344 345 344 344 344 343 345 341 343 341 341 340 339 339 341 341 342 342 341 340 344 342 343 344 346 340 346 347 348 348 345 347 347
349 347 347 347 339 342 340 346 347 340 341 342 341 344 342 342 342 341 342 340 342 339 339 337 340 341 340 340 338 338 341 342 341 344 341 340 340 343 346 347 347 348 348

GFSSE_850_thetae_024.txt.gz
Theta_e
352 348 348 348 347 347 346 346 347 346 346 345 342 340 341 341 341 341 341 339 339 339 339 340 340 340 341 336 336 340 335 330 329 332 335 337 333 338 340 341 342 333 327
351 346 347 347 347 346 346 346 346 347 346 345 343 341 340 340 340 341 342 341 341 341 343 344 343 341 340 336 338 340 333 331 334 334 335 334 330 337 341 343 342 329 322
350 345 348 348 346 346 345 344 345 345 344 343 343 341 340 340 339 340 341 341 340 338 340 343 344 342 342 338 342 337 334 331 335 340 343 342 329 340 340 341 337 330 324
345 345 349 348 347 345 342 341 343 342 340 340 341 341 341 339 338 339 340 340 338 337 338 340 341 341 342 341 342 334 335 341 343 345 348 343 330 337 338 329 330 334 330
352 354 349 349 347 341 339 339 338 338 337 337 337 338 339 337 337 338 339 338 336 336 337 338 338 339 341 342 342 333 335 343 345 345 347 344 341 332 327 326 329 332 339
352 353 348 348 343 338 339 338 335 334 334 334 335 335 335 335 337 340 337 337 336 338 338 341 339 340 341 342 341 333 336 344 343 344 344 344 343 337 329 334 338 340 337
355 350 347 345 339 338 340 338 335 334 333 332 332 332 334 339 341 341 341 340 340 340 338 339 339 339 342 340 339 334 337 341 345 343 346 341 343 343 331 329 329 334 329
355 353 343 340 339 339 340 338 337 336 334 333 332 332 337 340 340 339 339 341 341 340 340 340 340 338 341 338 336 336 335 345 347 347 345 343 344 337 332 332 326 328 326
353 353 341 340 340 341 340 339 339 339 338 337 335 335 336 342 344 339 337 340 340 342 342 342 341 339 338 339 336 333 334 342 347 345 347 345 343 337 331 328 329 330 333
356 352 344 342 341 341 341 341 341 341 340 340 339 338 337 342 335 335 335 338 337 340 341 342 341 339 338 340 337 333 331 334 346 344 347 347 346 342 332 327 331 329 334
355 354 352 351 349 343 344 342 342 342 342 342 340 339 337 342 348 348 341 343 343 338 339 341 343 339 339 338 341 336 332 335 345 346 346 346 344 338 332 331 326 331 332
352 353 354 353 353 351 351 349 344 343 343 345 345 345 344 350 349 349 349 344 343 336 337 339 342 342 338 339 339 339 336 337 345 346 344 337 345 342 333 335 330 327 334
351 353 353 352 355 352 352 350 348 347 346 343 347 345 343 352 350 349 347 347 348 338 340 343 341 341 343 341 339 338 339 340 346 346 350 346 345 344 338 336 334 331 329
349 349 351 351 353 348 353 351 347 344 344 348 344 342 343 344 348 348 352 350 347 344 345 347 347 347 346 346 342 347 346 347 345 347 347 346 347 343 339 336 336 333 331
351 351 351 351 349 353 350 351 350 350 346 344 345 344 343 340 345 346 345 345 344 343 338 344 345 343 345 346 343 348 344 343 348 347 348 348 345 344 341 337 336 336 333
352 353 354 352 351 350 351 350 347 348 345 336 341 349 347 344 341 342 341 339 337 336 335 338 338 334 341 346 344 343 346 347 345 342 346 347 345 343 343 340 339 337 335
351 351 354 354 354 349 350 347 345 350 346 346 348 347 349 346 345 342 344 341 342 342 335 338 339 335 332 345 347 345 346 341 345 345 344 342 344 345 345 342 340 339 338
351 352 353 353 355 352 350 350 345 347 349 349 349 348 346 347 347 345 346 347 345 343 337 334 337 336 335 346 347 347 347 347 344 346 345 345 345 347 346 344 343 340 336
354 353 354 354 355 353 350 349 350 350 348 350 349 349 347 345 345 344 346 344 348 346 342 342 339 339 339 343 342 346 345 346 344 346 342 344 345 347 347 346 344 344 339
355 354 355 350 350 347 345 343 348 349 346 341 348 347 347 347 346 346 343 341 341 342 340 344 341 342 344 346 340 342 343 345 345 344 344 342 343 343 344 347 347 344 344
357 356 355 352 350 349 341 341 341 348 348 342 340 341 334 337 346 345 344 344 342 341 344 341 344 344 337 343 346 342 344 345 344 344 342 339 339 343 343 344 345 347 346
361 356 355 355 351 343 340 338 341 346 347 349 345 347 346 344 343 342 342 342 343 343 341 341 342 345 344 345 344 344 342 340 342 343 342 343 343 340 344 344 343 344 345
358 355 354 351 343 342 339 338 338 342 345 344 347 345 346 346 342 340 340 340 340 341 340 340 339 341 343 343 341 341 343 341 342 344 343 343 346 346 345 345 344 344 345
355 355 353 351 346 342 339 338 340 345 342 346 345 345 343 343 345 344 341 340 340 340 340 340 339 340 340 340 339 340 342 344 343 342 344 346 345 344 344 343 343 344 344
354 353 353 347 339 339 338 339 345 343 348 346 345 339 344 342 344 344 342 340 340 340 340 339 339 339 340 341 339 339 342 339 342 341 344 342 343 343 346 342 344 342 341
350 350 350 341 340 338 338 342 347 349 342 339 341 344 343 344 344 340 339 340 340 341 338 340 338 338 340 341 341 341 339 339 341 342 341 339 342 340 344 346 346 345 344

GFSSE_850_thetae_027.txt.gz
Theta_e
348 348 348 347 344 346 346 346 345 343 342 341 339 341 340 340 341 340 339 337 337 337 338 339 340 340 336 336 339 337 329 329 330 331 336 333 339 338 340 339 333 331 335
348 348 347 347 346 346 346 345 345 343 343 342 340 340 340 340 340 341 339 339 339 341 343 342 341 340 336 335 340 333 331 332 333 334 331 329 337 341 342 341 328 322 322
347 347 347 346 345 345 345 345 344 342 341 341 340 339 339 338 340 341 340 340 337 340 342 344 342 342 339 338 339 331 330 332 336 341 337 328 338 339 340 340 332 322 325
346 346 346 345 344 343 341 341 340 339 339 340 340 340 339 337 338 340 340 339 337 338 339 341 340 342 342 341 337 334 334 341 344 344 342 330 337 338 333 333 335 325 323
345 347 347 345 343 338 339 338 339 336 336 338 339 339 337 336 337 338 337 337 336 336 337 337 337 340 341 341 335 334 341 343 345 344 341 340 332 330 324 326 331 334 326
343 348 347 345 340 338 339 336 335 334 333 333 334 334 334 336 337 336 336 336 336 336 338 340 338 340 341 341 334 337 343 343 344 345 345 342 340 330 329 328 330 340 333
344 348 348 344 338 339 338 335 334 333 332 331 331 332 334 336 339 340 337 337 339 338 337 340 342 341 341 340 337 335 343 345 342 344 345 343 342 341 329 329 339 336 326
349 343 344 341 338 339 339 336 335 334 333 332 331 332 339 339 339 339 340 340 340 339 339 340 341 340 342 338 338 335 340 345 344 346 344 342 343 337 330 326 325 326 333
352 350 342 339 339 340 339 337 337 336 335 335 334 335 334 339 339 335 337 339 341 341 341 341 341 339 341 338 336 334 339 344 346 345 344 343 343 337 329 328 325 330 328
348 350 341 339 340 340 340 339 339 339 338 337 337 336 336 341 338 338 335 336 337 340 341 342 341 339 338 339 336 334 337 342 345 344 347 344 343 341 332 325 328 328 328
354 351 343 340 340 340 340 340 341 341 340 340 338 337 336 338 344 339 339 340 338 337 339 341 342 339 338 338 338 333 334 335 346 346 346 346 343 338 334 332 327 328 329
354 353 351 349 345 341 343 343 342 341 341 342 340 338 336 347 350 350 348 346 344 339 336 338 341 342 338 337 339 339 331 336 345 346 345 343 344 342 333 334 327 327 331
352 352 350 350 350 349 347 349 346 343 343 344 343 343 340 345 348 348 347 346 345 340 338 338 340 341 342 339 338 338 338 336 345 346 345 338 343 344 340 334 332 328 330
351 352 350 349 349 349 347 349 349 346 347 345 339 342 340 337 340 347 347 347 347 344 344 342 345 345 340 342 344 340 339 337 345 346 346 345 339 344 341 337 334 332 330
349 350 349 348 349 350 347 349 342 337 344 342 343 344 341 341 341 344 344 344 343 342 339 343 343 344 342 342 344 344 344 340 343 346 347 346 345 345 341 338 335 334 331
348 350 350 350 351 351 351 348 346 337 343 345 342 342 343 343 343 341 340 341 342 341 337 336 335 339 342 339 336 343 344 343 341 345 346 346 346 344 343 342 339 337 335
352 351 353 353 351 352 351 350 348 346 345 343 343 336 342 344 347 344 344 343 341 341 341 340 335 340 336 334 338 342 343 342 342 342 345 345 346 344 343 344 341 339 339
351 350 354 353 352 352 346 344 345 343 344 344 345 345 345 346 345 346 344 342 343 341 341 338 335 336 337 337 335 335 343 344 343 342 342 342 342 342 344 344 344 341 339
351 352 353 353 353 352 348 341 337 347 347 347 348 345 347 347 347 346 345 344 343 343 345 344 341 341 336 336 336 338 339 345 346 344 343 344 343 344 343 345 345 344 343
352 352 352 354 351 347 344 339 338 343 346 345 345 347 345 339 339 345 346 345 343 342 342 341 340 342 340 337 340 342 341 341 338 345 343 342 342 341 344 345 346 345 344
353 354 353 352 351 343 342 339 339 342 346 345 345 342 340 341 341 341 340 340 341 342 343 341 341 342 341 341 342 341 341 344 344 343 342 344 343 342 342 342 342 346 346
356 356 354 352 350 346 342 338 338 341 343 345 344 344 345 343 342 342 340 340 339 340 340 341 340 341 340 341 341 336 335 342 342 340 341 344 342 339 342 343 343 344 344
356 358 356 353 349 344 340 339 338 340 343 343 345 344 344 344 343 343 343 342 340 339 339 339 339 340 340 341 341 343 341 339 339 341 343 344 341 341 343 344 342 343 344
354 349 350 349 348 342 339 338 338 342 343 345 346 344 343 342 342 345 343 341 341 340 339 339 339 339 339 339 341 342 340 339 340 341 342 344 341 343 344 343 342 341 342
353 350 352 350 339 341 340 338 338 343 347 345 345 342 343 344 343 343 339 339 340 341 341 338 339 339 339 339 340 340 339 339 342 341 341 341 341 344 344 345 342 343 342
354 353 352 341 337 338 339 341 347 346 345 340 341 342 342 342 343 341 340 341 340 341 340 339 339 338 338 339 340 340 339 339 340 338 341 339 338 339 340 343 343 341 344

GFSSE_850_thetae_030.txt.gz
Theta_e
347 346 345 344 345 345 344 344 341 340 340 342 342 341 340 340 339 337 336 336 337 336 336 338 340 337 336 339 338 329 332 332 332 335 335 333 337 340 335 326 330 333 337
346 348 345 344 346 345 345 344 342 340 340 339 341 340 340 340 340 338 337 337 338 339 340 340 340 337 336 339 335 330 329 332 334 335 333 337 339 341 331 324 324 332 331
347 348 346 345 345 345 344 342 339 339 340 339 339 339 339 340 341 339 339 339 340 342 344 342 341 339 336 339 333 334 334 334 335 330 329 337 339 341 337 328 320 326 324
347 347 346 345 344 344 343 341 338 336 337 339 338 338 337 338 340 340 340 337 337 339 341 342 342 341 339 339 333 332 333 335 339 331 330 337 334 336 335 332 321 332 335
346 345 345 344 343 340 339 338 337 335 336 337 337 337 336 336 338 338 338 336 335 337 340 339 340 340 341 339 334 337 341 343 338 337 338 332 331 328 327 332 327 323 331
345 345 344 343 339 338 337 336 335 335 334 334 334 334 335 335 336 336 336 335 335 336 338 338 338 340 342 338 334 341 343 345 344 341 340 339 335 327 326 330 333 327 330
347 346 344 341 337 338 335 334 333 333 332 333 332 332 334 336 336 336 335 336 337 337 338 341 341 341 342 337 335 341 342 343 345 345 342 342 341 337 328 332 340 329 324
346 346 344 339 338 338 335 334 333 332 332 331 331 332 335 339 340 339 339 340 340 338 338 339 340 341 341 339 334 340 343 343 343 344 341 343 342 338 329 326 335 327 325
343 343 343 338 338 339 336 335 334 334 333 332 332 333 335 336 335 337 337 340 341 340 340 340 340 338 339 338 334 339 342 345 346 344 343 344 342 338 330 327 325 325 328
347 344 341 339 339 339 337 337 337 336 335 335 335 335 335 337 336 336 336 337 338 341 341 342 341 338 340 335 334 336 341 344 346 345 345 341 343 337 331 327 325 329 328
346 346 341 339 339 339 339 338 339 338 338 336 336 336 336 336 342 338 339 340 341 338 339 341 341 339 337 338 335 333 337 342 344 344 344 344 343 337 335 330 328 327 327
351 347 343 339 340 339 339 339 340 340 340 340 338 337 336 340 347 348 347 346 343 342 336 338 341 342 338 337 338 334 333 335 343 343 345 345 344 341 333 332 327 328 328
351 350 350 348 347 343 339 341 341 341 342 343 342 340 338 346 346 345 347 345 343 343 336 336 338 339 342 338 337 338 336 332 343 344 344 345 340 343 339 333 333 326 329
351 348 349 350 349 348 347 346 346 344 343 340 343 343 340 338 338 336 345 343 346 346 345 343 341 343 342 341 338 337 337 334 341 343 344 346 342 343 344 337 335 331 328
350 349 351 349 348 349 349 346 347 345 344 342 342 343 339 338 338 341 341 342 339 342 340 338 340 340 343 341 341 342 339 337 338 344 344 346 347 343 343 341 337 336 332
348 349 350 350 350 350 349 347 345 344 343 340 343 343 343 343 343 342 342 340 340 341 340 339 337 336 335 342 341 339 340 341 338 342 344 345 345 344 345 342 339 337 335
349 347 349 350 350 350 351 348 337 343 344 344 344 343 339 338 344 347 345 343 344 343 342 340 340 340 337 338 340 339 341 341 342 340 343 344 345 345 344 343 342 341 338
352 349 351 352 351 350 348 346 338 341 342 341 341 345 343 343 346 345 345 345 343 343 342 342 340 335 339 338 334 335 335 337 341 341 340 341 343 342 343 342 342 344 342
351 351 352 353 349 349 345 344 338 339 344 343 343 344 343 344 346 346 346 346 344 343 341 340 341 341 339 339 336 336 336 337 341 344 342 341 341 342 342 342 342 343 344
351 352 352 351 348 346 344 340 336 337 340 344 345 345 344 342 340 339 343 344 343 342 342 341 340 340 340 341 337 336 339 337 338 338 339 344 342 343 342 342 343 343 344
351 352 352 351 348 347 343 341 340 339 342 341 342 342 343 342 343 342 342 339 338 339 342 342 341 340 340 341 341 337 340 341 341 339 341 343 343 341 341 344 342 343 343
352 352 352 350 348 345 342 339 339 340 343 345 343 344 344 344 343 341 340 341 342 339 339 340 341 341 341 341 341 340 341 339 339 342 342 343 343 342 340 340 341 342 342
353 354 353 353 349 343 339 338 338 340 343 344 344 344 343 342 341 342 343 343 341 340 339 339 340 340 341 340 340 340 338 334 335 339 339 340 340 341 341 340 341 342 342
356 354 354 351 345 342 339 339 338 341 344 345 345 345 343 342 342 343 343 339 339 339 339 339 339 339 339 340 340 341 338 338 338 340 340 338 341 344 342 341 342 341 341
355 346 347 348 342 341 339 338 338 342 346 345 344 341 342 341 342 341 340 340 340 340 339 339 338 339 339 339 339 340 341 342 340 340 337 340 341 342 343 341 344 343 341
350 346 346 341 339 340 339 338 342 345 346 342 341 342 340 341 340 340 338 340 340 340 339 339 339 339 338 338 339 339 340 340 339 339 340 338 339 338 339 339 342 341 340

GFSSE_850_thetae_033.txt.gz
Theta_e
342 345 345 344 343 342 340 339 340 340 341 341 343 345 344 344 344 344 341 336 337 337 337 338 337 336 339 339 331 339 335 335 332 334 330 336 333 331 332 337 335 334 336
343 345 344 344 344 343 341 340 339 338 340 341 340 339 340 339 339 338 336 337 337 337 338 339 338 335 339 338 329 330 330 332 335 334 340 338 339 332 328 331 336 334 334
345 344 344 345 344 344 342 341 339 339 338 340 339 339 340 340 338 337 337 338 340 342 341 340 339 335 339 334 332 331 336 337 338 338 336 340 340 330 324 326 331 327 327
346 345 344 345 344 344 342 339 338 339 339 339 339 338 339 340 340 338 339 338 340 342 343 342 342 337 341 333 336 337 334 336 330 330 337 335 340 335 328 321 330 324 323
347 346 344 344 343 343 341 337 335 336 338 338 338 337 337 339 340 340 338 336 338 338 340 340 341 341 341 333 337 333 335 337 331 331 333 331 327 327 331 322 337 336 339
347 346 344 343 341 340 338 336 335 335 335 336 335 335 335 337 337 337 336 335 336 337 337 337 339 342 341 334 335 340 338 338 339 338 337 334 327 324 325 329 323 332 329
346 345 343 341 338 338 336 334 333 333 333 333 333 334 335 335 336 335 335 335 336 337 340 339 339 342 341 333 338 341 344 344 341 341 341 339 337 328 325 328 331 331 327
345 344 342 339 338 337 335 333 333 332 332 331 331 333 335 338 338 338 338 339 339 337 338 340 340 341 340 332 340 341 343 344 344 342 341 341 340 336 328 336 334 325 324
346 344 342 338 338 337 334 333 333 332 331 331 331 334 335 336 336 336 339 340 340 339 340 340 339 341 340 334 336 341 343 342 343 344 341 342 341 337 330 327 332 327 325
347 345 342 338 338 337 335 335 334 333 333 332 332 334 336 336 335 335 337 337 339 341 341 341 340 337 338 338 333 338 342 343 344 345 343 342 342 335 331 327 325 325 327
347 346 343 338 338 338 336 336 336 335 335 335 335 335 338 334 336 337 336 339 339 337 338 340 341 339 339 337 335 336 338 344 344 345 345 343 342 341 335 328 327 327 328
346 345 343 338 338 339 338 338 338 338 338 337 336 335 335 336 344 345 344 343 341 341 335 337 340 341 338 338 336 335 334 340 342 344 343 345 343 342 337 332 328 327 328
348 346 342 339 339 339 339 339 339 339 340 339 338 336 336 341 347 347 346 346 345 342 339 335 336 339 341 337 338 335 333 333 335 341 343 344 342 343 341 333 333 328 329
350 348 345 343 345 345 340 340 340 341 341 342 342 341 340 342 344 337 336 345 342 344 342 341 339 339 341 340 338 337 338 334 332 337 344 344 343 339 343 341 334 333 328
351 349 349 349 349 348 346 347 347 346 344 342 340 341 341 341 338 339 341 344 342 341 343 340 337 338 339 342 341 340 338 337 334 334 342 342 343 344 342 342 342 335 334
351 349 351 350 349 350 349 347 346 345 341 343 342 340 342 343 343 341 341 342 340 339 339 340 339 338 338 337 336 342 342 339 341 336 339 342 343 344 345 343 343 339 336
348 348 350 350 351 350 349 346 344 345 345 340 343 343 343 342 343 341 344 345 341 342 342 342 342 340 340 341 339 337 340 338 341 341 338 340 342 343 343 344 343 342 339
349 348 349 349 348 347 340 344 339 338 339 344 342 342 343 341 338 343 346 345 344 343 341 342 342 341 340 337 338 337 340 339 338 340 342 340 341 344 345 343 342 341 342
350 349 348 350 349 348 341 343 342 337 341 342 342 342 343 341 342 340 341 344 344 343 343 342 341 340 341 339 337 337 334 335 335 337 342 341 340 340 341 341 341 341 341
352 349 349 350 348 347 345 344 342 339 339 342 342 344 342 343 342 341 341 343 343 344 342 342 342 341 340 340 340 341 337 336 335 338 340 344 344 342 342 343 342 344 343
353 352 351 351 349 347 344 341 336 337 337 341 341 342 342 343 343 343 343 343 340 339 339 339 340 341 340 340 340 341 338 336 340 337 338 339 338 342 342 342 341 344 343
352 351 352 349 348 345 341 341 340 339 340 341 344 343 343 343 343 341 341 341 341 342 341 340 339 339 339 340 340 341 340 338 339 340 341 339 340 340 342 340 341 340 340
351 351 351 349 346 341 338 338 339 340 342 343 344 344 343 342 341 340 341 341 341 340 339 339 339 339 339 340 341 341 339 338 339 338 336 338 341 340 340 341 341 339 340
352 352 351 349 343 340 338 337 338 341 343 345 344 344 343 342 341 341 340 340 339 338 339 339 340 339 339 339 341 340 340 338 337 336 340 339 339 339 339 341 342 340 342
353 355 349 346 343 340 338 338 339 341 346 345 343 342 342 341 340 339 339 337 339 339 340 339 339 338 339 339 339 340 340 339 338 339 337 338 339 340 342 342 342 342 341
354 347 345 341 339 340 338 338 339 344 345 343 341 343 339 340 338 336 336 338 339 339 339 338 338 337 339 338 339 339 339 340 340 340 340 339 337 339 338 338 339 341 340

GFSSE_850_thetae_036.txt.gz
Theta_e
343 342 342 343 341 340 340 341 342 344 345 345 345 345 345 346 345 344 338 337 338 337 338 337 335 338 340 334 338 335 336 334 332 332 328 337 336 328 327 336 332 328 334
344 344 343 343 342 339 340 340 340 341 342 343 344 343 342 343 342 342 336 338 338 337 338 339 335 337 337 333 338 332 332 334 337 340 338 334 328 333 339 334 334 332 330
343 345 344 344 342 341 339 339 339 340 340 340 339 339 339 339 338 337 337 338 339 340 340 339 335 337 335 330 328 329 338 338 338 339 339 338 330 323 328 339 332 337 338
343 344 343 344 343 341 339 338 338 338 340 339 339 340 340 339 337 337 338 339 342 343 342 342 338 337 336 337 333 334 336 336 335 336 338 339 337 326 321 326 325 327 325
344 343 344 344 343 342 338 337 337 338 338 339 339 338 339 340 338 339 338 337 339 341 341 342 341 338 338 337 338 333 335 331 330 336 333 336 331 331 321 332 327 324 323
345 343 344 344 343 341 338 337 336 337 337 337 337 336 338 339 339 339 336 335 336 338 338 339 341 342 340 335 334 333 336 331 332 331 330 328 325 325 326 332 334 337 328
346 345 344 343 342 339 337 335 334 336 336 336 335 335 335 337 337 336 335 335 335 337 339 338 340 342 340 337 338 336 337 338 338 338 337 335 329 325 328 327 328 333 325
346 345 344 342 340 338 336 334 333 334 334 334 333 334 335 336 335 335 335 337 337 336 339 340 341 342 340 337 340 342 342 341 341 341 340 339 337 329 326 331 330 328 324
345 344 342 339 339 338 335 333 332 332 332 332 332 334 337 339 338 338 339 339 339 338 339 340 339 342 340 334 339 340 343 344 343 341 341 341 340 335 328 339 336 324 324
344 343 341 338 338 337 335 333 332 332 331 331 332 335 336 335 335 336 338 339 340 340 341 341 339 339 340 337 334 340 342 341 342 342 343 341 341 337 331 336 335 327 326
345 344 342 338 338 337 335 334 333 333 333 332 333 334 337 336 335 334 335 337 337 337 339 340 340 338 339 338 335 335 341 342 343 344 343 343 342 341 337 336 334 327 328
346 345 344 339 338 338 336 335 335 335 334 334 334 334 336 336 339 340 338 338 338 336 335 337 340 340 338 338 336 334 335 338 343 343 343 344 343 342 339 335 332 327 329
345 345 344 341 338 338 338 337 337 337 337 336 336 335 335 336 344 345 345 345 344 341 340 334 335 339 340 337 337 335 334 334 337 341 343 342 342 343 342 336 332 328 330
347 346 345 342 338 339 339 338 338 339 339 340 339 338 336 339 346 342 336 344 344 343 342 340 339 336 338 340 338 337 336 334 333 334 336 343 343 342 341 342 335 333 329
350 348 345 341 340 342 341 340 340 340 340 341 339 339 340 341 340 339 338 340 344 343 342 343 338 338 338 340 342 340 337 338 338 333 331 343 343 342 341 342 340 339 334
351 349 347 346 346 346 346 345 345 345 344 343 342 342 340 341 342 342 340 341 341 340 339 339 340 339 338 338 337 338 340 340 338 338 335 336 341 341 343 344 342 342 340
351 349 349 349 349 347 340 341 342 343 344 342 343 344 340 342 342 343 342 342 343 342 342 342 342 342 342 339 340 340 339 340 342 338 341 338 339 342 342 344 343 344 342
350 349 349 349 339 337 339 342 341 339 339 339 340 342 342 343 343 340 339 343 345 343 342 341 341 342 341 341 338 337 336 337 341 339 341 342 339 339 341 343 342 342 341
350 349 349 348 348 347 344 340 340 341 338 339 342 340 342 343 342 342 341 341 342 342 343 342 343 342 341 340 340 337 336 336 337 338 337 338 341 340 341 342 342 342 341
351 350 350 349 348 346 345 343 342 341 339 341 342 342 344 342 343 340 340 341 340 341 342 341 340 341 340 341 341 340 339 339 336 334 335 337 342 342 341 340 341 342 342
351 351 350 349 348 344 344 343 340 340 338 338 341 340 342 342 342 342 342 341 341 340 339 341 339 338 338 340 341 340 339 339 338 336 336 338 340 343 343 342 342 340 341
351 352 350 349 347 346 338 339 338 338 337 339 342 343 343 343 342 342 340 340 342 342 342 342 340 340 338 339 341 340 339 340 340 336 339 337 338 340 339 342 340 339 339
351 352 351 350 347 339 337 339 339 339 339 342 343 343 342 342 340 340 340 339 339 338 338 339 339 339 339 339 340 341 340 339 339 339 339 338 339 340 341 341 341 340 339
351 351 352 350 342 338 336 339 339 341 341 342 343 343 340 341 341 339 338 339 338 339 339 339 340 340 340 339 339 340 341 339 337 337 338 338 338 339 338 339 340 340 341
346 350 350 345 340 338 337 337 338 339 342 344 343 340 341 338 338 337 335 336 338 339 339 339 338 339 339 339 339 339 340 340 340 338 337 338 338 339 340 340 341 341 341
343 348 351 344 341 339 337 338 338 339 343 343 341 342 339 337 336 335 336 338 338 339 339 338 338 338 338 339 339 339 340 340 339 339 339 337 339 338 338 338 339 339 340

GFSSE_850_thetae_039.txt.gz
Theta_e
341 341 342 340 340 342 344 345 346 345 346 346 347 347 347 345 343 340 338 339 340 339 337 335 337 339 336 335 334 336 335 332 331 329 338 340 326 330 330 324 338 339 332
341 341 342 341 340 340 341 342 343 344 345 344 344 344 346 345 344 340 337 338 338 337 339 336 336 338 336 332 334 332 331 332 330 330 338 330 335 330 336 333 328 337 332
342 342 342 342 339 339 340 340 341 341 343 343 343 342 342 343 342 338 337 338 339 340 340 337 336 337 335 332 333 330 335 338 341 340 337 338 337 339 335 332 333 335 334
343 343 343 342 341 339 339 339 339 340 340 340 339 339 339 339 338 337 337 339 342 340 340 340 337 338 333 330 330 338 338 339 338 338 342 342 340 327 340 332 338 337 325
344 344 344 343 343 340 339 338 338 340 340 339 339 339 339 338 337 337 338 340 342 343 342 342 338 340 337 337 335 335 336 337 335 337 339 342 342 328 325 324 327 324 322
344 343 344 344 343 341 338 337 338 339 339 339 338 339 340 340 338 340 336 336 338 340 341 341 341 341 337 335 336 334 332 331 334 333 335 337 340 328 332 337 326 329 323
343 343 344 344 344 341 337 335 336 337 337 338 337 337 339 340 340 338 335 335 336 338 339 340 341 342 339 334 335 335 335 332 334 334 333 340 335 334 326 336 334 336 326
344 343 344 344 343 342 338 334 334 336 336 336 335 335 337 337 337 336 335 335 336 337 340 341 340 342 340 336 339 335 336 338 338 340 338 338 332 326 329 326 333 332 325
346 344 343 344 342 340 338 335 334 334 334 334 333 335 336 336 336 337 337 339 338 337 339 340 340 342 341 335 340 341 342 340 341 342 341 340 337 333 328 335 332 331 325
346 345 344 342 340 339 337 335 334 334 333 332 332 334 343 339 336 337 339 340 340 340 340 340 339 341 341 336 338 340 342 343 342 341 341 341 340 336 330 338 339 331 325
345 344 343 341 339 338 336 334 334 333 332 331 332 335 336 338 337 336 337 337 339 340 340 341 340 338 339 339 334 339 340 343 342 342 344 341 341 341 335 338 336 329 328
344 344 343 340 338 338 336 335 334 333 333 332 333 341 338 337 336 335 335 338 337 336 336 339 341 339 338 341 338 334 338 341 343 343 344 343 342 341 339 336 333 332 327
344 345 344 342 338 338 338 336 335 335 334 334 334 334 337 336 341 341 343 344 343 341 343 336 338 341 339 339 341 336 334 334 336 342 342 342 343 343 342 338 333 329 328
345 345 345 344 339 338 339 338 337 336 336 336 337 337 336 335 341 344 341 343 344 343 342 338 337 336 339 340 338 337 337 336 334 333 338 340 341 342 342 342 340 333 330
347 346 346 345 341 338 340 340 339 339 339 340 340 340 339 339 341 340 339 338 343 343 343 343 341 339 339 339 341 340 338 337 337 336 333 333 341 342 342 340 343 339 334
350 349 347 345 341 341 344 344 341 342 340 340 341 341 340 340 340 340 341 339 342 342 341 339 340 340 339 338 337 339 340 340 339 338 337 334 333 342 340 341 341 340 338
350 349 347 346 345 342 344 340 343 337 342 343 342 342 343 341 340 342 343 342 342 343 342 341 341 340 341 341 339 339 339 339 339 341 339 340 337 337 340 341 342 343 343
351 350 349 343 340 344 342 338 342 341 340 340 341 341 342 343 342 343 342 342 341 345 344 343 341 341 342 342 341 341 339 337 338 340 341 339 341 339 341 341 341 343 342
351 352 349 346 344 345 343 341 342 342 340 340 340 339 342 343 343 342 342 341 343 343 343 343 342 342 343 341 341 340 339 336 337 337 340 339 339 341 341 340 342 342 342
350 351 350 348 347 346 344 344 342 341 341 340 340 342 341 343 343 343 340 341 341 340 341 341 340 339 340 342 341 340 341 339 338 336 337 336 335 336 340 341 341 341 341
349 351 351 349 348 346 345 344 343 341 340 341 340 338 340 341 341 341 341 342 341 339 339 338 339 341 339 338 340 341 340 340 339 339 338 336 335 338 343 343 342 342 342
344 349 351 349 346 345 338 338 338 338 337 337 339 342 343 343 342 342 341 339 339 341 341 342 342 341 340 339 340 341 342 342 339 339 337 337 337 338 341 339 340 342 341
342 344 348 349 347 337 337 338 339 338 339 340 341 343 342 342 341 340 339 338 339 339 339 338 338 339 339 339 339 340 343 342 341 339 336 339 338 338 339 339 340 342 340
342 340 346 346 346 337 335 339 340 341 341 343 343 342 340 340 339 338 337 336 337 338 339 339 339 339 340 340 339 339 340 338 342 341 339 339 337 339 337 341 341 341 342
335 345 346 348 343 337 338 338 340 341 342 343 342 340 341 339 338 335 335 335 337 339 339 339 338 339 339 341 340 339 339 340 340 339 340 338 338 339 339 339 339 340 341
338 338 347 348 341 338 338 338 338 338 342 339 341 341 338 335 335 335 337 338 338 339 339 338 339 337 338 339 340 340 339 340 341 341 339 338 338 338 339 340 341 341 341

GFSSE_850_thetae_042.txt.gz
Theta_e
350 350 339 341 345 347 346 346 346 345 345 346 344 338 341 338 338 338 340 340 339 338 338 338 338 337 335 335 336 336 335 332 331 330 338 326 341 338 326 334 338 337 330
351 350 340 340 343 344 345 345 345 346 346 346 347 346 345 343 341 338 339 340 338 339 338 335 338 338 333 338 333 333 331 332 329 338 337 325 327 330 325 339 345 333 327
351 352 343 340 341 341 342 343 345 345 344 344 345 346 346 344 343 337 337 339 340 340 342 336 338 338 340 339 332 332 334 338 332 338 336 345 344 336 336 329 334 336 335
351 352 352 340 340 340 341 341 342 344 344 342 342 343 344 344 342 336 338 339 341 341 339 341 341 337 332 332 330 339 337 339 338 338 344 339 341 338 331 337 338 333 327
351 352 352 342 340 339 339 339 339 340 341 340 340 340 340 339 338 337 338 340 343 341 340 339 339 339 335 331 337 339 340 338 337 344 345 342 339 339 339 333 335 326 330
352 352 346 342 342 340 339 338 339 339 339 339 339 339 339 338 337 339 339 340 340 342 341 342 341 341 340 339 333 335 338 334 338 342 346 341 343 327 326 325 326 323 333
353 353 346 343 343 341 339 338 339 339 339 339 338 339 340 340 339 340 337 337 338 340 339 340 341 340 339 335 333 335 332 332 344 342 342 341 342 328 340 337 336 328 330
353 353 355 344 344 342 338 337 338 339 338 338 337 337 339 342 340 338 335 335 337 338 340 339 340 342 340 334 335 335 334 336 344 343 344 342 333 327 328 332 332 331 328
353 354 355 350 346 342 339 336 335 337 337 336 336 336 338 337 337 336 335 337 336 338 340 341 341 342 342 337 339 335 337 339 347 345 346 343 336 327 327 329 336 330 325
354 354 354 356 352 351 347 336 335 335 336 336 338 335 337 339 337 338 339 339 338 339 340 340 339 342 341 334 338 341 341 342 347 347 346 345 338 332 328 338 337 329 324
355 354 356 357 355 354 353 346 340 337 337 341 343 334 343 348 346 347 346 343 340 340 341 341 339 340 341 339 335 340 341 346 347 347 346 345 340 338 331 334 336 332 327
354 354 354 354 353 353 351 351 349 351 345 348 348 349 347 348 348 347 345 338 338 338 339 341 341 338 339 347 344 336 345 346 347 347 348 344 341 340 340 335 334 331 328
353 354 354 353 352 352 351 350 347 350 349 345 345 346 347 347 348 343 338 343 345 340 346 341 342 346 347 348 346 346 344 345 344 346 346 344 342 343 342 339 335 332 331
353 354 353 352 352 351 351 349 350 349 349 346 341 340 343 343 344 343 344 341 345 346 344 348 346 348 349 348 348 347 347 346 344 343 345 343 341 340 342 342 341 333 331
354 355 355 353 350 351 348 348 340 341 338 338 338 338 337 338 339 343 341 339 337 343 345 344 347 347 347 347 347 347 347 347 346 345 344 341 337 340 342 342 341 341 334
354 351 354 354 351 349 341 342 342 340 339 338 338 340 341 340 339 340 339 340 345 347 344 344 344 346 347 347 346 348 347 347 347 346 346 345 337 332 341 342 340 341 342
355 355 352 341 340 344 342 343 344 344 341 336 337 337 341 342 341 340 342 349 347 349 345 345 345 345 347 347 347 346 347 347 346 347 348 347 347 339 334 340 340 342 341
357 356 348 344 341 341 341 345 342 342 341 340 341 336 342 343 343 340 342 342 345 344 345 346 346 345 346 348 348 346 347 347 346 346 346 347 346 346 346 338 339 341 343
357 355 349 346 343 343 342 343 342 343 342 340 340 341 339 342 342 343 342 346 345 347 347 346 347 344 345 346 347 348 346 346 345 344 344 346 347 346 347 347 343 340 341
353 337 338 338 345 345 345 346 345 343 341 340 340 340 340 342 343 343 346 342 341 346 345 344 346 346 346 346 346 346 347 346 345 342 342 344 346 346 345 346 348 346 342
348 333 336 340 349 347 349 346 344 342 341 342 341 341 341 342 342 341 344 346 344 345 347 346 346 345 343 344 342 344 344 345 346 344 343 341 341 342 343 346 346 346 348
344 335 348 349 349 353 349 345 344 340 338 337 337 340 341 342 343 343 344 345 345 344 342 343 343 342 345 345 343 344 343 343 343 345 344 344 344 343 344 348 345 344 342
335 341 342 350 350 349 340 339 338 337 337 336 336 343 344 342 341 340 340 341 342 340 343 345 343 342 344 343 340 344 345 342 344 345 345 345 345 342 344 347 348 347 345
342 342 335 346 349 340 338 344 345 344 343 346 343 344 341 341 340 338 338 341 342 343 343 343 343 340 340 340 341 340 340 343 346 345 344 345 339 339 338 343 346 345 344
340 339 342 345 346 338 338 343 347 346 345 344 343 341 342 340 337 338 338 341 341 341 342 340 340 339 340 340 340 341 341 341 342 343 345 343 340 338 338 338 339 343 342
340 349 345 347 344 339 340 338 339 340 345 346 344 344 341 340 342 340 340 339 340 340 341 342 339 340 339 340 341 342 342 341 343 342 343 343 342 338 340 342 342 342 343

GFSSE_850_thetae_045.txt.gz
Theta_e
352 344 338 342 346 347 348 348 347 344 344 339 336 335 335 335 338 340 340 339 339 338 338 337 335 336 336 336 337 338 336 331 329 332 326 342 333 332 329 340 338 333 331
352 349 339 342 346 346 346 346 346 345 345 345 339 341 339 340 340 340 339 338 339 339 336 336 339 339 337 337 337 333 332 330 336 337 324 332 328 330 340 343 341 327 323
352 347 341 341 343 345 345 344 344 346 346 347 346 345 344 343 339 338 339 339 337 340 339 338 343 340 335 340 332 332 331 330 338 340 345 344 342 330 336 342 337 335 322
352 351 348 340 341 341 343 343 345 345 343 345 346 346 345 344 341 337 339 339 338 340 339 339 339 336 338 334 332 335 340 336 338 342 345 345 344 332 332 332 332 330 324
351 353 343 339 340 341 341 342 343 344 343 342 342 344 345 343 341 337 338 341 341 340 338 340 341 336 331 330 338 337 339 336 342 343 346 342 341 339 333 338 334 324 333
353 355 342 340 339 339 339 340 340 342 342 340 340 340 340 340 338 338 338 340 342 342 342 342 342 339 340 337 335 338 337 333 344 345 343 341 344 329 328 327 331 325 337
354 354 343 342 340 338 337 338 339 340 339 339 339 339 339 339 338 340 338 338 339 341 341 340 341 340 337 338 332 334 334 340 344 341 344 341 343 333 335 327 328 323 331
353 353 346 342 342 339 337 336 337 338 339 339 337 337 340 340 340 340 336 336 337 338 339 341 341 341 341 334 333 334 330 339 344 343 341 342 338 328 337 334 338 330 332
352 353 354 350 345 341 338 336 337 337 337 337 337 336 341 343 341 338 336 336 336 337 340 341 340 342 341 335 336 335 333 338 345 344 342 345 331 324 328 327 332 328 325
352 352 354 353 352 351 346 343 346 336 336 336 336 339 344 342 338 336 337 338 337 337 339 340 339 342 342 338 338 336 337 339 345 346 343 345 344 331 326 330 332 327 324
352 352 353 352 352 351 350 346 344 339 338 344 342 337 338 347 348 346 345 347 340 340 340 340 339 341 342 338 335 340 341 345 347 348 346 347 339 333 329 334 336 332 327
352 352 353 354 355 352 352 349 350 349 348 348 350 348 339 348 349 349 351 341 339 340 340 341 341 338 341 346 337 338 344 347 346 348 347 346 343 339 339 331 333 332 329
351 351 352 352 352 350 351 350 350 350 349 348 349 349 347 349 347 347 350 346 346 339 347 344 342 344 347 347 348 347 344 345 347 345 347 347 342 341 340 338 333 331 329
351 352 353 353 353 350 352 349 350 350 350 349 348 344 342 343 343 344 342 346 344 345 346 339 348 346 346 349 347 347 346 345 345 345 345 346 344 341 342 343 341 334 331
352 353 355 355 353 353 349 352 349 350 348 347 341 337 338 339 337 341 343 339 340 339 342 346 350 348 348 348 348 348 347 346 346 345 345 344 344 339 340 341 342 342 340
354 355 357 350 355 352 347 344 342 343 342 339 338 338 338 336 335 336 342 340 339 345 344 342 345 347 348 348 348 347 346 346 346 345 345 346 345 341 333 340 342 341 340
355 355 356 355 346 345 350 347 343 346 343 340 340 339 339 339 338 339 340 340 344 349 347 346 345 346 348 347 347 347 348 348 346 346 345 345 347 346 343 332 339 340 341
356 349 336 348 338 341 347 350 348 346 341 343 340 338 337 337 340 342 342 342 348 350 351 347 345 344 344 346 347 347 347 345 345 345 345 345 346 347 347 346 338 337 340
352 342 343 344 346 344 349 350 348 347 342 342 341 340 339 337 341 342 343 348 346 348 348 347 347 349 348 342 343 345 348 346 346 345 345 344 344 346 347 348 347 344 340
345 337 335 335 337 344 345 349 347 345 343 342 341 340 340 339 341 345 345 347 346 348 348 346 346 346 347 347 347 344 345 347 346 345 345 344 342 345 346 347 347 347 345
337 338 336 339 344 346 347 345 344 342 341 341 340 341 341 341 347 347 345 345 344 348 348 347 347 347 346 347 348 346 345 344 344 344 345 343 342 344 347 347 348 347 348
342 344 341 334 345 345 345 348 348 339 340 337 338 339 341 341 346 345 346 347 346 345 346 345 345 345 343 342 343 345 346 345 344 345 344 344 343 343 343 345 345 347 349
348 339 345 343 345 347 350 341 338 334 333 335 337 343 343 344 346 347 348 347 345 344 344 344 346 343 345 346 345 345 346 345 343 345 343 343 344 344 345 346 345 342 343
349 351 342 348 350 347 343 346 346 345 346 345 346 345 345 348 347 345 345 346 347 343 344 346 343 344 343 343 342 342 344 344 344 342 345 345 345 345 341 344 342 342 343
352 351 343 352 351 343 349 349 347 344 348 344 343 341 340 341 343 344 346 344 342 343 341 341 343 343 341 340 341 341 343 345 345 344 344 344 342 340 338 339 340 341 343
350 352 354 354 348 350 349 351 348 349 347 345 341 342 342 342 342 342 343 340 339 341 341 342 341 344 342 341 342 345 345 342 344 345 345 343 342 342 340 339 338 339 340

GFSSE_850_thetae_048.txt.gz
Theta_e
349 338 340 345 346 347 348 347 343 343 337 335 335 334 335 336 339 339 339 338 337 337 337 335 335 334 335 336 337 337 332 331 327 325 339 328 330 339 338 336 337 328 322
340 337 340 344 346 346 347 347 344 344 340 337 336 337 337 340 340 340 338 339 339 336 336 338 340 337 337 339 337 331 329 331 332 323 333 324 328 336 341 338 339 324 324
344 338 340 343 343 345 344 345 345 345 346 342 341 342 342 341 339 339 339 338 339 340 336 342 342 337 341 340 331 330 328 334 342 344 345 337 326 333 343 340 334 320 330
350 345 339 339 340 342 343 343 345 344 345 346 345 345 344 342 339 338 339 337 340 338 340 339 339 338 337 332 333 334 332 338 341 345 346 346 334 328 329 330 335 323 340
352 348 337 338 338 339 341 342 344 343 343 344 344 345 344 342 339 337 338 340 341 340 339 341 340 333 331 330 336 336 334 341 344 346 347 346 341 332 337 336 324 324 330
354 348 338 337 337 338 338 339 341 342 342 341 341 342 343 341 338 337 337 339 342 341 341 342 342 336 332 334 337 337 332 343 342 343 341 340 339 333 326 336 328 331 335
355 350 340 338 337 337 337 338 339 340 341 339 339 339 339 339 337 338 338 337 339 341 341 341 341 341 337 334 333 334 335 343 340 342 341 338 343 341 328 325 324 325 330
356 351 345 340 338 337 336 337 338 339 339 338 338 339 339 339 339 340 337 335 336 339 339 341 341 341 340 335 331 331 335 340 345 343 343 339 338 327 334 328 335 325 335
356 349 343 340 339 337 335 334 337 338 338 338 336 337 339 339 340 339 336 335 335 337 339 341 340 341 342 334 334 331 333 344 345 344 341 344 341 325 328 329 331 326 326
356 351 352 347 342 340 336 337 337 336 337 338 337 336 338 341 340 338 336 337 337 336 338 340 341 342 343 341 336 334 334 342 345 344 345 344 346 341 325 328 331 327 324
354 352 353 351 351 350 349 340 339 341 336 344 339 338 342 340 342 342 341 344 342 338 339 340 339 340 342 340 336 338 337 340 345 347 347 347 344 335 328 329 333 329 326
354 355 352 351 349 347 352 348 345 335 335 339 341 343 339 349 347 347 348 345 339 340 340 340 341 338 341 342 336 336 337 344 346 345 344 346 346 344 338 331 331 331 328
351 354 353 352 352 348 353 350 348 350 348 348 350 348 349 348 339 337 347 347 341 342 340 347 342 340 340 347 347 346 339 344 347 348 347 346 346 342 339 338 333 332 330
351 353 352 352 352 350 354 351 352 351 348 339 344 348 345 344 335 346 342 340 343 347 344 344 345 346 348 348 348 348 346 345 346 346 347 346 345 345 341 339 340 336 333
352 353 353 352 352 352 350 351 350 350 344 345 346 342 338 341 341 339 338 340 342 340 340 344 337 341 347 347 347 346 346 345 344 346 345 345 344 343 342 338 340 341 340
344 351 354 357 356 349 351 348 348 347 348 348 346 339 337 336 337 336 335 341 340 339 339 341 341 348 348 350 346 348 347 348 344 345 346 346 345 345 344 336 337 341 341
343 337 340 340 352 344 345 346 346 343 344 342 341 339 338 338 338 336 336 336 338 340 340 342 345 343 343 345 346 347 345 344 346 344 345 344 345 345 346 344 336 335 340
340 339 334 337 351 346 346 346 348 348 347 342 342 342 339 337 338 339 338 338 342 339 335 342 347 344 344 343 345 346 347 347 344 343 346 344 344 343 343 345 346 340 336
345 337 337 341 344 348 345 346 348 348 346 345 342 341 340 339 339 339 340 341 342 346 347 348 346 345 348 346 341 342 343 344 346 346 344 343 344 345 343 344 347 345 341
340 338 338 336 336 343 344 345 345 343 343 342 343 342 340 338 338 337 341 343 343 345 346 345 346 345 347 346 343 348 346 343 343 346 346 345 345 345 342 342 347 341 346
343 341 339 340 335 343 346 348 338 340 341 341 341 341 340 340 340 342 344 344 344 343 346 346 343 342 345 344 347 346 346 346 346 343 345 343 344 343 342 341 344 345 345
344 340 340 338 346 342 347 343 340 336 337 337 338 340 341 340 343 343 345 344 345 344 343 341 340 341 345 343 342 341 342 341 342 345 344 345 344 344 343 345 346 344 343
344 338 341 336 345 336 344 337 332 336 339 339 340 341 339 337 338 345 344 344 345 343 343 345 345 346 344 342 344 344 344 344 343 344 345 340 345 344 346 345 344 344 342
344 340 344 342 346 341 346 340 346 348 346 343 344 340 340 339 343 343 344 342 344 342 345 345 344 344 341 342 343 343 344 341 344 343 344 344 344 344 344 344 344 343 341
348 352 341 353 353 341 347 348 343 343 347 347 341 340 338 338 343 340 340 342 342 342 342 340 340 341 342 342 340 341 342 341 342 343 342 344 345 344 344 343 340 340 341
353 352 349 353 354 345 346 349 347 347 347 346 340 339 335 342 343 338 342 343 339 340 341 341 342 342 342 342 341 342 342 342 342 345 343 343 342 343 342 338 339 339 339

GFSSE_850_thetae_051.txt.gz
Theta_e
341 342 345 346 347 346 343 343 340 336 334 333 333 334 335 338 338 338 337 336 336 335 334 334 333 334 336 336 336 332 332 327 325 331 331 328 336 332 334 338 329 321 327
339 341 344 344 346 346 345 343 342 337 334 334 334 334 336 339 340 338 339 338 335 334 336 340 336 333 337 333 329 328 329 325 334 332 323 325 333 339 338 333 323 329 326
337 340 344 343 344 345 344 344 344 342 337 335 340 339 341 340 339 339 338 339 340 336 340 339 334 339 339 331 329 329 331 339 343 343 338 326 331 341 335 334 321 326 321
337 340 341 342 343 342 342 343 344 345 344 342 344 343 342 340 338 339 338 340 338 339 338 338 336 335 333 330 328 333 339 343 345 346 345 334 329 331 333 335 323 338 327
337 338 339 341 341 340 340 341 342 343 344 344 345 344 343 342 337 338 339 339 340 339 340 340 335 336 329 333 334 334 341 345 345 345 346 343 335 332 331 324 323 325 323
340 336 336 338 338 339 339 340 340 341 342 343 343 343 343 341 339 337 338 340 342 341 341 341 340 333 330 335 335 334 341 343 343 342 342 340 341 338 326 328 328 330 324
346 339 336 335 336 336 338 339 340 340 340 340 340 341 340 340 338 338 338 338 340 341 341 341 341 340 335 333 335 332 343 339 341 344 343 338 341 338 330 324 324 333 329
350 347 338 336 336 336 336 337 338 339 338 338 338 338 339 339 338 340 338 336 337 339 339 340 341 340 335 333 333 333 341 341 342 345 343 340 340 328 330 327 324 328 329
350 346 343 337 335 335 335 336 337 338 337 337 336 337 338 339 339 339 337 335 335 337 339 340 340 340 342 333 332 333 340 342 344 347 344 341 344 334 325 329 334 325 332
354 348 348 339 337 335 334 335 336 337 337 336 335 341 338 339 339 337 336 337 337 336 337 340 340 341 342 337 333 329 340 344 345 345 346 345 344 343 327 327 327 324 324
354 350 349 340 338 338 336 337 336 336 337 337 335 335 339 340 338 337 339 342 344 339 339 340 339 339 342 341 335 334 335 343 344 344 345 345 345 340 331 326 328 326 324
354 352 352 348 346 344 347 344 338 336 334 339 338 337 335 342 341 343 341 342 338 339 340 340 341 339 340 341 335 336 337 341 344 344 347 346 346 345 342 336 330 332 328
352 353 354 350 347 347 348 350 347 342 343 343 345 344 340 345 345 338 333 345 336 336 336 343 345 340 339 341 343 340 340 342 344 345 347 345 345 343 341 338 333 330 329
351 347 352 352 350 350 347 347 339 347 345 341 338 348 344 341 341 334 335 339 340 344 344 343 343 341 345 345 346 345 345 339 346 346 346 347 346 345 343 341 339 336 331
340 337 337 350 352 350 348 347 346 345 345 341 337 337 345 341 341 336 341 340 342 343 340 341 340 336 343 346 346 346 345 343 344 346 346 346 344 344 343 341 340 339 340
341 339 338 336 335 351 349 348 348 348 347 343 338 341 340 338 340 339 339 339 341 341 338 338 338 338 335 343 346 344 345 345 345 346 345 346 345 345 344 344 338 336 339
337 335 335 335 342 347 343 345 345 345 346 344 346 344 339 337 337 338 336 336 338 340 340 339 341 340 342 344 345 344 345 344 346 347 345 345 344 342 344 345 344 338 335
338 338 335 336 342 346 342 344 347 348 344 344 343 340 340 339 338 339 337 337 338 340 341 339 337 339 344 343 344 344 345 346 344 344 346 343 344 344 343 342 342 344 336
339 336 337 337 340 345 345 344 346 347 345 346 344 342 342 340 339 337 338 338 339 341 342 338 339 343 343 344 343 342 342 344 344 344 345 343 345 343 343 343 343 344 346
338 337 337 336 337 344 344 344 338 340 342 343 344 342 342 340 338 339 337 338 342 342 343 343 342 344 344 346 346 344 343 346 343 344 343 344 343 344 344 344 343 342 345
339 336 338 338 339 340 341 339 338 340 341 342 342 341 340 340 339 338 340 343 342 343 343 344 345 343 341 342 343 341 344 345 345 345 343 343 343 343 344 341 343 344 343
339 337 335 342 339 340 345 335 332 334 334 339 340 340 340 341 343 342 344 343 344 345 344 342 341 341 340 341 343 343 343 339 340 340 342 342 343 343 345 344 343 342 342
342 338 336 343 336 340 339 331 336 342 342 340 341 341 339 338 343 344 342 343 344 343 340 342 343 344 345 342 342 342 343 343 343 342 342 344 345 343 343 344 343 341 343
342 340 338 339 341 339 338 339 345 346 344 341 340 341 341 340 344 343 342 340 339 341 341 343 345 343 341 340 342 341 342 343 342 342 343 344 342 344 342 336 343 343 341
340 339 340 341 346 342 346 345 344 346 344 342 340 339 340 339 341 338 338 340 340 341 341 341 340 341 341 341 341 341 341 341 342 341 342 343 343 343 342 343 341 340 340
350 347 340 347 351 344 349 349 347 344 346 343 339 339 341 342 342 337 342 341 340 340 341 341 341 341 342 342 342 341 342 341 341 341 343 342 342 342 340 340 342 339 339

GFSSE_850_thetae_054.txt.gz
Theta_e
346 345 346 346 344 343 341 337 333 333 333 333 335 337 338 338 337 338 337 336 333 333 334 335 337 336 335 338 334 335 328 324 327 325 326 330 331 340 336 321 323 327 323
340 345 346 346 345 343 342 339 336 333 333 333 334 336 339 338 338 338 336 334 335 335 336 333 332 334 333 332 330 327 324 335 332 332 332 335 334 335 326 323 331 337 324
339 344 345 346 346 343 342 341 337 334 334 334 334 338 339 340 338 338 339 338 335 339 336 337 338 340 330 330 328 330 329 332 326 325 329 335 339 331 327 321 325 335 321
338 342 344 345 344 343 342 343 341 337 335 339 340 341 339 338 337 338 339 338 339 338 338 336 336 334 330 329 332 333 342 341 340 333 332 330 337 336 333 322 329 320 331
339 342 343 343 342 342 342 343 344 343 342 343 343 342 341 337 338 339 339 340 339 339 340 335 335 329 332 329 335 342 343 345 345 345 340 333 331 329 328 322 337 326 320
338 340 340 341 340 340 341 342 342 342 343 343 344 343 341 339 337 338 339 342 340 340 341 340 331 329 334 332 338 342 343 343 343 343 340 339 340 337 327 322 325 322 326
336 336 337 338 338 339 340 340 340 340 341 341 342 342 342 340 337 337 337 340 341 341 341 341 339 333 335 335 335 339 341 341 342 342 340 339 341 334 328 324 331 330 323
342 336 335 335 335 336 338 339 340 340 339 339 340 340 340 339 337 339 336 336 337 339 339 339 340 338 333 335 332 341 340 342 343 345 344 340 340 329 329 326 324 327 324
345 342 336 334 333 334 335 337 338 339 338 338 338 338 339 338 338 339 336 335 335 337 339 339 339 340 335 332 332 339 339 341 344 345 341 341 341 335 326 328 329 329 330
347 345 339 336 333 332 333 336 337 338 337 337 336 337 338 339 339 337 336 336 336 336 337 340 340 340 341 332 331 336 339 342 345 343 343 343 342 342 327 328 328 324 328
348 344 343 339 336 333 333 333 334 336 336 335 335 338 338 339 337 336 337 339 341 338 338 339 338 338 342 338 332 333 341 343 345 345 345 345 344 341 334 325 327 327 323
349 349 346 344 341 337 333 335 334 333 334 336 334 336 337 337 340 340 341 341 339 339 339 340 341 338 340 342 335 333 334 341 344 344 344 346 345 345 343 337 329 331 326
348 347 345 348 349 345 343 338 337 334 333 336 335 334 335 342 344 343 344 345 337 337 337 338 340 339 337 340 340 334 336 337 342 343 346 346 344 345 344 340 337 330 329
340 343 336 341 346 347 347 343 345 339 338 337 340 341 339 341 344 344 339 337 338 342 341 341 342 339 341 342 342 343 344 338 343 344 344 344 345 345 345 342 340 338 332
342 342 338 337 338 345 348 346 345 340 343 340 342 338 346 341 342 342 334 342 337 342 342 341 341 337 340 343 344 343 345 343 341 344 343 345 345 343 343 343 341 339 339
345 340 337 338 335 344 347 346 345 338 342 341 342 339 337 343 339 339 343 340 339 339 341 338 338 338 336 340 340 344 341 343 342 343 345 346 344 344 344 343 343 339 338
339 336 336 335 337 345 346 347 346 346 344 344 342 335 340 339 338 339 339 337 337 339 341 339 339 339 339 339 343 344 343 346 345 346 344 345 345 345 342 342 343 342 340
337 338 335 337 341 345 344 346 347 346 345 344 343 342 343 340 338 337 337 336 335 336 337 340 341 336 340 340 342 344 344 343 343 343 344 343 346 343 343 342 342 342 342
335 336 336 338 343 346 344 343 345 348 346 344 343 344 341 340 340 338 338 338 337 338 338 341 340 339 337 339 343 343 342 342 343 345 345 343 344 344 344 343 344 343 343
337 336 336 337 341 342 341 337 340 341 345 344 345 343 342 342 340 339 338 337 337 338 340 342 343 343 343 343 343 344 344 343 341 341 343 343 342 342 343 344 342 345 343
336 336 337 337 337 336 332 334 338 340 342 344 344 342 341 340 338 338 339 338 337 342 342 343 342 344 343 340 341 343 343 340 343 344 343 342 341 342 343 343 342 341 342
335 337 335 337 337 336 333 332 333 334 339 341 341 341 340 340 342 342 342 344 343 343 343 342 343 342 339 340 342 343 342 339 337 338 340 342 343 343 342 342 344 342 342
338 334 338 334 339 338 334 333 339 339 338 338 340 339 339 341 343 343 343 343 344 345 343 341 341 342 341 342 342 343 342 341 341 342 341 342 343 342 343 343 342 342 342
340 336 338 339 336 339 336 337 345 343 340 342 343 341 340 337 340 341 341 341 339 340 340 340 342 344 344 341 341 341 341 343 342 341 343 343 344 343 343 339 340 340 341
343 339 338 341 340 340 341 344 344 343 344 340 338 339 339 342 341 336 337 338 339 340 340 340 339 339 340 341 341 341 341 341 343 343 342 344 342 341 342 342 340 341 340
342 343 344 341 347 344 346 347 347 342 342 340 339 338 341 342 339 341 341 339 338 339 340 340 340 341 342 341 341 341 341 341 341 341 342 343 341 341 341 343 341 340 339

GFSSE_850_thetae_057.txt.gz
Theta_e
344 345 346 345 344 339 333 332 332 333 334 336 336 333 331 331 331 333 336 333 333 336 336 336 336 336 337 336 335 335 325 324 333 333 337 335 336 323 320 334 333 331 322
342 345 346 345 343 340 336 333 332 333 335 335 337 338 338 337 337 335 336 332 332 333 332 335 336 338 339 331 332 325 327 334 331 335 334 331 339 327 321 325 334 321 326
342 344 346 345 343 342 338 334 333 333 333 335 337 338 338 338 338 337 334 333 333 336 337 334 338 335 330 328 326 328 337 334 336 337 335 335 330 322 327 327 331 320 333
341 344 345 345 344 342 341 337 334 334 334 334 337 339 339 338 338 338 338 336 337 336 333 336 338 333 329 329 328 336 333 327 327 331 333 339 333 332 323 322 325 324 323
340 343 343 344 344 342 342 339 336 335 336 338 341 339 338 337 338 339 339 338 338 337 335 333 335 331 328 332 333 340 340 340 334 336 329 330 329 329 323 334 324 325 338
339 341 342 343 342 341 342 343 342 338 338 342 342 341 338 338 339 339 340 339 340 340 342 333 329 331 330 335 341 342 344 344 343 340 338 337 336 330 325 322 325 322 321
337 338 339 340 340 339 340 342 343 343 343 343 343 342 340 337 337 337 340 341 340 340 340 336 329 332 332 337 341 342 342 342 341 339 339 339 336 335 326 327 325 322 325
335 335 337 338 339 338 339 340 341 343 343 343 342 341 340 338 337 337 337 339 340 340 339 339 333 333 333 335 338 341 341 342 341 340 341 339 338 331 328 324 329 326 322
344 339 335 335 336 337 337 338 339 340 340 340 340 339 340 337 337 338 335 336 338 338 339 339 339 332 333 332 334 340 340 342 343 342 340 340 340 333 328 327 324 328 325
340 340 339 337 343 338 335 337 337 339 338 337 337 338 339 338 338 338 335 335 335 337 339 340 339 340 332 331 332 340 339 340 343 343 341 343 341 340 329 328 330 325 329
347 344 344 341 339 340 339 336 337 337 337 337 336 337 338 338 338 336 336 336 336 336 338 339 339 340 340 332 331 336 338 341 344 342 343 344 343 341 335 326 327 327 323
347 347 346 343 340 338 338 338 336 336 336 336 335 340 338 340 338 336 337 342 340 338 339 340 339 338 342 336 331 332 340 342 344 344 343 344 344 344 343 337 328 329 327
348 345 342 339 338 340 339 339 337 336 336 336 335 335 337 338 340 340 341 341 338 339 339 339 340 338 339 341 335 331 334 338 342 344 344 345 344 344 343 341 337 331 331
347 344 340 337 338 340 341 340 339 337 336 336 339 335 336 339 340 343 343 337 340 336 336 339 342 338 338 338 338 334 335 336 339 342 343 343 342 344 345 344 342 338 335
347 345 338 338 337 340 344 339 340 341 342 337 339 338 340 338 344 343 341 339 341 339 343 343 342 339 341 342 341 341 343 337 339 342 344 343 344 344 341 343 342 341 339
342 345 342 337 339 339 341 341 338 344 344 342 343 342 340 344 341 341 340 335 342 339 341 338 339 339 337 340 343 344 343 344 339 341 344 342 344 343 343 343 342 342 340
341 338 337 336 338 342 340 344 344 345 344 342 342 342 341 340 343 340 340 342 341 339 339 341 339 338 339 339 338 338 343 342 343 342 342 344 345 344 343 342 341 342 342
337 337 335 336 339 345 344 345 346 343 343 342 344 343 341 338 341 338 340 339 338 336 338 339 339 341 340 337 339 342 344 342 343 343 342 343 345 346 345 341 341 341 342
336 336 336 339 343 344 343 345 344 344 343 343 344 342 338 342 341 339 338 338 336 336 336 337 338 341 339 338 338 342 343 343 343 342 342 342 344 344 345 344 343 342 343
336 336 336 341 344 344 345 339 340 340 343 344 343 343 343 342 340 340 340 338 338 338 338 338 339 342 342 340 341 343 343 341 340 341 341 343 344 343 342 343 344 345 344
336 336 336 338 340 340 334 335 335 341 341 344 343 344 341 341 341 341 339 339 337 337 337 342 342 343 344 343 343 341 342 344 343 341 343 344 342 344 342 340 341 342 342
337 335 337 338 338 336 333 332 333 337 341 342 343 342 342 341 339 339 338 338 338 338 342 342 343 344 344 341 340 340 338 338 339 339 339 340 341 343 342 342 342 341 342
336 337 336 337 336 333 331 335 338 336 338 340 341 341 340 341 342 342 343 343 343 343 344 343 342 341 340 341 341 341 341 340 342 342 341 340 341 341 341 342 342 342 342
340 337 338 333 336 333 332 337 343 340 338 338 337 339 340 340 340 341 342 342 342 343 343 342 340 340 340 340 342 341 340 341 342 341 341 342 343 343 343 343 342 341 341
343 338 343 341 339 337 335 340 343 342 339 337 338 338 338 339 340 339 338 337 338 338 336 337 336 336 337 338 339 340 341 341 342 343 342 341 342 342 342 342 338 338 340
345 341 340 341 343 342 340 341 342 341 341 337 336 336 336 339 339 339 342 341 339 338 338 338 339 339 339 340 340 340 341 341 340 342 342 340 339 340 341 342 342 341 339

GFSSE_850_thetae_060.txt.gz
Theta_e
344 345 344 342 336 333 332 331 332 334 336 339 341 343 343 343 335 331 334 333 333 334 334 336 338 338 338 340 337 328 328 332 337 329 334 337 330 329 338 339 330 323 318
343 345 344 343 340 333 332 332 333 334 333 333 332 332 332 331 334 337 334 331 333 334 335 335 338 338 339 332 332 323 326 336 331 340 339 338 322 320 333 327 320 321 320
343 345 345 343 342 336 333 332 333 334 336 337 338 337 337 337 340 341 334 332 332 329 331 334 336 337 331 328 324 339 335 337 339 334 335 336 321 324 327 339 319 338 325
342 344 345 343 342 339 333 333 333 333 335 336 338 338 338 339 339 335 334 334 340 334 334 336 334 328 327 326 335 336 334 336 334 336 336 330 328 323 327 331 320 333 338
341 343 345 344 342 341 337 334 333 333 334 335 338 339 338 337 338 338 338 340 339 339 334 336 337 328 328 337 335 330 326 330 332 329 333 331 329 324 326 320 328 326 332
340 342 342 344 343 342 341 336 334 334 335 338 340 338 338 338 339 339 338 338 338 336 336 337 329 334 331 332 338 340 336 336 335 332 335 332 331 325 324 334 321 330 330
337 341 341 341 342 342 342 341 340 336 338 341 341 339 337 338 338 339 340 339 340 340 338 337 330 329 331 339 342 343 343 343 340 338 338 335 334 328 324 324 322 322 325
337 339 341 343 341 341 342 342 343 342 342 342 342 341 339 336 337 337 340 341 340 340 340 331 332 332 333 339 341 341 341 341 339 338 339 337 331 329 325 327 328 323 323
338 337 339 340 340 340 340 342 341 342 342 342 342 341 340 338 337 337 336 338 339 339 339 339 332 334 332 337 339 340 340 340 340 339 339 340 338 328 330 326 325 325 323
338 338 338 339 335 340 339 340 341 340 341 341 340 340 340 338 337 338 335 335 337 338 339 339 338 334 334 333 335 339 339 340 341 341 340 341 339 336 327 329 329 326 328
340 339 340 340 336 335 337 339 340 340 340 341 341 338 338 338 338 338 335 335 335 337 338 340 340 338 333 333 332 339 338 339 341 342 340 342 341 340 333 327 328 327 325
342 342 342 343 340 339 336 337 339 340 341 341 341 336 336 337 338 337 336 336 336 336 338 339 339 340 339 332 332 333 338 339 343 342 343 342 343 344 342 336 328 328 327
347 345 345 344 338 339 339 336 337 338 338 337 337 337 337 337 338 336 337 340 340 338 339 340 340 338 342 338 332 331 337 340 343 344 343 343 344 343 342 341 337 332 330
348 347 343 343 341 339 339 338 337 338 338 336 336 336 341 338 337 337 339 341 339 337 338 338 339 339 338 341 337 334 332 339 340 342 343 343 342 344 344 343 342 339 336
348 347 343 337 337 337 339 341 337 334 336 337 335 338 335 338 339 339 342 341 339 336 335 338 340 340 339 338 340 335 335 334 335 339 342 343 343 343 343 343 343 342 340
349 347 345 340 338 337 339 338 340 336 336 338 341 337 336 337 338 343 341 340 338 338 342 342 341 339 338 342 341 339 340 342 339 338 340 344 342 343 343 343 343 341 342
344 339 343 339 340 337 338 340 339 337 340 342 343 339 338 341 340 340 340 340 336 340 340 340 338 338 338 338 337 341 344 343 344 340 339 342 342 343 343 342 342 340 341
335 341 337 335 337 343 341 341 345 344 342 343 343 342 341 341 340 341 339 339 341 341 339 338 341 339 339 340 339 338 339 341 342 343 342 343 342 341 343 342 341 341 341
336 338 336 336 339 345 343 343 344 344 344 343 342 340 342 342 338 341 339 339 341 339 337 337 338 337 340 339 338 338 340 342 343 342 343 342 342 342 344 343 344 341 341
335 336 335 339 344 343 343 339 338 339 341 343 343 343 343 339 340 342 340 339 339 337 336 336 337 338 340 341 341 337 338 343 342 343 343 342 342 343 343 342 343 343 344
335 335 336 341 344 343 335 333 336 339 340 344 344 343 341 342 343 342 341 341 339 338 337 338 338 340 341 342 342 341 343 343 343 342 342 341 341 341 343 343 341 341 341
335 335 335 338 340 338 332 332 333 335 340 343 343 343 343 342 341 341 340 338 338 339 337 337 339 342 342 343 343 341 340 340 340 340 340 340 343 343 342 343 342 341 341
337 336 336 338 339 336 332 335 333 334 337 341 342 341 341 341 340 340 340 339 338 338 338 340 343 342 342 342 340 339 339 339 341 341 340 339 339 339 341 343 342 342 341
339 336 336 337 338 335 332 338 340 338 337 337 340 340 340 341 342 342 342 342 343 343 343 343 343 342 342 341 341 341 341 341 341 341 342 342 342 342 343 342 342 341 341
342 337 338 336 338 338 334 335 341 340 338 338 338 337 338 338 335 335 340 341 341 341 340 342 341 340 341 341 342 341 340 341 341 342 340 340 340 341 342 342 341 337 339
347 341 338 340 340 340 338 335 340 337 336 333 337 336 335 335 338 337 339 340 339 339 339 339 339 338 338 338 339 340 340 340 340 341 341 340 339 339 340 339 341 340 340

GFSSE_850_thetae_063.txt.gz
Theta_e
347 345 343 336 332 332 334 336 340 341 343 344 344 343 343 343 339 331 334 334 334 339 339 340 338 337 341 339 330 327 329 332 328 333 335 339 326 327 326 330 328 323 318
346 346 343 339 332 332 331 332 333 336 339 341 342 342 342 338 331 335 334 334 335 334 337 335 335 337 337 338 325 324 338 333 337 340 329 321 330 341 334 326 321 319 339
346 346 343 343 334 332 331 332 332 333 334 334 334 335 333 333 339 340 333 339 339 337 335 336 336 337 331 327 325 327 331 338 338 339 340 335 333 326 329 319 326 322 331
344 347 347 344 338 334 332 332 334 335 336 337 337 336 337 338 339 341 333 334 338 331 339 338 340 332 327 324 340 332 335 336 336 332 340 337 338 327 333 320 341 332 335
344 345 344 344 341 336 333 332 333 334 335 337 338 338 338 339 340 335 337 337 340 339 338 337 334 328 329 335 335 335 337 334 334 338 334 341 339 333 329 321 329 338 335
343 345 344 344 342 340 334 333 333 333 334 336 338 339 338 337 338 338 341 340 339 339 338 339 330 327 340 336 333 325 332 330 330 336 338 332 336 327 329 323 332 327 322
343 344 345 345 343 341 340 335 334 334 334 338 340 338 337 338 338 339 338 340 341 339 339 334 338 328 331 335 336 334 336 336 335 336 334 335 334 323 334 325 322 329 335
342 343 344 345 344 342 342 340 336 337 337 340 341 339 337 338 338 339 340 339 340 341 337 340 332 330 331 339 341 343 343 341 339 338 336 333 333 325 334 325 323 324 333
342 342 347 348 345 343 342 342 342 341 340 342 342 341 339 337 336 336 338 341 340 340 340 333 333 337 335 339 341 340 340 339 338 338 338 339 329 328 326 326 328 324 323
341 342 346 344 345 344 341 342 342 341 341 342 341 341 341 339 337 338 335 337 338 339 339 339 336 338 333 339 340 340 340 339 339 341 340 341 337 331 329 327 326 327 324
341 341 340 340 340 340 340 340 340 341 340 341 340 340 340 343 341 340 339 334 337 340 340 340 339 335 335 334 335 338 340 340 340 341 340 338 338 336 328 327 328 326 328
340 340 339 341 339 340 339 339 339 340 341 341 341 340 339 341 338 338 336 335 335 337 338 341 340 339 335 343 341 336 342 338 341 342 341 341 342 343 341 333 327 328 326
345 344 345 342 343 339 340 339 338 338 340 341 341 340 342 338 338 338 338 336 337 339 343 344 340 341 341 338 342 340 339 338 341 342 343 343 343 343 342 340 336 330 329
347 347 345 344 342 340 340 339 338 337 338 340 340 341 339 339 338 339 336 337 341 340 340 340 340 339 339 342 337 333 331 337 342 343 343 343 343 343 343 342 341 339 336
347 348 347 345 341 337 337 338 340 337 336 336 336 337 335 337 337 338 337 340 341 339 338 338 338 340 339 338 341 337 334 332 339 340 340 343 342 342 343 344 344 343 340
348 348 347 344 339 337 338 339 341 338 335 336 336 337 338 335 335 336 338 341 340 338 336 337 341 341 339 340 340 340 336 335 334 334 336 340 342 342 343 343 342 343 340
348 348 344 342 338 338 339 340 341 339 336 335 335 340 338 335 334 336 339 341 340 339 339 343 340 341 338 338 339 341 341 340 343 342 339 339 343 343 341 342 341 342 340
340 337 341 338 336 340 338 341 340 340 340 338 338 341 341 337 335 337 338 341 341 340 339 340 340 339 339 338 339 338 338 341 343 341 344 340 340 342 342 343 341 341 341
337 337 337 336 336 341 342 343 343 344 345 343 340 342 342 340 339 341 340 341 339 337 340 340 338 340 339 337 339 339 338 338 339 342 343 343 343 343 343 344 344 343 341
336 336 336 336 339 343 343 342 341 340 340 343 343 342 341 341 341 341 340 340 340 341 340 338 336 336 336 337 339 340 341 339 340 342 343 343 343 343 342 342 343 344 343
339 335 335 337 341 342 341 336 335 338 340 340 343 342 343 342 343 340 341 340 340 339 338 337 336 336 337 338 341 342 340 338 339 343 342 342 343 342 341 342 343 342 343
342 335 335 336 341 338 333 333 334 337 341 343 343 343 343 340 340 341 342 342 341 341 339 338 337 338 337 341 342 342 343 342 342 343 343 343 343 342 343 343 342 343 342
345 336 335 335 338 340 332 335 336 335 339 342 342 342 342 342 342 341 340 339 338 338 338 339 338 337 339 341 340 343 340 341 341 339 338 339 339 340 340 343 343 343 342
344 340 336 335 338 339 334 334 341 340 336 339 341 341 340 340 341 341 342 342 343 343 339 339 339 341 343 342 342 341 340 340 343 342 340 342 342 342 342 342 343 342 342
344 343 337 336 336 338 337 333 339 341 339 336 336 339 339 339 339 338 339 338 340 341 342 342 344 342 341 341 340 342 342 342 342 343 342 340 340 340 341 342 342 342 340
345 346 340 336 337 338 337 335 336 339 338 336 336 337 337 338 339 340 331 333 339 338 339 339 339 339 339 339 340 341 341 341 341 342 342 341 340 340 339 340 340 340 339

GFSSE_850_thetae_066.txt.gz
Theta_e
351 351 334 333 338 342 342 342 342 343 344 344 338 341 341 342 337 333 339 337 339 339 341 339 338 340 339 334 329 334 327 326 323 336 335 331 333 333 340 328 333 336 323
351 351 338 332 332 336 338 338 338 340 343 344 342 342 343 340 332 335 334 335 336 340 339 339 337 338 341 332 325 330 331 329 338 338 329 335 336 332 326 327 334 325 319
352 352 343 334 332 331 332 334 335 336 340 343 342 342 341 333 337 342 341 339 338 339 339 339 337 340 334 325 325 340 330 338 340 336 336 340 343 328 321 321 329 340 340
352 352 352 338 333 331 331 332 333 334 335 337 338 337 334 338 340 335 333 335 332 338 338 340 338 335 328 326 329 339 337 336 340 337 337 338 339 338 320 329 321 326 336
352 351 353 343 335 332 332 332 334 335 336 336 336 336 338 340 338 334 333 340 337 337 338 337 333 327 325 339 332 335 337 336 333 344 341 340 340 338 321 339 336 339 337
351 351 349 344 339 335 332 332 333 335 336 337 338 341 339 338 339 338 340 338 339 337 338 340 329 329 335 336 337 338 336 331 340 341 341 337 343 331 323 325 340 337 327
350 352 347 343 342 339 334 333 332 333 336 337 339 339 338 338 339 338 340 340 338 334 339 339 334 333 339 338 325 332 329 332 343 342 342 341 341 328 327 324 333 326 324
350 351 353 345 344 341 339 335 333 334 334 337 340 339 337 338 338 339 339 340 341 341 338 336 339 329 333 333 337 334 337 339 343 342 342 342 332 327 337 323 322 326 336
350 351 352 350 346 342 341 340 336 336 336 339 341 340 338 338 338 341 341 340 340 341 337 337 334 330 333 339 342 342 342 340 346 344 341 341 329 325 335 329 324 324 332
351 351 353 350 348 347 346 342 341 340 339 340 342 342 340 338 336 337 337 340 340 341 340 336 332 336 334 339 341 340 339 338 347 343 344 345 336 327 327 326 327 325 323
352 352 352 349 346 346 347 344 342 342 341 341 342 342 342 348 344 346 345 342 338 339 339 340 335 335 334 337 339 339 339 346 346 344 344 343 336 331 326 328 328 326 328
353 353 352 350 342 341 343 345 342 343 345 348 349 345 343 346 350 349 348 336 336 340 340 340 339 336 335 344 340 334 343 345 344 344 344 341 340 342 340 330 327 328 325
354 353 351 350 343 342 340 341 341 343 345 344 346 344 341 344 347 346 348 344 345 338 345 343 341 345 346 345 346 344 343 345 345 346 345 343 342 343 343 341 337 329 329
353 353 351 347 342 341 340 340 345 341 344 345 348 346 343 343 350 349 347 348 348 345 346 347 348 346 348 346 347 345 344 345 345 345 347 344 343 343 343 343 341 340 336
354 351 350 347 345 343 339 340 342 345 344 348 346 345 346 344 345 348 347 347 348 349 347 347 350 347 348 348 349 347 345 343 345 345 345 345 343 342 342 343 344 344 342
354 351 351 347 344 339 338 338 339 341 345 343 347 347 340 346 346 348 347 347 346 348 348 347 348 348 348 347 347 348 348 345 344 344 343 344 343 342 342 343 343 342 343
354 345 347 346 342 338 339 339 341 343 340 338 337 335 334 336 342 344 346 347 347 343 343 346 346 343 348 346 347 348 347 347 346 346 347 346 346 344 342 342 341 342 342
351 338 337 341 341 340 339 340 340 341 341 344 344 339 336 338 335 334 336 341 345 345 346 344 344 348 346 346 346 346 346 346 347 348 349 350 348 346 347 345 342 342 342
342 337 337 337 337 336 342 340 342 344 344 343 344 342 337 342 339 334 335 336 340 344 346 343 345 345 346 346 346 345 345 345 345 346 348 348 349 348 348 349 347 343 342
340 335 336 336 337 338 343 342 341 339 339 342 345 345 339 339 341 337 337 340 339 344 345 342 344 346 345 344 344 345 346 346 345 345 347 349 348 348 351 350 349 346 344
342 335 335 335 338 340 340 345 336 340 342 341 342 342 343 342 342 339 340 341 340 340 339 341 340 343 344 344 343 340 340 344 347 346 346 346 343 343 348 351 348 344 348
344 336 335 335 337 337 337 333 334 334 338 345 344 344 344 343 341 340 341 341 340 340 340 340 342 343 344 344 340 341 342 344 346 347 345 344 346 346 346 346 345 345 344
347 339 335 335 337 338 332 333 337 336 339 341 342 343 343 342 342 341 341 340 342 342 342 342 343 344 345 344 339 340 342 342 344 345 345 343 341 342 343 342 342 345 343
347 343 337 335 335 338 334 334 340 345 344 344 346 343 340 341 342 342 341 341 341 341 342 341 344 344 344 342 342 341 341 342 346 344 345 342 342 343 342 342 341 342 342
349 346 342 336 335 342 338 336 337 344 341 339 338 342 342 341 341 341 341 342 343 343 343 344 341 341 342 343 342 341 342 342 345 343 345 342 341 341 342 343 342 343 342
349 349 348 338 336 336 337 337 337 342 340 336 336 337 341 340 339 337 332 330 333 337 338 340 340 341 342 340 339 343 344 344 343 342 342 343 343 340 340 340 341 341 340

GFSSE_850_thetae_069.txt.gz
Theta_e
352 346 333 338 343 345 345 345 344 344 344 332 334 335 339 340 333 336 341 337 338 341 340 339 340 341 337 331 337 328 327 325 339 338 338 332 342 329 328 335 342 337 324
352 349 334 334 339 342 343 342 343 344 345 338 340 341 341 339 332 335 334 336 339 339 339 338 337 341 342 328 330 329 328 329 341 329 328 331 327 332 327 335 339 320 320
353 353 336 332 335 338 339 339 340 343 344 343 342 342 341 333 337 337 336 337 337 339 337 336 337 339 337 326 337 337 338 338 327 338 345 347 341 324 322 328 334 328 336
351 353 349 333 332 332 333 335 337 340 341 342 341 340 336 337 341 341 339 336 335 338 337 338 339 337 328 327 341 329 338 337 337 340 341 339 342 322 323 324 335 342 334
349 351 352 335 332 332 331 333 334 336 338 338 338 336 335 342 340 334 336 336 330 337 335 340 333 328 327 330 333 335 333 333 342 343 340 343 342 321 332 329 332 330 341
349 352 349 341 334 332 332 332 333 335 336 336 336 337 341 340 339 336 337 339 338 337 338 337 328 326 338 334 333 335 336 339 344 343 343 343 345 323 326 341 342 335 335
352 356 350 343 337 334 333 333 334 334 335 337 339 342 341 340 342 341 340 338 337 335 337 336 328 341 336 332 334 333 329 343 345 341 341 341 341 332 324 331 338 327 323
349 354 349 343 341 337 333 333 333 333 335 335 341 340 338 338 339 339 340 341 340 339 337 331 333 338 334 328 328 331 331 339 344 340 342 343 338 326 324 322 328 330 332
350 353 353 350 344 341 336 334 334 334 334 335 341 340 338 338 338 340 340 340 340 341 336 339 336 329 333 334 339 338 339 339 346 344 340 343 326 326 331 323 323 326 339
351 353 354 351 348 347 346 337 335 335 336 337 341 342 339 338 338 339 339 341 340 340 340 332 337 330 333 338 341 340 339 339 343 346 342 342 342 327 325 326 326 323 323
353 353 353 349 342 342 347 345 339 338 339 339 342 342 342 346 347 345 343 346 339 341 340 339 333 340 332 336 339 339 338 344 345 346 344 344 334 328 326 327 326 326 326
354 354 353 351 346 343 347 347 345 347 347 347 348 347 346 349 349 349 348 342 337 338 339 339 338 334 335 344 335 333 339 345 347 345 345 345 338 339 337 327 327 327 325
355 355 354 352 345 341 341 344 344 344 345 349 348 348 347 346 348 349 349 344 337 338 347 342 342 343 345 346 346 347 342 344 345 342 348 345 338 341 343 341 337 329 328
355 356 354 351 346 342 339 340 347 342 343 344 346 346 343 342 346 348 348 348 347 352 349 350 349 348 347 346 348 347 345 346 345 345 344 346 342 343 343 343 341 339 335
355 355 355 351 346 344 342 342 344 347 346 348 349 346 347 349 348 348 348 346 347 348 349 348 348 351 346 348 347 346 346 346 345 346 346 346 345 343 342 342 343 343 342
356 355 355 352 349 341 341 344 342 345 347 346 349 347 345 350 346 348 348 346 348 348 349 349 348 346 348 348 347 348 347 347 345 345 345 346 345 342 341 341 342 343 342
356 355 354 353 345 338 343 344 344 340 343 345 346 347 350 346 350 347 347 347 346 347 345 348 348 350 345 346 347 349 347 347 346 346 346 345 346 346 345 340 341 342 342
356 355 354 350 343 339 341 341 347 347 346 344 340 338 340 344 346 346 348 347 346 349 348 348 348 344 347 347 346 347 347 346 347 347 346 346 347 349 348 347 346 342 341
357 354 352 346 343 339 341 341 345 347 347 346 347 346 342 339 338 339 342 341 345 347 348 347 347 347 349 346 345 344 345 345 346 345 347 348 346 348 348 349 348 348 344
352 353 352 347 345 336 341 342 349 350 346 343 344 344 345 341 337 341 339 334 335 337 345 347 347 347 347 346 345 345 345 345 346 346 346 346 346 350 343 342 349 349 347
350 349 352 347 343 347 342 338 346 345 348 349 346 342 344 345 340 338 339 343 336 339 342 346 344 345 346 345 344 346 345 346 344 347 348 351 348 346 345 343 347 348 352
351 349 349 344 338 349 351 347 339 337 345 346 346 344 343 344 345 344 343 339 340 341 340 340 339 342 344 345 345 347 343 345 342 347 345 346 348 347 344 349 350 346 344
352 349 349 347 350 350 350 345 336 339 343 344 347 346 344 343 344 344 343 340 340 341 340 340 339 341 342 345 345 345 341 343 342 343 345 345 344 345 348 349 348 346 344
353 352 348 342 352 352 343 344 348 348 345 346 346 347 343 341 342 342 344 341 341 340 340 342 342 343 344 344 345 343 340 340 342 345 347 346 344 343 343 346 343 343 343
353 352 350 349 350 353 349 347 344 347 347 342 345 344 340 342 342 342 341 341 341 342 344 344 344 342 342 343 344 343 342 340 341 338 340 345 343 341 341 342 342 342 343
353 353 352 351 349 352 351 349 346 349 346 340 339 342 339 343 340 340 339 330 333 340 337 338 341 341 342 342 342 342 340 342 344 343 344 344 343 343 340 340 340 341 342

GFSSE_850_thetae_072.txt.gz
Theta_e
351 334 335 342 344 344 345 344 343 341 330 331 333 337 340 333 335 338 335 336 338 340 339 337 341 337 329 335 328 327 329 336 334 329 328 325 335 332 338 342 339 324 323
352 335 335 341 344 344 344 343 343 344 339 333 336 340 341 333 336 335 336 338 338 340 338 336 339 342 328 327 327 325 326 338 324 329 327 336 326 329 339 342 341 320 317
351 338 334 337 339 341 342 340 341 343 344 337 342 341 339 333 335 334 335 335 337 336 336 337 337 340 327 329 338 331 331 336 344 347 343 336 323 326 332 335 323 337 323
353 341 333 334 337 338 338 337 338 341 343 340 342 341 334 339 343 339 339 338 337 335 336 335 340 329 324 339 337 338 331 338 340 342 345 343 335 321 328 339 341 331 324
352 349 338 333 333 334 334 334 335 338 340 341 341 339 335 340 337 336 337 335 339 335 338 335 331 324 326 337 329 335 336 341 341 344 343 343 344 325 323 329 331 334 337
351 350 348 338 333 332 332 333 334 336 336 337 338 336 341 341 337 339 341 339 339 339 337 328 326 324 331 330 331 330 338 343 344 342 340 340 342 322 337 342 340 336 329
342 351 348 341 337 333 332 332 334 335 336 337 337 339 341 341 341 341 340 339 337 337 338 328 326 332 336 334 335 333 343 342 342 342 342 342 342 339 326 340 337 323 326
357 354 349 343 340 336 333 333 334 335 336 337 340 342 341 341 340 340 340 339 340 337 339 333 330 337 335 328 330 328 340 343 347 342 342 340 340 326 322 330 331 331 324
356 355 344 342 341 338 334 333 334 338 336 337 341 340 338 339 339 339 339 340 341 340 339 337 328 337 332 325 332 330 334 344 343 342 341 344 326 325 326 322 323 332 335
355 355 352 345 344 341 339 336 334 335 335 336 340 341 338 338 338 340 341 341 340 341 335 337 331 329 333 336 340 338 339 344 346 345 345 343 343 329 325 325 323 323 331
353 351 335 335 342 345 347 344 337 339 338 337 340 342 341 340 343 341 339 344 340 340 340 334 337 331 332 337 339 337 337 343 346 346 345 344 342 328 325 326 326 326 324
355 353 351 345 337 338 342 345 342 340 339 339 341 344 342 348 348 349 347 344 339 338 339 339 334 335 332 332 334 333 335 342 343 347 347 345 344 335 331 325 326 326 325
353 354 352 351 345 340 341 345 344 343 344 346 345 346 344 349 348 347 348 344 337 337 338 341 340 337 333 344 346 345 336 342 345 347 347 345 342 334 341 339 333 327 327
355 352 353 351 348 342 341 341 342 343 342 347 347 347 346 346 345 348 347 347 347 345 346 348 347 346 348 346 347 347 346 344 345 345 345 344 346 341 341 342 340 337 333
354 356 353 352 345 343 340 340 343 346 342 341 343 344 343 342 342 347 346 346 347 346 347 345 348 347 348 347 349 350 347 347 346 345 346 345 346 346 341 342 341 342 341
354 357 354 352 348 343 341 342 341 347 347 344 347 347 343 344 345 346 347 347 345 346 348 347 345 346 345 346 346 345 345 344 344 344 346 347 346 346 344 342 340 340 343
355 356 355 352 353 339 341 343 341 344 347 344 347 348 347 342 349 347 345 346 344 348 346 347 349 347 345 346 347 349 347 345 345 348 344 346 348 347 346 346 341 339 340
356 354 356 354 347 339 341 346 345 339 342 344 343 347 348 346 346 345 350 349 345 346 344 347 348 348 344 344 345 347 346 346 346 345 346 344 345 347 348 347 347 345 344
358 355 355 352 345 341 339 341 346 347 344 346 347 344 341 341 341 343 345 347 347 346 348 344 344 343 340 346 347 344 345 346 344 345 346 346 345 345 345 346 347 347 343
358 354 352 342 348 349 343 344 344 345 343 344 345 347 347 345 341 337 341 338 342 346 347 347 345 345 343 347 347 346 345 345 346 345 346 347 347 348 348 348 344 345 339
355 355 350 345 343 338 340 341 349 348 349 349 345 345 342 344 345 342 336 340 338 334 341 344 345 346 344 345 346 345 345 346 347 344 344 347 347 348 334 346 345 343 345
352 350 351 343 344 342 346 344 347 346 345 342 347 345 343 343 343 345 340 340 339 341 335 338 342 344 340 344 342 344 344 343 342 342 346 347 348 348 346 345 344 348 349
353 351 346 341 339 346 352 349 340 336 344 346 344 344 345 344 344 344 343 343 341 341 339 341 340 340 339 339 342 344 344 340 340 342 342 344 345 345 343 346 345 345 343
354 353 351 343 341 347 353 347 347 348 344 346 347 341 343 344 344 343 344 344 342 339 340 342 340 340 341 341 342 343 344 342 340 342 342 343 346 343 342 344 344 344 343
355 354 352 346 344 353 349 348 346 344 347 345 344 344 343 340 340 344 342 343 341 341 340 341 343 343 342 343 342 344 344 342 341 340 341 333 336 338 341 341 342 342 342
355 354 352 351 341 352 351 345 347 348 347 345 342 339 344 343 336 338 341 341 337 336 342 342 341 342 344 343 343 344 343 342 340 340 340 339 342 342 342 341 340 340 341

GFSSE_850_thetae_075.txt.gz
Theta_e
345 343 343 343 343 342 342 341 331 330 331 333 339 340 332 332 333 334 335 336 338 338 334 336 336 329 335 331 326 332 329 329 325 325 332 333 338 340 338 331 323 323 324
346 336 343 343 343 343 342 341 342 332 332 334 337 340 333 333 335 335 335 339 340 337 337 339 340 326 328 325 324 327 335 328 328 336 327 327 327 339 341 334 322 321 340
336 333 341 344 343 343 342 341 342 342 334 338 340 339 332 333 332 334 337 336 335 338 337 338 341 326 326 325 325 325 332 343 338 338 338 322 324 335 338 334 323 319 336
341 334 335 341 343 342 341 340 341 343 339 341 340 337 334 334 333 336 335 338 335 336 337 340 333 324 331 329 331 339 341 344 343 344 343 338 321 330 333 333 331 320 334
340 336 333 334 337 340 339 338 340 341 341 339 338 335 338 340 338 334 334 340 335 338 337 340 326 324 335 330 332 339 341 342 343 344 345 342 335 325 334 336 327 331 339
346 340 337 333 333 333 336 337 338 339 339 338 336 335 341 338 332 335 333 338 335 336 337 329 324 327 327 332 335 341 344 344 343 343 342 339 334 332 331 336 335 327 325
349 350 340 337 333 332 332 337 337 338 337 337 337 339 341 340 334 338 337 335 337 339 335 326 325 334 326 331 331 341 345 343 342 344 342 339 341 339 334 339 326 327 327
337 351 342 337 334 333 332 333 337 336 336 337 338 341 340 342 342 341 337 336 334 339 338 327 339 336 332 333 335 342 342 343 342 343 340 339 339 326 324 335 326 322 330
347 340 343 338 337 334 333 332 334 335 336 337 341 341 339 340 339 340 340 340 340 335 338 332 340 337 326 328 330 341 343 343 343 343 343 344 332 327 324 322 327 330 323
340 334 338 342 340 338 335 333 333 335 336 337 341 339 337 338 338 339 340 340 340 340 337 338 328 333 327 331 331 333 338 343 342 346 346 344 343 328 324 323 322 330 336
341 337 337 337 341 342 339 337 335 334 334 335 339 341 338 337 338 338 336 340 340 340 337 335 329 329 331 337 337 337 340 344 345 346 345 345 339 335 324 325 325 323 324
351 350 349 339 341 343 344 341 339 337 337 336 338 341 341 341 346 344 344 342 342 339 339 337 338 331 330 334 335 334 340 344 344 347 347 345 344 338 333 325 325 325 325
353 351 350 347 342 340 339 344 343 339 339 339 339 342 342 346 347 348 346 346 341 336 337 339 337 333 331 331 340 343 338 340 344 346 347 346 344 340 337 339 332 326 326
350 351 349 344 343 342 341 342 346 342 341 341 344 345 346 346 349 348 346 344 343 336 338 346 345 342 337 341 345 346 344 342 345 345 345 345 345 345 341 341 339 336 331
354 353 351 348 341 342 341 342 342 343 343 341 345 345 346 345 346 346 347 346 346 345 345 345 346 346 346 346 346 347 346 344 347 345 346 346 345 345 344 342 341 341 340
353 354 355 349 342 340 340 340 340 343 343 341 341 343 343 342 341 344 346 347 344 343 345 346 345 345 346 347 346 344 345 346 346 346 347 345 346 345 345 344 343 340 340
353 354 355 351 342 339 341 342 341 342 347 343 343 345 342 342 344 343 346 345 346 343 346 347 347 346 345 343 345 346 345 345 345 344 345 345 344 347 346 346 345 342 340
354 354 355 354 339 338 340 343 342 340 345 345 344 345 337 344 341 345 345 344 345 347 346 344 347 347 347 343 343 345 345 344 342 343 344 344 345 345 344 345 346 346 345
355 354 354 351 345 339 339 341 342 340 341 346 344 342 341 346 345 343 346 344 345 345 345 342 345 347 346 341 342 346 344 343 343 344 343 345 345 345 345 344 345 346 347
356 355 353 353 349 339 339 340 344 345 345 342 345 346 347 344 342 342 342 346 340 344 343 346 345 345 342 341 346 346 346 344 345 344 345 346 346 346 346 346 345 345 346
358 356 347 346 340 338 338 337 343 345 347 345 344 345 345 345 346 342 339 337 340 343 344 341 342 345 344 342 342 344 345 345 344 345 343 345 343 344 347 341 343 343 345
357 351 342 338 338 338 337 338 345 346 347 344 342 346 344 344 343 343 341 341 339 336 337 338 343 339 341 345 343 344 343 342 343 344 342 341 342 344 346 345 344 343 344
354 349 344 338 337 337 341 346 343 344 345 342 343 340 343 343 343 342 342 343 340 338 339 339 336 337 340 341 340 342 343 342 341 341 340 341 342 346 346 344 343 344 344
351 350 347 341 338 340 349 350 349 334 345 344 344 338 341 340 342 343 344 343 340 340 341 340 339 340 340 340 340 339 341 343 341 339 339 343 343 339 336 340 342 342 343
352 353 350 347 339 344 350 350 345 346 345 345 340 340 336 335 338 343 342 343 341 343 341 339 341 341 340 341 341 341 342 343 343 341 340 339 334 336 336 335 341 341 340
354 354 353 351 342 349 349 349 348 346 344 346 344 342 339 339 336 340 341 341 341 340 341 341 342 343 343 344 345 343 342 344 343 342 339 339 340 340 341 341 341 340 340

GFSSE_850_thetae_078.txt.gz
Theta_e
344 343 343 342 341 336 329 329 331 333 337 339 336 332 333 332 333 333 334 335 333 335 335 334 328 335 337 333 339 331 329 326 336 332 331 326 324 332 325 324 323 325 333
344 342 343 342 342 342 339 331 331 332 335 339 338 332 333 333 333 334 336 338 337 335 338 342 328 332 325 329 329 334 326 326 326 335 335 338 338 330 324 322 326 324 327
342 340 342 342 343 342 342 341 335 333 336 339 337 332 332 332 333 334 336 339 338 335 337 341 325 325 324 325 335 325 329 331 333 326 323 325 337 333 325 318 328 339 330
337 336 341 342 342 343 342 341 341 337 338 340 337 332 332 330 332 334 339 336 338 337 336 340 327 326 327 329 328 341 337 341 341 336 337 322 330 329 324 336 323 338 337
334 337 341 341 340 341 340 340 341 341 339 340 337 334 337 335 334 333 336 335 336 336 339 336 324 334 332 336 341 341 343 342 344 343 341 333 326 337 337 326 321 337 336
335 337 337 337 337 337 336 338 341 341 339 339 336 336 337 335 338 333 340 334 336 337 337 328 323 335 333 336 340 341 341 342 344 343 340 334 329 325 329 328 332 339 338
336 334 335 335 334 333 334 335 339 340 339 338 336 339 339 333 340 337 336 334 335 336 328 323 326 328 334 338 340 342 343 343 340 341 340 340 335 334 337 328 330 325 326
346 345 336 333 333 333 333 334 336 338 337 337 337 341 340 339 338 337 337 334 338 341 326 324 332 327 330 339 343 342 343 342 341 343 340 339 336 328 328 334 323 327 330
336 347 346 336 332 332 333 334 334 335 336 337 340 341 341 341 340 340 338 335 335 338 328 336 334 329 332 332 341 342 343 343 341 341 341 342 329 325 322 326 327 323 332
336 334 343 340 335 334 332 333 333 334 335 338 341 340 339 339 338 339 339 340 340 335 337 331 339 328 328 334 341 341 344 344 344 347 345 344 339 328 326 322 323 330 322
339 341 339 341 338 337 334 333 333 334 333 336 341 339 337 338 338 339 340 340 339 339 335 333 333 328 328 327 332 339 341 344 345 346 345 345 340 335 325 324 323 323 331
342 346 341 338 340 340 338 336 334 334 334 334 337 341 338 337 338 338 338 340 339 339 338 332 327 329 332 337 337 337 341 344 344 345 346 345 342 336 333 326 325 324 324
350 350 345 341 339 344 342 339 338 337 336 336 337 340 341 340 346 345 345 343 341 337 339 338 334 331 330 334 334 335 339 343 345 345 347 345 344 342 337 339 335 326 324
351 351 348 345 342 340 340 342 341 338 338 338 339 339 342 343 346 347 346 345 342 335 337 340 341 337 332 331 340 344 342 336 344 344 345 345 344 344 342 341 341 338 333
351 350 349 343 342 341 341 341 345 343 338 339 340 341 343 343 344 346 346 346 344 339 339 344 344 343 337 332 342 344 342 342 344 344 345 345 344 345 344 342 341 341 341
352 352 351 351 341 341 340 340 343 344 343 339 340 343 344 346 344 344 344 344 346 345 343 343 343 344 346 345 344 344 345 345 346 346 345 346 344 346 345 345 343 341 340
352 351 352 351 346 339 340 340 340 342 344 342 340 340 341 343 343 341 342 343 342 344 345 346 346 344 344 345 345 345 344 345 345 346 345 345 344 344 345 345 345 344 342
352 351 351 350 348 338 339 341 340 340 345 343 340 340 344 341 341 343 344 345 345 343 344 343 347 346 345 345 343 345 345 344 344 345 346 343 343 343 345 344 344 344 345
351 353 351 350 339 337 337 341 343 340 342 346 343 344 346 341 343 341 341 342 342 345 346 345 342 345 343 344 340 344 345 343 344 343 343 343 344 344 345 346 345 344 344
352 354 352 348 343 338 337 338 340 339 340 344 346 345 343 343 344 346 342 345 343 343 343 345 343 344 345 341 342 341 344 343 343 343 342 342 344 345 346 344 344 346 345
354 353 354 348 344 339 336 336 339 341 341 341 341 342 343 345 345 343 342 342 343 342 338 342 342 344 343 343 339 343 343 342 345 344 344 344 344 345 344 344 345 345 343
349 351 352 346 342 337 336 334 340 343 345 347 345 344 344 344 344 344 344 343 340 337 341 343 342 341 340 341 342 342 342 341 342 344 341 343 343 340 340 343 344 344 342
350 349 346 340 337 336 337 337 341 345 344 343 341 340 342 342 343 343 343 344 341 339 340 339 339 340 340 338 337 342 343 342 341 340 341 342 340 342 342 343 345 342 342
350 350 346 341 337 336 338 340 339 339 340 339 344 343 339 339 339 342 343 343 341 342 340 338 339 339 337 337 340 340 340 341 342 340 340 340 342 343 342 336 336 339 341
354 349 347 344 339 337 339 347 348 347 337 344 344 341 337 335 336 341 342 343 343 341 340 338 339 340 339 340 340 339 340 339 341 342 342 341 339 338 338 334 335 339 340
357 350 349 347 343 337 340 346 348 344 345 341 344 342 338 339 335 340 342 342 343 340 339 340 341 339 341 341 341 342 341 341 341 342 343 341 339 338 337 338 339 341 340

GFSSE_850_thetae_081.txt.gz
Theta_e
344 343 341 334 332 331 330 330 332 335 335 333 333 332 331 331 331 331 331 330 332 335 335 329 336 338 333 340 338 339 327 332 335 331 336 331 330 336 337 329 331 337 334
342 343 340 339 331 329 330 330 332 337 338 335 332 333 334 334 334 334 336 334 334 335 333 331 332 333 329 341 329 325 325 330 338 335 330 337 337 323 322 322 326 334 335
342 343 341 340 340 332 329 330 331 334 338 338 332 332 333 333 335 337 338 337 335 337 341 327 329 324 329 338 336 330 327 331 337 334 335 337 329 322 322 333 323 330 337
343 342 342 341 341 339 337 331 332 334 337 337 332 331 331 333 334 336 340 337 335 336 341 328 325 323 329 339 329 333 334 329 326 326 328 334 327 321 318 335 338 328 327
342 342 342 342 341 340 339 340 335 335 339 337 333 332 330 331 333 341 336 336 336 336 340 327 326 328 332 329 336 335 340 338 339 336 325 327 332 330 331 325 338 337 336
340 341 342 342 342 341 338 339 341 337 339 337 334 336 335 331 330 334 335 334 338 338 340 324 331 329 338 341 341 342 342 343 340 340 328 327 325 334 326 322 335 336 327
336 341 342 341 340 339 337 338 340 339 339 337 335 338 335 334 332 334 337 334 338 336 333 324 334 332 338 339 340 340 342 341 340 339 337 337 333 331 328 327 330 338 324
335 335 336 338 336 335 335 337 339 339 338 337 336 340 339 334 336 334 335 335 334 334 324 325 330 332 336 338 342 342 340 339 340 338 338 339 332 329 335 324 325 325 328
340 336 336 336 335 332 333 335 337 338 337 337 337 339 340 340 339 335 333 333 338 336 324 329 327 333 336 341 341 341 341 341 340 340 340 340 331 325 325 331 324 326 330
339 344 341 336 333 332 332 334 335 336 336 337 339 340 340 340 341 339 339 334 333 334 326 336 328 330 334 340 341 342 343 341 340 344 344 343 337 327 325 324 326 324 324
337 339 345 341 335 333 332 333 334 335 335 337 341 340 339 338 339 339 340 340 340 334 331 335 330 331 332 335 341 342 342 343 342 345 345 344 340 337 326 323 322 325 328
338 345 339 342 336 334 333 332 333 333 333 336 340 339 337 337 337 339 339 340 339 339 334 329 335 329 328 333 340 341 339 344 345 345 345 345 343 339 328 325 324 323 324
339 348 342 341 339 338 335 334 333 334 334 334 336 340 338 337 337 338 339 340 341 339 339 332 326 329 331 331 332 335 338 344 344 344 345 344 343 341 337 335 328 325 324
345 350 345 340 337 341 340 336 335 335 335 334 335 339 341 340 338 343 343 343 342 336 338 338 333 331 330 334 336 336 340 342 343 345 346 345 344 342 342 340 340 336 329
348 350 344 339 340 340 343 343 341 338 337 337 337 337 340 340 341 344 345 344 342 339 335 339 341 337 330 330 334 342 341 339 341 344 344 344 344 344 344 342 341 341 340
349 349 348 344 339 340 340 339 341 343 340 338 339 339 340 341 340 343 345 345 343 342 341 340 344 343 338 331 339 342 343 339 342 345 345 344 345 345 345 344 343 341 340
350 350 350 350 344 340 340 340 340 343 345 342 341 342 343 344 344 343 343 344 344 344 344 343 342 344 344 344 340 342 342 344 345 345 345 345 346 343 342 342 344 342 342
351 351 350 352 346 342 340 339 340 341 342 343 342 341 342 345 345 344 341 341 343 343 344 345 346 343 344 344 344 344 344 344 344 345 345 345 344 345 343 344 344 343 343
351 351 349 349 347 341 338 340 340 340 340 342 343 341 341 343 343 342 341 341 343 345 342 344 343 344 345 344 344 342 344 344 344 343 344 345 344 344 344 345 345 344 344
351 351 349 346 344 338 337 339 342 342 340 342 345 341 342 344 344 342 342 342 341 341 343 344 343 343 342 342 344 341 341 345 344 344 345 344 342 342 343 345 344 344 344
351 352 351 344 340 338 336 335 339 340 340 340 344 345 344 343 342 342 344 345 343 341 341 343 342 344 341 344 344 341 339 341 342 342 343 343 343 341 343 343 343 342 343
351 351 351 348 342 338 337 334 336 338 339 339 340 341 341 342 343 345 345 344 342 341 342 342 340 342 341 341 343 340 340 341 342 341 342 342 342 343 344 342 339 340 342
352 350 348 347 340 340 336 335 336 341 341 344 345 342 341 343 344 343 344 344 345 343 340 339 340 341 341 341 341 340 341 342 341 340 341 342 341 341 341 340 341 341 343
353 351 349 347 340 339 336 336 334 336 337 340 339 342 341 339 339 340 341 342 344 345 343 338 340 340 339 340 340 338 337 341 341 340 340 340 340 340 341 343 341 340 339
354 352 350 347 341 337 336 335 334 336 337 339 340 343 343 339 338 335 340 342 343 345 345 342 340 340 338 339 337 337 339 340 340 341 341 341 340 340 339 339 335 335 339
355 353 352 347 343 338 336 335 340 343 345 339 342 344 340 337 335 334 341 342 343 343 342 341 341 338 339 339 339 340 340 340 339 339 340 340 341 341 337 337 336 336 338

GFSSE_850_thetae_084.txt.gz
Theta_e
344 341 336 335 335 337 340 332 332 332 332 331 336 342 343 342 341 337 332 331 333 336 337 337 337 339 339 337 338 335 339 338 332 330 331 334 338 338 333 335 329 326 322
342 340 335 333 333 333 332 331 334 335 333 332 331 330 331 331 331 331 331 331 334 334 332 340 337 338 341 337 336 326 332 331 329 327 325 326 333 335 325 335 334 332 332
341 341 335 332 330 330 330 331 336 338 336 332 336 334 338 336 341 340 336 335 337 339 340 332 330 332 340 328 324 328 333 339 336 334 335 327 322 321 322 323 335 337 333
341 341 339 333 330 329 330 331 335 338 338 333 339 338 335 339 338 340 339 342 336 339 332 326 324 333 338 335 333 329 336 332 325 326 332 328 320 321 339 323 329 332 325
342 342 340 340 336 330 330 330 332 334 338 334 331 332 333 334 336 339 339 337 335 339 337 324 323 329 339 332 336 332 329 331 326 324 329 328 324 321 331 337 329 329 330
343 342 341 341 341 340 336 332 333 335 338 335 332 330 330 332 336 338 333 337 338 339 331 325 325 334 329 331 337 337 338 338 334 324 325 332 334 328 322 333 335 331 334
342 341 341 342 341 340 339 340 336 337 338 335 334 335 332 331 331 335 332 335 333 341 329 329 329 333 340 339 341 342 342 339 338 336 335 331 329 329 325 326 335 329 325
339 341 342 342 342 340 338 338 340 338 338 336 336 337 331 332 330 337 330 334 334 338 326 332 337 338 339 339 340 341 339 338 338 336 336 332 331 333 330 326 327 331 323
337 340 342 342 341 339 336 336 338 338 337 336 337 340 337 334 333 334 333 334 335 325 324 334 332 336 337 339 341 340 339 339 339 340 340 333 328 327 335 328 324 326 328
336 338 339 339 338 336 334 335 336 337 337 336 338 339 340 339 339 335 332 335 339 328 325 328 330 333 337 339 340 342 341 339 339 341 342 342 335 335 325 327 326 323 331
339 339 341 339 335 333 333 333 335 336 336 336 338 340 341 340 340 339 340 335 334 333 328 330 329 332 336 339 340 342 342 339 339 342 343 343 340 336 326 323 324 326 324
339 341 340 343 336 333 333 334 334 335 335 336 340 340 339 338 339 339 339 340 339 334 329 335 330 331 331 338 340 342 341 341 341 344 345 344 342 339 329 325 324 323 328
339 344 341 343 338 335 334 334 335 334 334 335 339 340 337 337 337 338 339 340 339 339 341 330 337 331 330 332 339 340 341 342 344 344 342 344 343 341 335 334 328 324 324
340 345 343 341 340 334 334 333 333 333 333 334 336 340 338 337 337 336 337 338 340 338 338 332 329 330 328 328 331 334 337 340 343 343 344 344 344 341 341 339 339 334 328
343 346 343 340 339 338 337 335 334 334 334 334 334 336 340 340 337 339 340 342 341 339 337 338 334 331 329 333 335 336 336 340 343 343 344 344 343 343 343 343 341 341 339
345 346 344 338 338 337 339 340 338 336 336 336 335 336 338 340 340 340 345 344 344 339 336 336 340 338 333 330 334 334 338 340 341 341 343 343 343 344 345 344 342 342 340
347 346 348 342 338 339 339 341 342 341 340 338 337 337 338 339 341 342 344 345 344 343 340 338 341 344 342 335 330 335 343 343 340 339 343 345 344 344 344 344 342 343 342
348 348 349 347 347 338 338 340 340 340 342 343 339 340 340 341 343 344 343 344 344 344 344 343 342 342 344 343 339 335 341 341 343 344 344 343 344 344 344 343 342 343 343
350 349 350 349 348 343 339 339 340 340 341 344 344 342 341 342 344 344 344 342 342 344 344 343 344 345 343 343 343 343 342 343 344 344 345 344 344 344 344 344 344 344 343
351 350 350 349 348 345 343 340 340 340 341 342 343 343 343 342 341 343 342 341 341 342 343 342 342 344 343 343 344 343 342 342 343 344 343 342 342 344 342 342 344 345 344
351 351 351 349 348 345 340 338 339 340 340 339 340 344 342 342 341 344 341 341 342 341 341 342 342 342 341 341 342 342 342 339 340 343 343 343 343 341 341 342 342 342 343
350 351 351 350 347 342 337 334 335 338 341 339 339 343 345 344 344 344 342 341 342 344 342 341 341 341 341 342 340 342 342 339 338 340 341 341 342 342 342 342 343 343 342
350 351 350 351 348 343 337 336 335 337 338 339 339 340 340 342 342 343 342 343 343 344 343 339 340 342 341 341 341 340 341 339 338 339 340 341 341 342 342 341 340 340 341
350 351 351 351 349 347 342 337 334 333 334 336 339 342 342 342 340 342 340 342 343 343 343 343 340 339 340 340 340 340 340 339 338 340 340 340 340 341 341 340 339 341 341
350 350 351 351 350 349 343 337 335 334 338 340 341 339 342 342 341 338 338 337 339 342 342 344 343 339 341 340 340 341 340 339 338 340 340 340 339 339 340 340 339 338 335
350 350 351 352 351 348 344 337 336 336 336 339 338 339 343 342 339 334 334 339 341 342 343 345 344 342 338 339 339 339 338 338 339 339 340 339 339 339 339 340 341 337 336

GFSSE_850_thetae_087.txt.gz
Theta_e
341 340 340 342 339 344 339 331 332 333 338 342 342 343 343 342 342 342 331 338 342 337 339 339 341 338 337 337 338 340 340 339 333 331 328 329 337 339 334 330 327 333 322
340 340 339 336 338 343 339 332 332 332 332 336 342 343 343 341 342 344 342 339 336 333 336 339 338 339 339 336 332 338 336 332 330 331 333 339 340 330 337 333 333 327 324
341 341 338 334 334 338 333 333 334 333 332 331 332 333 332 331 340 332 333 335 334 339 336 336 334 341 337 332 325 331 331 329 329 327 325 336 331 322 328 334 337 339 333
340 342 341 333 333 333 330 333 337 337 332 333 333 338 338 337 339 341 341 341 340 340 326 327 331 341 329 324 327 336 337 329 326 332 339 333 335 322 321 334 340 332 325
340 340 335 331 331 330 330 333 337 338 335 335 336 337 340 337 339 340 339 340 338 340 322 324 329 338 332 333 332 335 327 324 326 330 326 323 333 340 328 327 327 324 325
341 343 335 331 330 330 330 331 333 337 336 332 332 333 333 335 339 340 339 336 338 342 323 323 328 340 332 336 327 331 333 328 325 330 332 330 334 324 337 337 331 332 333
342 341 340 338 333 330 330 331 333 336 337 332 331 330 332 337 341 336 335 336 338 339 324 326 334 333 330 335 334 337 338 333 330 329 328 330 333 324 325 333 333 325 328
342 341 342 341 340 339 336 333 333 337 337 334 334 333 332 331 333 332 333 335 338 337 324 330 337 334 334 339 341 342 340 338 336 333 331 330 331 327 326 327 334 331 325
343 342 341 343 343 341 339 339 337 337 337 335 337 335 335 334 333 335 331 334 335 331 324 336 339 339 339 340 340 339 338 338 337 335 333 329 329 332 331 325 325 327 326
342 342 342 344 344 344 340 338 339 337 337 336 338 338 343 341 335 339 333 332 334 324 324 333 336 337 338 339 339 341 337 339 340 341 340 336 329 332 339 331 325 325 329
339 341 342 342 343 344 343 338 339 338 337 336 338 339 339 343 339 338 332 335 339 325 325 328 331 334 336 338 339 340 340 340 340 341 342 341 340 335 330 325 326 325 325
338 339 341 340 339 340 340 343 343 342 343 343 340 340 342 342 342 342 339 334 333 332 329 327 332 332 334 339 339 341 341 339 341 342 344 343 341 338 333 326 324 324 326
341 339 340 341 339 336 334 337 343 344 344 340 337 340 339 339 340 342 340 341 340 334 342 338 330 336 334 338 340 340 342 340 344 344 343 342 343 339 335 333 327 324 324
340 342 341 341 340 336 334 334 334 336 336 335 338 340 338 338 338 338 339 340 341 344 342 338 343 340 332 331 335 339 341 341 343 344 343 344 343 342 339 338 338 334 328
339 342 344 341 342 337 335 334 333 333 334 333 335 340 339 337 337 337 337 337 340 341 340 335 331 333 330 328 330 337 337 339 338 342 343 344 344 343 343 343 341 340 339
343 341 343 340 341 339 335 335 334 333 333 333 334 335 338 339 337 337 340 341 341 340 337 338 337 330 329 329 331 331 333 336 337 342 342 343 343 343 343 344 342 342 341
346 343 345 337 339 340 337 337 335 335 334 335 335 334 335 338 340 340 339 345 344 344 340 336 337 339 337 333 331 334 336 335 340 341 340 341 343 343 344 344 344 342 343
346 345 347 341 337 338 338 338 340 339 337 336 337 336 337 337 338 340 341 344 344 344 342 340 337 341 343 342 337 331 332 338 343 342 340 339 343 344 345 343 343 342 342
346 347 344 347 343 339 338 340 341 342 342 342 341 338 338 338 340 342 342 342 343 344 344 343 342 340 342 343 342 341 335 336 341 341 342 343 343 343 344 344 344 343 343
346 348 346 348 347 346 340 339 340 340 340 341 342 343 342 341 342 339 343 344 343 342 343 344 343 343 342 342 342 345 342 342 342 342 343 344 344 344 343 343 343 343 344
346 348 349 347 349 348 344 341 339 339 339 340 341 343 343 342 342 341 336 339 342 342 340 342 342 342 341 342 342 341 342 342 341 340 343 344 343 342 343 342 342 342 341
347 349 350 349 349 348 345 342 339 338 339 340 340 340 341 343 342 340 341 342 341 340 341 341 341 342 342 342 340 340 343 344 342 339 338 342 342 342 341 342 342 342 342
349 349 350 351 350 348 345 341 338 338 339 341 340 339 341 344 344 342 343 343 342 342 342 343 343 340 340 341 343 341 341 341 342 338 338 338 339 340 340 341 341 342 341
348 350 350 351 351 349 346 339 337 335 335 337 339 339 340 341 341 342 341 342 343 342 343 342 343 343 337 338 340 341 341 341 341 341 340 338 339 340 340 340 341 341 340
348 349 350 351 350 351 348 340 337 336 335 337 338 341 342 341 341 340 340 338 338 336 335 339 342 344 343 338 339 340 340 340 340 342 340 341 340 339 340 340 340 340 340
348 349 350 350 350 351 350 344 341 336 334 338 340 341 340 342 343 341 337 333 334 340 341 342 342 342 343 340 339 340 340 340 339 340 342 342 342 342 342 339 339 339 341

GFSSE_850_thetae_090.txt.gz
Theta_e
348 349 342 342 343 342 341 339 341 342 342 342 344 344 341 340 338 332 329 336 338 340 342 343 335 338 339 339 339 340 337 340 333 333 329 337 340 338 337 340 338 337 333
348 349 342 341 343 342 335 332 334 338 340 341 343 343 342 342 342 336 338 341 338 338 339 339 339 337 336 338 341 342 340 331 331 336 333 335 333 334 329 329 340 326 326
348 349 345 338 342 342 334 332 332 333 336 341 343 343 342 340 341 342 340 338 334 339 341 339 338 339 339 334 338 335 336 333 339 336 341 344 341 332 331 334 332 332 336
349 349 348 336 341 341 332 333 333 332 332 334 338 338 333 335 335 336 340 338 339 339 335 333 340 339 331 329 329 332 331 332 335 332 339 338 336 325 335 340 337 337 337
349 348 349 334 335 338 331 335 336 334 332 332 333 335 334 337 340 342 340 340 341 332 329 328 343 329 324 328 339 338 334 328 335 343 338 338 340 327 330 341 334 325 334
349 348 341 332 332 332 331 336 338 337 334 335 333 339 339 338 340 341 341 339 340 329 324 325 336 333 334 335 340 326 324 327 340 342 342 332 342 336 334 327 328 328 328
349 349 339 330 331 330 331 333 336 337 334 331 332 333 334 339 339 339 338 339 341 335 323 326 339 335 339 328 330 334 327 330 341 343 344 343 342 332 337 338 332 335 336
349 350 349 335 330 330 330 331 333 337 335 331 330 329 336 339 341 340 338 339 339 331 325 327 338 328 333 332 336 338 337 338 341 340 342 344 329 324 328 340 336 327 328
350 350 353 345 335 330 330 331 333 337 337 333 332 331 333 336 338 334 337 336 340 332 328 333 330 334 335 340 342 340 339 339 346 342 340 342 331 329 327 328 329 336 325
352 351 352 348 346 346 341 334 333 336 338 335 342 343 338 333 338 334 338 337 339 329 328 341 338 339 339 340 339 338 338 337 344 342 341 339 326 326 331 330 325 326 328
352 352 354 352 345 346 346 343 338 339 344 336 342 343 344 346 342 340 343 337 335 324 326 334 336 337 337 338 339 339 337 343 341 342 343 340 337 330 330 325 326 325 325
351 351 352 351 347 345 348 344 347 346 345 348 348 346 350 346 346 346 342 338 340 325 325 333 332 335 336 343 342 338 344 342 342 343 345 343 341 336 331 325 324 324 325
351 351 352 351 349 347 350 346 346 350 348 348 350 347 349 347 344 347 343 342 345 337 339 340 339 341 342 343 343 343 345 343 343 343 346 342 343 338 335 333 327 324 324
350 351 353 351 349 350 349 349 349 349 349 349 350 347 347 349 347 348 350 349 344 344 344 344 342 343 344 344 344 345 346 345 342 345 346 342 343 342 341 336 338 336 330
350 351 352 351 350 350 349 349 348 348 349 349 349 350 350 349 350 350 350 349 350 346 345 345 345 344 346 345 344 343 344 345 345 345 347 345 344 343 342 343 342 340 340
348 350 352 351 349 348 348 349 349 349 349 348 347 349 348 348 348 348 348 347 347 349 349 348 344 345 344 344 343 342 343 344 345 345 346 347 345 343 343 343 343 342 341
348 347 351 350 349 348 348 349 350 349 348 345 348 349 347 347 349 347 347 348 343 345 346 350 348 347 344 343 344 345 344 344 343 346 347 348 348 346 343 343 344 344 342
350 348 348 349 349 349 348 348 348 347 347 347 346 347 342 344 345 345 348 347 346 345 344 342 348 348 347 345 344 343 343 344 344 346 348 348 348 348 349 345 343 343 343
351 349 343 346 344 348 348 348 347 348 348 347 346 347 341 342 345 344 348 348 346 345 344 345 346 346 347 347 346 348 346 344 344 344 347 348 348 348 347 349 347 344 344
349 344 345 345 344 341 348 347 348 349 346 346 346 347 348 342 339 338 345 347 343 346 345 344 345 345 346 348 347 347 347 347 345 345 347 348 348 349 350 349 351 348 345
351 345 346 346 347 345 348 348 348 349 350 349 347 345 348 345 339 339 340 334 340 343 342 345 345 345 348 348 346 347 348 348 348 348 350 348 349 349 351 352 351 349 349
344 346 347 347 346 348 349 349 348 347 346 346 348 349 347 346 346 342 343 342 334 341 341 341 343 346 347 345 344 346 346 345 345 347 347 346 347 347 348 349 350 350 349
346 344 347 348 349 348 349 349 348 347 347 347 347 350 349 346 346 343 344 342 339 341 344 341 341 341 341 343 342 343 346 344 342 345 347 346 346 347 347 348 349 348 346
353 344 346 348 350 349 349 350 349 347 346 346 347 347 348 347 346 346 342 341 341 342 343 345 346 346 345 346 343 340 343 345 346 343 345 346 345 342 347 348 348 346 347
355 354 347 348 349 350 349 351 350 347 346 347 347 348 348 348 347 347 346 345 341 342 344 343 343 343 345 346 343 339 337 342 343 342 342 344 347 346 345 347 347 348 347
356 356 356 350 350 350 350 348 346 349 347 346 347 347 347 347 346 347 347 340 342 340 343 343 342 340 342 343 342 342 338 339 343 345 344 344 342 343 345 345 346 347 346

GFSSE_850_thetae_093.txt.gz
Theta_e
349 349 342 342 342 343 343 342 343 343 343 343 343 339 336 335 330 331 335 338 338 341 338 336 332 333 337 339 339 340 336 339 333 335 331 333 340 340 340 340 340 337 337
350 348 340 342 343 341 341 341 340 340 342 343 344 342 341 339 338 330 336 338 339 340 343 336 337 338 338 338 343 340 338 330 329 327 339 339 332 335 336 342 342 330 332
351 351 341 341 343 341 335 333 336 338 339 342 343 343 342 341 339 337 341 338 336 337 338 340 336 337 336 339 341 339 331 339 336 342 344 343 343 331 330 337 328 324 337
350 351 350 341 343 340 332 332 333 335 339 342 343 343 341 340 342 342 337 338 340 339 340 338 340 340 335 339 335 338 334 331 335 341 346 340 342 331 337 337 337 338 334
349 349 351 338 342 340 331 332 333 332 334 339 341 338 332 338 334 338 338 336 341 332 335 340 340 334 328 327 333 333 332 333 340 341 340 338 338 334 342 338 327 334 344
349 348 341 335 341 340 331 335 335 332 332 332 333 333 332 336 340 341 340 339 341 324 328 342 333 325 328 337 341 336 327 335 343 342 340 344 343 325 334 336 331 328 328
348 352 336 333 336 336 332 337 337 335 334 334 334 339 338 339 340 341 341 339 341 325 325 339 339 336 333 339 327 325 334 344 347 344 341 346 340 335 333 332 333 335 329
348 353 345 332 333 331 332 336 337 337 334 334 333 335 336 339 340 340 340 339 342 327 325 340 340 340 328 329 334 329 333 340 342 342 342 346 327 331 338 340 334 334 333
349 351 350 338 332 331 332 332 334 337 335 334 332 334 338 337 340 339 338 339 341 327 336 337 337 331 329 333 338 336 333 344 346 343 342 346 327 325 329 337 338 332 325
350 351 351 349 346 345 343 334 333 336 337 333 331 331 334 339 338 337 338 338 340 329 330 338 331 331 337 341 340 338 336 343 345 342 342 344 333 329 326 325 331 335 328
350 351 351 350 349 348 348 342 334 345 343 335 342 342 339 344 343 338 341 341 339 328 331 343 337 337 339 339 338 335 333 345 345 342 342 337 334 326 325 326 326 324 326
351 351 353 350 352 348 351 347 346 345 346 346 348 346 345 347 346 347 345 340 338 324 327 338 337 338 338 344 340 334 346 346 342 341 346 342 341 335 328 325 323 324 325
351 350 352 352 351 351 350 346 349 349 350 345 349 346 347 343 346 349 345 344 342 331 338 335 332 340 343 345 345 343 344 343 344 341 347 342 343 337 334 332 325 324 323
350 350 349 352 349 351 352 348 348 348 348 349 350 347 346 347 343 349 345 346 347 347 342 344 344 343 343 344 345 344 346 342 341 344 346 345 341 342 342 335 337 335 329
350 351 351 351 347 349 348 350 349 347 349 349 348 348 345 349 348 347 348 347 349 344 348 346 344 343 344 345 344 345 345 345 345 346 346 347 342 342 342 341 342 340 339
350 350 353 350 351 348 351 350 349 349 348 349 350 349 347 351 348 346 347 349 348 346 349 347 345 347 345 346 346 345 344 345 345 345 345 348 348 342 342 342 342 343 341
349 351 351 352 350 348 351 350 350 348 349 348 349 348 348 348 349 349 348 346 348 350 349 347 346 344 346 345 345 345 344 344 344 345 345 346 347 349 346 343 342 343 343
348 351 352 351 352 352 351 349 350 348 348 349 346 348 346 347 347 346 348 347 349 346 348 347 347 348 346 346 345 344 345 345 346 346 346 347 347 348 347 349 346 343 342
349 350 352 351 352 351 350 352 349 348 349 346 347 346 348 347 349 347 349 348 348 345 346 344 344 348 346 346 348 349 345 345 345 344 345 345 347 347 348 348 348 349 347
351 352 352 352 350 351 352 350 350 349 349 348 349 347 345 345 348 348 348 348 348 346 347 349 347 350 349 347 348 348 347 348 347 346 345 346 348 347 347 349 349 348 347
352 354 351 354 348 349 351 351 349 347 348 348 348 350 349 348 346 346 347 348 345 344 348 347 344 345 343 345 347 348 348 350 349 348 347 346 346 346 347 346 349 349 348
352 354 349 350 349 346 349 349 348 348 348 350 350 348 346 347 349 346 340 342 340 339 341 342 341 343 344 345 348 346 347 347 347 347 346 347 349 347 348 347 346 348 347
353 354 351 345 349 346 351 350 350 349 348 348 348 350 347 348 347 348 347 340 343 345 337 342 341 340 342 345 348 346 346 345 345 346 347 347 346 347 346 347 347 347 348
352 356 354 345 347 347 349 351 350 349 348 347 348 348 349 349 348 348 347 348 347 346 346 345 344 345 344 346 345 346 346 346 346 346 346 347 347 348 348 349 348 347 350
352 354 355 350 346 349 348 352 351 349 348 348 348 348 348 350 349 352 348 348 348 344 344 340 341 343 344 344 346 346 347 347 347 346 347 346 348 348 347 347 346 347 348
355 354 356 356 347 348 349 349 350 349 348 348 348 348 350 349 351 350 349 346 345 345 344 339 340 341 342 343 343 346 347 345 343 345 345 344 344 345 345 347 345 344 344

GFSSE_850_thetae_096.txt.gz
Theta_e
351 337 339 340 341 342 343 343 342 341 342 340 337 337 335 329 331 336 337 337 338 335 332 331 334 334 335 338 337 336 337 338 339 339 338 337 340 337 340 342 336 340 327
351 338 338 340 342 342 341 342 343 342 342 343 342 339 339 335 329 333 338 338 341 342 335 333 332 337 338 339 339 336 335 331 329 333 336 336 338 338 341 343 337 340 331
350 338 338 340 341 342 340 340 339 339 341 343 343 341 341 340 331 335 339 337 338 340 341 338 339 338 337 342 340 334 329 331 339 343 343 332 330 333 339 339 327 341 333
352 339 338 340 340 340 332 333 335 336 338 342 343 342 341 338 337 340 338 334 340 339 338 341 339 335 337 341 336 328 333 340 344 345 344 342 331 331 330 333 332 328 339
352 350 337 340 340 338 331 332 333 334 338 341 343 342 336 338 340 340 337 338 339 338 340 339 339 338 337 332 332 330 330 340 341 342 344 340 331 341 334 328 338 341 331
350 351 337 340 340 338 331 333 332 332 334 338 340 338 335 339 333 339 338 340 340 330 337 342 336 328 326 336 331 328 335 340 342 341 341 339 338 340 338 328 333 339 324
349 351 335 337 341 337 332 335 334 332 331 332 333 332 332 337 340 340 340 338 339 325 335 343 326 327 337 341 327 327 344 345 344 338 344 346 344 328 328 330 330 328 330
351 350 335 334 340 337 333 336 336 334 334 333 336 338 339 339 340 340 340 339 340 323 333 339 339 333 339 330 325 341 344 344 346 344 344 345 331 333 335 330 337 337 326
350 351 342 331 336 334 333 337 338 343 333 332 333 340 338 338 338 340 339 339 341 324 331 341 337 335 328 332 327 331 340 343 342 342 344 345 325 326 341 335 329 328 329
353 352 339 330 332 331 332 335 336 338 341 338 331 339 339 338 339 338 337 338 340 328 331 342 332 332 329 335 337 329 342 345 346 342 347 343 342 329 325 326 335 330 325
353 352 349 332 332 333 334 333 335 336 337 334 331 330 338 339 338 336 337 336 339 328 332 338 330 331 336 340 335 335 340 344 348 345 343 338 328 324 326 325 325 325 328
352 351 350 344 339 342 349 339 337 339 342 335 339 336 337 346 346 343 340 342 337 330 334 342 335 333 339 336 334 335 341 345 346 345 343 344 337 333 325 323 324 325 324
353 350 351 349 345 347 351 347 341 346 345 344 347 345 342 347 346 347 345 341 337 324 326 340 338 337 336 344 344 339 344 342 344 344 341 346 339 334 331 328 324 324 323
353 351 351 350 346 349 350 348 347 348 346 345 347 347 345 342 347 348 348 342 339 337 327 336 330 333 336 345 346 345 344 343 343 346 345 346 342 339 340 335 335 332 326
352 351 351 351 346 347 349 348 348 347 349 347 346 347 345 346 342 344 346 346 345 344 343 343 344 343 341 344 344 347 343 344 346 347 347 345 346 342 340 340 339 339 338
351 351 349 350 348 346 346 349 346 348 349 349 350 347 346 345 346 341 344 346 347 346 347 345 345 344 345 343 344 342 342 344 343 345 347 346 347 347 343 341 341 342 342
351 353 351 350 349 348 345 350 348 351 346 349 349 348 347 345 349 344 344 347 348 347 347 348 346 347 345 344 346 346 342 338 343 343 343 346 346 344 348 346 344 342 342
351 354 354 351 350 349 345 349 349 349 348 348 351 349 347 345 349 346 347 347 347 348 348 346 345 344 344 345 343 344 345 346 343 342 344 342 348 344 346 347 347 345 343
349 351 354 353 350 350 346 349 349 350 348 349 348 344 348 345 345 346 347 347 345 348 346 346 347 345 346 345 346 345 344 345 345 345 347 342 347 347 348 347 348 348 348
349 350 351 353 351 349 348 349 347 345 348 348 348 346 344 346 345 344 345 348 347 347 344 343 344 344 346 346 345 348 347 346 345 345 346 345 346 344 347 348 348 348 347
350 349 350 352 353 351 350 349 349 348 349 348 345 346 347 347 346 340 343 346 349 349 346 344 345 344 347 349 348 347 347 348 346 347 346 345 346 344 346 346 345 345 346
351 350 349 351 350 351 347 349 348 352 348 347 347 349 350 348 346 346 342 347 347 346 345 346 346 344 343 344 346 343 343 345 347 346 344 346 347 345 346 346 346 345 346
351 352 351 352 348 344 349 349 348 348 349 348 347 348 347 346 347 347 346 344 348 349 343 342 342 340 339 339 342 346 345 346 345 347 350 347 344 347 347 347 348 348 346
352 354 353 349 353 344 345 350 349 349 349 351 352 351 350 347 347 345 343 346 345 342 339 342 337 338 342 341 341 341 345 344 346 345 346 348 346 349 347 347 349 348 348
353 353 355 352 354 346 345 350 349 347 350 348 349 348 350 349 346 348 347 345 345 346 345 345 345 343 343 343 344 344 344 343 342 344 346 346 346 347 345 344 343 347 346
353 354 357 355 351 354 348 352 351 348 349 349 348 349 349 350 351 348 347 349 346 346 346 343 343 339 337 339 341 339 342 343 343 343 344 342 345 345 346 348 346 347 346

GFSSE_850_thetae_099.txt.gz
Theta_e
348 339 341 342 341 336 339 340 338 333 334 334 333 328 330 332 333 334 334 333 332 333 334 336 338 338 338 339 339 338 337 339 339 339 338 338 335 338 340 332 326 322 324
344 338 339 340 341 341 341 340 341 341 339 336 337 335 329 329 334 335 336 339 334 332 332 334 334 334 338 338 336 336 335 333 332 330 333 336 337 341 341 336 336 329 339
339 338 339 341 341 341 342 342 341 342 342 341 339 339 337 329 331 336 336 339 342 337 333 332 334 338 337 339 337 329 327 328 337 336 333 332 336 339 340 332 338 328 328
337 336 339 341 341 340 341 341 339 340 342 343 341 341 337 331 335 337 336 333 338 340 340 338 338 336 339 337 329 332 340 342 343 344 342 328 329 336 330 326 336 336 325
336 336 339 339 340 335 334 334 335 337 340 343 342 340 335 336 339 336 334 338 338 337 339 340 339 337 335 332 329 334 341 342 343 346 346 341 329 334 333 337 329 328 340
334 335 338 339 339 331 331 332 332 335 340 342 342 338 336 339 339 337 335 339 332 339 339 340 340 331 327 329 326 339 340 342 343 340 339 338 334 334 326 340 342 324 331
336 335 337 338 338 331 332 332 331 331 335 339 338 336 334 334 337 339 338 340 328 330 340 339 329 326 328 329 328 337 342 341 342 342 340 343 341 328 328 328 328 326 323
341 335 334 336 337 331 334 334 332 330 331 334 333 332 333 341 340 339 338 338 327 328 341 334 324 332 338 323 327 343 344 344 343 344 342 342 334 330 328 330 330 325 328
347 345 330 333 336 332 334 336 334 331 330 331 337 339 337 338 340 339 338 338 332 324 340 338 339 333 328 324 342 344 344 345 345 342 343 343 324 328 338 328 334 329 323
350 348 334 331 334 332 333 336 336 335 331 330 333 337 336 337 338 338 336 337 334 323 335 340 335 325 327 325 336 341 343 341 348 348 346 342 342 327 327 328 328 325 328
350 349 344 331 331 331 332 334 336 337 338 332 330 335 336 336 337 337 335 336 337 329 331 339 329 327 330 338 328 339 342 343 344 345 347 338 332 324 325 323 333 328 326
352 350 342 332 330 331 331 333 334 336 337 336 330 330 336 338 337 335 334 332 337 327 331 334 329 330 338 334 333 334 342 344 345 346 346 342 342 334 324 323 324 323 324
352 351 348 337 331 331 331 332 334 335 337 334 334 331 337 345 346 343 342 341 335 331 331 341 333 331 337 334 335 338 342 343 346 346 344 344 344 338 327 324 323 323 323
352 350 348 348 339 333 336 337 334 336 341 340 343 344 339 345 347 344 345 341 335 326 323 338 334 335 333 341 342 341 341 343 345 346 345 345 345 339 338 333 331 326 324
352 350 349 349 348 340 341 345 344 338 341 343 342 344 343 343 346 345 348 344 335 338 324 332 331 330 332 344 345 345 344 345 346 346 346 346 346 344 342 338 337 336 336
351 352 350 349 348 345 342 347 344 341 342 346 344 344 344 344 343 343 346 345 344 342 344 342 342 342 339 342 344 345 344 344 345 348 346 347 346 346 345 341 341 341 341
351 349 351 349 350 345 343 345 345 344 347 348 346 347 348 344 344 343 344 345 345 344 345 347 345 348 345 342 345 345 344 341 343 345 346 345 346 346 345 346 344 341 342
351 351 352 350 349 348 344 344 345 347 346 347 348 348 347 344 344 346 343 346 347 348 345 349 347 347 346 346 343 344 345 341 337 342 345 345 345 345 346 345 346 346 343
350 351 351 350 350 349 347 344 346 349 350 347 347 350 348 346 344 349 343 345 346 348 347 347 347 345 346 346 344 343 343 344 343 342 341 342 342 343 347 347 347 347 347
349 350 349 351 351 349 349 345 348 352 351 347 347 349 347 344 345 345 347 348 348 347 348 346 346 345 344 344 343 345 344 345 344 345 344 345 346 343 346 345 346 346 346
347 349 349 351 352 350 350 346 348 350 349 348 348 349 347 343 343 345 343 345 347 347 349 347 342 343 343 343 345 344 345 347 346 345 344 344 345 346 344 344 346 345 345
347 346 349 350 352 351 349 347 345 347 347 345 347 348 347 347 347 344 344 343 343 346 347 348 345 344 344 344 346 344 344 345 345 346 346 345 345 345 346 345 345 346 346
346 346 347 349 348 351 349 347 346 346 345 345 346 347 346 347 348 347 345 342 343 343 346 347 344 345 344 344 344 343 343 342 342 343 344 346 346 343 347 346 347 346 347
347 347 345 348 348 347 349 348 349 347 348 346 347 346 346 347 347 348 346 345 343 346 345 346 344 343 343 341 340 340 343 345 344 344 345 346 346 348 345 345 347 348 346
348 348 347 346 347 345 346 346 346 346 348 351 349 347 346 347 348 347 346 346 343 343 345 345 344 340 339 335 340 340 340 340 343 345 344 341 345 346 347 343 349 347 346
350 348 348 347 348 346 344 344 344 343 346 349 351 351 350 348 349 348 346 347 344 344 344 343 341 344 344 343 342 341 344 342 340 341 342 340 340 342 344 345 347 346 346

GFSSE_850_thetae_102.txt.gz
Theta_e
344 341 340 337 332 335 330 329 330 329 329 331 333 334 334 334 334 335 335 331 330 336 336 342 343 340 338 335 336 338 339 339 341 340 336 333 331 324 323 321 321 323 324
338 342 341 339 333 339 337 331 333 333 331 329 330 332 333 333 334 334 333 333 332 333 337 338 337 337 338 339 337 336 338 338 339 339 337 337 339 339 334 322 332 327 325
336 341 341 340 336 339 340 340 338 338 338 336 330 328 332 334 335 338 337 332 332 333 334 334 334 337 337 337 335 332 333 333 334 337 336 337 340 334 334 327 338 339 333
336 338 340 341 340 340 340 340 341 341 340 339 338 333 329 334 335 336 339 341 335 332 332 333 337 336 338 336 329 328 335 339 340 331 331 332 337 338 335 333 326 331 338
336 336 338 340 340 340 340 339 339 342 342 341 340 336 330 335 336 334 336 336 339 338 336 336 334 337 335 329 337 339 342 343 344 342 340 329 330 330 330 338 333 325 324
336 337 339 340 340 339 337 335 336 339 342 341 340 336 335 336 335 334 338 338 342 338 339 337 337 333 330 332 338 341 343 344 345 343 339 335 332 328 336 330 329 336 323
335 337 337 339 336 333 332 333 335 337 341 342 340 335 337 337 341 336 339 332 340 338 338 338 334 327 329 331 340 341 341 342 340 340 339 341 333 327 337 341 324 326 325
333 337 337 339 333 331 332 332 333 336 338 340 340 332 335 335 339 337 339 335 328 337 341 329 324 327 329 332 338 340 344 340 339 342 343 342 335 327 328 326 327 324 328
333 335 337 338 333 332 333 332 330 332 335 334 332 331 335 338 339 339 337 336 323 335 338 324 325 335 324 331 338 343 345 343 340 342 344 343 324 329 327 328 326 325 333
332 331 333 336 334 332 334 334 330 329 330 330 332 335 335 337 339 339 337 337 323 329 336 337 330 330 322 329 342 344 344 344 342 342 344 335 336 326 330 327 332 326 322
340 332 331 332 334 331 335 335 333 330 330 331 335 336 335 336 338 339 335 337 324 323 336 334 328 324 326 342 343 343 343 343 346 342 344 341 331 324 325 323 327 325 326
348 338 332 331 332 331 333 335 335 332 330 329 331 332 334 335 336 336 335 336 331 324 339 333 328 327 332 329 336 340 340 343 346 344 344 342 333 330 325 323 323 325 327
349 347 340 333 331 332 332 334 335 336 336 331 328 333 334 336 334 335 334 332 336 326 326 327 327 331 337 334 333 334 341 341 345 344 346 344 338 334 327 324 322 323 323
350 349 347 336 331 331 332 333 334 335 336 335 331 329 335 334 339 341 336 336 333 328 330 332 331 333 335 334 336 340 338 343 344 346 345 342 341 337 334 334 327 323 323
350 350 348 342 333 331 331 333 334 335 336 335 336 335 335 342 342 344 341 339 337 328 322 336 332 333 335 340 342 343 343 345 346 346 343 344 344 341 341 339 336 334 333
349 350 350 346 343 333 332 333 334 335 336 338 338 341 339 342 344 343 345 345 338 336 323 326 325 331 330 336 343 344 345 345 345 345 346 346 344 345 345 340 340 340 341
350 350 349 347 347 344 339 335 336 335 337 340 341 343 343 343 341 342 344 346 342 338 336 338 338 339 334 342 341 342 343 344 343 344 345 346 346 345 345 344 343 341 340
351 350 348 349 349 348 346 340 343 340 339 341 344 343 345 345 344 344 342 345 344 343 343 344 343 343 344 342 341 344 345 345 344 340 342 344 346 345 345 345 343 344 344
351 350 348 347 348 349 347 343 343 343 341 346 346 345 346 347 344 345 343 343 345 346 345 345 347 345 346 345 344 345 343 341 341 342 339 342 343 343 343 345 347 346 346
351 350 348 347 349 349 347 345 344 344 343 346 346 346 347 347 344 344 346 342 346 347 347 347 346 347 346 346 345 344 343 343 343 343 344 343 342 345 343 340 347 347 346
350 350 349 347 349 349 348 347 345 345 346 347 347 347 348 345 345 344 347 344 345 346 347 348 347 347 347 345 345 344 343 344 344 344 344 344 343 344 346 344 344 344 345
349 350 349 349 344 349 349 348 346 346 347 349 350 347 347 348 347 343 344 344 347 346 346 346 346 345 343 345 344 344 344 343 344 345 345 345 344 344 344 346 345 345 344
349 349 348 348 342 343 349 349 348 346 348 351 350 348 348 348 346 345 344 342 344 345 346 345 346 347 346 342 343 344 344 343 342 342 343 342 343 344 345 346 345 346 346
348 348 348 348 347 338 345 347 348 346 347 349 349 348 346 348 347 346 347 346 344 342 344 346 347 347 346 343 344 343 343 343 343 343 342 343 345 344 345 345 344 347 346
349 347 347 349 347 341 337 343 345 347 344 346 348 345 345 347 346 347 347 347 346 344 342 343 343 343 345 344 342 342 341 339 341 345 344 341 343 342 343 345 346 345 345
352 353 348 349 348 347 336 339 341 344 344 345 345 344 344 346 345 345 345 346 347 345 343 342 343 345 344 340 339 340 337 341 339 339 340 340 340 338 339 344 344 344 342

GFSSE_850_thetae_105.txt.gz
Theta_e
338 337 335 336 335 334 333 331 331 336 341 344 344 340 336 333 330 331 335 337 335 331 335 342 341 338 332 332 333 336 339 339 343 340 337 337 337 328 324 338 339 332 337
338 338 333 332 332 332 331 329 329 331 333 334 336 336 335 334 333 331 331 334 334 331 340 343 337 337 336 335 336 335 338 339 338 336 332 329 325 325 321 321 323 323 323
339 340 336 331 333 330 329 330 329 329 331 333 333 334 335 335 334 334 332 331 336 339 340 338 337 337 338 337 335 337 337 337 338 339 336 339 339 330 327 333 327 324 323
339 340 338 333 338 334 331 334 335 333 330 330 333 334 334 335 335 333 333 332 333 335 334 333 337 336 336 335 333 332 333 333 335 335 335 337 333 333 328 341 339 332 337
340 340 340 335 339 339 339 338 338 338 337 334 329 332 335 334 338 339 335 332 332 333 333 334 335 337 336 331 327 331 337 331 331 332 331 334 336 331 333 325 333 340 338
337 339 340 339 339 339 340 340 341 340 340 338 336 329 334 335 334 336 338 340 335 336 334 333 336 334 328 332 337 340 342 343 340 339 331 330 329 329 331 335 325 325 324
336 337 338 339 340 340 339 338 339 341 341 339 335 332 338 340 332 337 336 337 337 339 336 333 335 330 332 338 341 342 343 342 339 339 339 336 331 329 335 326 338 324 323
337 336 339 339 338 339 337 334 334 339 341 340 336 338 340 339 335 338 338 340 336 337 338 340 330 330 330 339 342 341 340 338 339 340 341 339 332 326 332 328 323 326 326
336 336 338 339 337 334 333 332 333 337 340 341 340 335 338 339 338 338 338 328 335 340 338 328 325 329 331 340 339 342 339 338 340 341 341 340 331 328 327 326 325 324 330
335 336 335 337 332 331 332 332 331 333 338 341 342 335 340 337 338 337 340 327 326 338 328 324 328 329 332 337 341 343 341 339 340 342 343 340 328 329 333 326 326 323 333
336 336 335 336 332 331 332 332 331 332 336 335 333 332 341 338 339 339 337 333 324 337 334 327 336 328 328 336 340 344 343 342 341 342 344 341 331 327 331 329 327 325 323
335 337 335 335 333 331 333 333 331 330 330 338 336 340 335 337 338 337 335 338 322 327 335 332 329 323 325 334 343 343 343 343 343 342 343 345 337 327 327 326 325 328 325
332 333 335 333 334 331 334 334 332 330 330 329 334 333 334 334 336 335 334 339 325 325 337 331 325 325 334 341 343 340 341 343 345 345 344 344 340 334 327 325 324 325 323
335 333 332 333 333 332 332 335 334 332 330 328 327 332 333 334 334 335 332 334 333 329 329 327 325 331 331 332 333 334 339 342 344 345 344 345 342 338 331 329 325 323 323
344 342 336 334 333 333 331 333 334 335 335 333 328 330 333 334 333 334 332 329 334 327 327 326 328 332 336 334 334 337 339 343 344 345 344 344 342 340 339 338 333 331 329
348 348 344 340 335 332 331 332 333 334 335 336 333 329 331 333 338 342 336 336 333 329 323 335 331 332 335 335 343 342 342 344 344 345 344 343 344 343 343 341 339 338 339
348 348 348 345 339 333 331 331 332 334 334 336 334 336 335 335 344 342 342 341 340 334 327 325 332 333 334 337 342 343 344 344 344 344 344 345 346 344 343 343 343 342 340
348 349 348 348 343 339 332 331 332 333 334 335 338 338 342 340 342 343 343 345 341 337 332 326 328 328 330 331 337 342 342 343 343 344 341 343 344 345 346 344 344 343 343
348 349 349 349 347 344 342 335 333 334 334 334 338 341 342 344 343 342 342 342 344 341 339 339 338 338 337 336 340 341 343 345 345 344 342 340 340 343 343 343 345 345 345
348 349 349 349 348 347 346 344 340 337 339 336 338 342 343 344 345 344 344 342 343 344 342 344 344 343 342 345 344 342 342 342 342 340 342 343 340 341 341 343 343 343 346
349 349 350 350 348 348 347 347 345 341 343 341 339 344 344 345 347 345 344 344 342 345 346 345 344 345 344 344 346 345 344 343 343 342 343 343 344 344 343 343 346 342 343
349 349 350 350 347 348 347 347 346 343 342 343 341 345 345 346 347 346 343 344 346 343 346 347 346 346 345 347 346 346 345 344 343 342 342 343 344 344 343 343 344 345 344
349 349 350 350 349 347 348 348 347 345 344 344 343 343 344 346 347 346 345 344 346 344 344 345 345 346 346 345 344 346 344 344 343 342 342 342 344 344 344 344 344 344 345
351 351 352 352 350 348 348 349 347 347 345 343 343 345 347 346 346 348 347 343 343 344 345 345 345 344 344 346 345 343 343 343 342 341 341 341 341 342 342 342 344 345 345
350 351 351 352 352 351 350 350 349 347 347 345 344 346 348 347 346 347 347 346 346 345 344 342 344 345 346 346 346 343 342 342 343 343 342 340 341 341 344 343 342 344 345
351 352 352 351 351 352 352 350 350 349 347 347 345 346 348 348 347 346 347 346 346 346 346 346 343 343 344 344 344 343 343 341 342 340 339 338 338 339 339 340 339 343 344

GFSSE_850_thetae_108.txt.gz
Theta_e
338 340 343 341 339 335 336 343 345 344 344 343 338 335 334 339 338 336 335 334 332 330 329 329 331 330 331 332 338 339 340 343 342 335 334 335 329 324 332 337 336 340 326
338 340 346 339 335 333 330 337 344 345 344 343 338 334 331 337 338 337 335 333 334 336 332 333 335 331 330 330 334 335 338 340 337 333 330 327 322 322 333 332 328 327 324
337 337 338 335 334 333 331 331 338 342 342 342 337 334 331 331 334 336 335 334 331 340 343 337 336 335 333 332 335 338 338 337 335 333 333 328 324 320 321 323 323 322 326
336 334 333 332 333 331 329 329 330 332 335 339 336 334 333 332 331 333 334 334 333 341 341 338 337 338 337 335 335 336 332 333 333 332 335 334 329 332 339 330 324 329 339
337 335 331 331 330 329 328 328 328 329 332 334 338 335 334 334 334 333 331 334 336 336 333 335 336 336 335 334 330 331 332 330 327 328 331 333 331 329 336 340 333 336 336
339 338 332 334 332 329 333 335 335 332 329 330 339 339 339 337 335 332 332 332 333 334 333 336 336 337 336 327 329 332 327 330 329 327 328 330 328 336 326 325 334 336 331
338 339 336 335 338 336 335 337 337 338 336 331 329 336 338 337 339 338 336 332 333 332 334 337 340 332 329 328 335 338 338 337 335 335 333 332 328 329 331 331 325 323 325
337 339 339 336 339 339 339 340 340 339 339 338 333 329 336 339 337 339 334 338 339 336 334 335 338 329 335 337 339 342 342 338 338 337 337 334 327 330 336 324 331 324 325
338 338 339 338 339 339 339 339 340 341 340 339 337 337 337 336 335 341 334 336 337 339 336 337 335 330 335 340 341 339 337 338 338 338 338 332 329 327 330 327 325 324 327
338 338 337 338 339 339 339 336 334 339 341 340 339 338 338 341 336 341 333 340 337 338 338 334 330 330 338 340 338 337 338 339 338 339 339 335 328 329 330 327 325 325 332
338 337 338 338 338 336 334 332 332 335 339 340 342 335 339 341 339 337 337 326 330 342 330 325 327 329 338 339 338 340 339 338 339 341 342 338 331 327 329 331 329 324 325
339 337 339 338 336 332 331 331 331 332 337 341 343 335 340 337 339 340 336 328 326 339 327 328 333 328 335 337 341 343 342 341 341 341 342 343 338 331 326 328 327 327 325
340 337 338 337 336 331 331 331 330 330 334 340 335 333 342 338 341 340 335 335 323 341 339 336 337 328 330 336 340 343 342 342 342 344 344 344 342 338 329 325 324 327 328
340 335 336 336 336 331 332 333 330 329 331 336 343 343 341 336 341 339 334 337 323 325 334 338 329 324 324 330 341 342 340 341 344 343 344 344 342 340 334 328 325 323 325
337 334 334 334 336 333 331 334 332 329 328 329 341 340 334 335 335 338 334 335 333 323 336 332 327 326 329 336 341 338 337 341 341 344 345 342 343 341 338 336 333 329 327
336 333 332 333 334 335 331 333 334 332 330 329 329 331 332 333 334 333 333 332 334 327 329 330 327 328 332 333 333 334 337 341 343 344 344 342 343 343 342 341 339 338 337
341 336 333 332 333 334 333 331 334 333 334 333 332 328 333 333 333 333 331 331 330 331 325 333 331 329 334 336 334 340 340 341 343 343 344 343 343 344 343 343 342 341 340
345 342 342 336 334 334 334 332 332 334 334 334 335 334 329 331 333 340 341 337 337 335 328 324 335 332 333 335 339 343 343 343 344 342 343 344 344 344 344 344 342 342 342
347 346 346 345 340 338 336 333 332 332 333 334 335 335 335 335 335 343 343 343 345 341 335 326 326 332 332 334 335 341 343 342 342 342 343 342 341 342 343 343 343 343 343
346 347 347 347 347 343 339 335 333 331 332 333 334 336 337 339 341 340 342 343 344 344 339 334 329 330 330 333 333 333 341 341 344 345 344 342 342 341 340 342 342 342 342
346 347 347 347 348 346 342 337 334 331 331 332 334 335 337 340 342 343 343 342 342 343 344 340 340 339 340 340 343 343 341 340 342 341 340 340 341 342 342 340 342 343 344
346 345 347 348 349 348 345 340 337 335 333 334 336 335 338 342 342 344 344 344 344 342 343 344 342 343 344 343 343 344 344 343 343 343 342 342 342 342 343 343 344 343 343
347 347 347 348 349 349 348 344 339 338 338 339 342 340 339 343 343 345 346 345 343 344 342 344 345 345 345 344 343 344 345 344 343 342 341 342 341 341 342 343 344 344 343
348 348 348 349 349 349 350 348 346 345 345 344 342 344 341 344 345 345 346 345 343 343 346 343 344 345 345 344 344 343 343 344 343 342 341 340 340 341 341 342 343 343 342
348 349 349 349 349 349 350 349 347 347 347 346 344 343 342 343 344 345 346 344 345 343 344 344 344 344 343 343 343 343 345 345 343 343 343 341 340 340 340 343 344 343 343
349 349 350 350 350 350 350 350 349 347 348 348 346 345 343 342 344 346 345 346 346 345 344 344 343 343 342 343 344 344 343 345 343 342 342 341 341 336 335 337 338 339 340

GFSSE_850_thetae_111.txt.gz
Theta_e
341 343 344 344 344 345 345 345 344 344 340 337 341 343 342 342 339 332 330 328 328 329 331 332 332 332 331 340 341 342 343 340 335 333 334 327 325 332 337 339 336 331 332
340 345 342 342 340 343 345 344 344 344 340 337 338 341 341 339 337 333 331 327 328 329 329 329 330 330 330 335 336 338 342 340 334 333 332 323 333 341 332 334 330 335 333
340 340 340 339 335 335 342 345 344 344 341 337 335 338 339 336 335 334 333 331 330 329 330 331 331 330 330 333 335 338 337 335 331 328 323 335 325 324 323 323 323 323 327
338 341 340 336 334 331 334 342 344 344 343 337 332 334 338 337 335 334 332 332 340 340 337 336 333 332 333 335 338 338 337 334 329 332 337 336 333 326 326 323 323 338 340
337 338 336 334 333 331 330 334 338 340 340 338 333 332 333 334 336 335 334 331 337 342 338 337 337 337 336 334 334 332 334 330 327 331 330 335 339 340 335 329 335 337 330
336 335 333 333 332 330 328 329 332 333 335 335 334 333 332 332 331 333 335 333 338 336 334 336 339 339 334 330 330 332 330 328 326 330 331 329 342 326 332 337 338 336 332
335 333 330 330 330 328 328 328 329 331 334 335 334 334 335 334 334 332 332 334 335 334 333 339 344 338 334 327 331 328 332 332 331 330 328 329 334 332 327 325 325 323 334
336 334 331 332 329 328 333 335 335 331 335 335 340 338 339 340 339 340 332 332 333 333 338 339 338 331 327 332 334 337 337 338 339 335 330 327 328 334 327 334 326 323 325
338 338 332 335 333 330 334 336 337 338 336 333 331 340 339 336 338 339 340 338 336 335 340 341 336 328 333 336 339 341 338 338 338 337 332 330 326 331 332 325 324 325 327
339 339 336 334 338 338 339 339 339 339 339 344 334 332 336 338 335 337 340 337 338 339 338 338 335 329 337 340 340 336 336 338 338 336 335 330 328 337 343 327 325 324 328
340 340 340 336 337 338 339 339 340 342 340 342 338 342 337 340 340 342 340 340 336 338 339 337 334 328 334 339 336 337 337 339 340 341 341 333 328 327 330 328 327 324 328
338 341 341 340 338 339 339 339 336 338 344 344 344 338 339 341 344 344 336 333 339 341 341 334 329 330 337 340 337 339 339 339 340 342 342 341 337 331 327 328 326 328 325
339 339 339 340 339 339 340 337 339 336 344 345 342 340 339 339 341 340 339 330 328 342 333 335 337 340 339 338 341 341 341 341 341 341 344 343 342 339 331 326 324 325 327
345 340 337 338 339 338 338 333 333 331 333 342 342 343 336 339 340 342 341 340 326 341 339 341 343 341 330 337 338 341 341 341 342 344 344 344 343 341 336 329 326 323 324
347 343 337 336 338 338 332 332 331 329 329 332 338 335 334 342 338 342 338 341 329 335 340 339 340 337 325 333 335 342 341 340 343 342 344 344 342 342 339 336 333 329 327
348 345 338 336 337 337 331 331 332 330 328 329 330 333 339 337 336 342 339 337 341 323 336 339 337 327 324 326 331 341 340 338 342 343 345 343 342 343 343 341 338 336 336
347 344 339 335 336 337 334 331 333 332 329 329 330 329 331 332 333 335 336 333 337 331 329 337 336 329 328 330 336 339 336 337 341 343 344 342 343 342 343 342 342 341 339
348 341 338 334 334 336 336 332 332 333 332 330 330 329 329 331 330 333 333 333 332 335 334 329 332 331 329 332 334 334 334 339 341 343 342 343 343 343 344 344 343 342 341
346 344 337 334 333 334 336 336 332 332 334 334 333 332 329 330 332 333 334 335 334 334 332 329 328 333 337 333 335 335 340 342 342 343 342 341 342 343 343 343 343 343 342
347 347 343 338 335 333 334 336 336 333 334 335 337 338 335 331 330 333 340 342 339 342 341 336 329 327 334 335 335 340 339 342 343 342 341 341 342 342 341 340 340 342 343
347 348 347 343 339 337 335 335 336 335 333 334 335 336 337 335 333 335 338 343 343 344 345 338 337 328 325 330 332 337 334 334 340 340 341 343 343 340 341 342 341 339 341
347 348 347 348 345 345 343 340 339 337 335 333 333 334 334 336 337 340 341 341 341 342 343 344 341 342 340 334 341 344 343 342 344 343 340 341 340 339 342 342 342 343 343
351 348 348 348 347 347 347 347 341 340 338 336 333 332 333 335 338 341 342 343 343 343 342 342 343 341 343 341 343 342 342 344 344 346 342 342 343 344 343 342 342 343 343
352 350 347 348 348 348 347 348 348 346 344 340 337 333 333 336 336 341 343 343 345 345 344 343 342 344 344 344 342 344 343 343 342 344 344 341 341 341 341 342 342 342 342
350 351 348 348 349 348 348 348 348 348 347 344 342 341 339 340 340 340 344 344 346 346 344 343 344 343 343 345 343 342 342 343 343 344 346 345 345 343 340 340 340 341 343
350 351 350 349 349 349 349 349 349 349 347 346 345 345 345 342 343 341 344 345 345 346 343 343 343 345 343 343 343 342 343 345 346 345 346 346 345 344 343 340 337 335 336

GFSSE_850_thetae_114.txt.gz
Theta_e
351 350 345 345 345 343 342 343 341 339 342 343 344 342 341 339 336 334 329 328 331 334 335 335 333 338 342 342 343 341 339 334 332 330 326 325 333 333 332 334 342 345 342
350 351 345 345 345 345 345 344 342 338 340 343 343 342 339 334 333 333 328 328 331 333 333 333 331 332 338 338 339 342 341 339 343 332 328 342 341 335 341 336 339 325 328
349 351 345 344 345 345 344 344 343 339 337 341 342 343 341 335 331 329 329 328 329 330 330 330 330 330 332 334 337 343 345 343 335 327 338 341 339 326 327 323 330 327 325
349 351 350 341 341 344 344 344 343 341 337 337 341 341 338 336 332 329 327 328 329 329 330 330 330 329 331 335 338 342 335 333 332 339 336 335 336 323 323 322 332 338 339
349 350 349 338 334 336 343 344 344 343 338 333 338 338 336 335 334 333 332 331 334 334 335 335 333 332 335 336 341 340 342 332 339 345 342 346 345 327 324 334 339 328 334
349 349 339 336 332 331 337 342 342 343 339 334 333 336 337 335 335 333 331 334 341 340 337 337 338 337 334 331 335 334 330 329 344 344 345 341 346 338 332 342 340 336 328
350 349 335 334 332 331 331 334 335 338 337 335 333 333 334 335 335 335 335 332 340 336 334 336 342 337 334 329 334 331 327 334 343 344 344 345 334 325 332 336 331 328 334
348 350 348 334 332 329 328 330 331 333 334 335 334 333 333 333 333 333 335 338 336 334 337 340 344 336 330 331 329 333 333 340 343 342 343 345 330 329 330 326 324 324 330
347 350 349 343 331 328 328 329 330 331 333 337 335 335 336 336 336 337 335 337 334 334 338 340 338 330 327 330 334 338 337 340 346 343 341 340 331 332 326 329 327 325 327
347 349 350 349 345 337 335 334 335 333 336 340 340 339 339 340 340 341 340 337 336 334 340 341 339 329 330 336 341 340 338 338 344 343 342 342 328 331 332 327 325 325 328
348 349 350 351 348 346 347 342 338 342 337 336 335 341 340 346 344 342 338 340 340 340 339 338 340 331 337 340 339 336 338 345 342 343 342 330 327 336 342 327 325 324 329
349 350 349 350 351 351 350 350 348 349 348 345 340 340 341 349 347 345 344 341 337 339 339 340 336 330 335 345 341 337 345 345 345 345 346 340 335 329 327 328 326 327 325
349 349 350 350 351 352 350 351 351 351 350 350 343 347 345 347 343 344 346 344 342 339 342 343 341 342 342 343 341 343 345 346 345 346 347 343 342 339 330 325 324 325 326
349 350 350 351 350 350 350 352 349 347 348 351 344 346 345 348 343 344 341 344 344 339 341 343 343 344 342 344 343 345 346 345 345 345 347 344 343 342 336 330 325 323 324
351 351 351 350 350 351 351 349 349 347 347 349 350 344 347 346 342 342 342 345 342 342 339 344 344 348 344 344 344 346 346 345 346 347 347 346 342 342 341 337 334 329 326
352 352 352 347 348 350 351 351 348 348 346 347 348 350 347 347 346 343 342 342 345 342 343 344 346 348 344 341 343 344 347 346 347 349 348 350 342 341 343 342 339 337 336
354 353 352 350 341 347 349 349 348 347 346 346 346 348 347 346 348 348 349 345 346 344 343 346 340 345 342 341 341 343 346 346 346 348 349 350 349 342 342 342 341 341 340
354 354 353 351 344 339 347 347 347 347 346 345 345 347 351 350 347 346 346 345 344 347 342 344 345 344 341 341 341 343 344 345 346 348 348 349 348 349 347 343 343 343 342
354 355 353 351 341 340 338 346 347 348 347 346 345 345 348 350 348 347 345 345 346 344 344 341 342 343 342 342 342 343 343 343 345 345 347 348 349 348 347 348 345 343 343
355 355 354 351 343 335 339 340 347 346 346 346 346 346 347 345 350 347 346 347 346 343 343 342 342 341 341 342 343 342 343 342 343 345 347 348 347 348 348 347 348 348 345
355 355 354 352 348 340 339 343 346 346 346 346 345 347 347 346 345 346 346 347 345 346 345 346 344 343 341 340 342 342 343 343 344 345 346 345 346 347 347 348 348 347 346
355 356 354 353 350 347 347 345 347 347 346 345 347 347 346 344 344 344 345 347 346 344 347 349 348 343 341 339 341 340 340 340 341 342 343 344 344 345 346 346 347 348 348
352 355 355 353 352 349 349 350 349 349 348 347 346 347 347 346 345 338 337 342 349 348 346 347 346 347 344 343 344 338 340 340 341 343 346 347 346 346 348 348 349 349 350
350 355 354 355 354 351 348 349 349 349 349 348 347 346 345 344 344 344 340 345 345 347 347 347 349 346 346 346 347 346 343 343 339 341 346 348 349 347 349 348 348 349 350
353 354 354 354 355 353 351 350 351 350 350 350 349 347 345 344 335 340 344 346 347 343 345 347 347 347 347 347 346 347 346 346 346 345 346 345 347 346 347 348 348 347 348
353 354 354 353 353 353 352 351 351 352 351 351 350 349 348 347 348 345 346 346 347 347 342 346 347 345 347 346 346 346 345 346 346 345 346 347 346 344 345 346 346 345 345

GFSSE_850_thetae_117.txt.gz
Theta_e
347 345 343 343 341 340 336 338 346 349 348 344 343 344 343 334 333 331 331 331 332 336 338 338 343 342 343 342 338 337 334 335 329 325 325 324 328 334 342 345 343 340 333
351 350 343 342 341 340 340 340 345 349 347 343 342 342 341 333 330 328 330 333 334 337 335 333 339 340 341 341 343 341 337 338 324 324 341 341 340 333 341 346 342 335 335
351 350 346 344 343 343 344 340 341 346 344 342 341 339 337 336 331 327 329 333 334 333 333 331 332 334 335 337 343 343 342 333 329 342 344 343 341 328 338 337 325 325 323
351 351 351 345 345 344 344 342 338 339 343 342 342 338 337 336 331 327 328 330 331 331 331 330 330 330 332 337 342 341 335 331 338 339 343 340 338 323 323 327 329 329 328
350 350 349 345 345 343 343 343 341 336 340 342 346 340 337 339 330 328 328 329 329 329 331 332 331 331 335 340 340 339 334 341 343 342 343 342 339 323 331 340 330 334 339
349 350 344 342 343 344 344 343 342 338 335 340 342 341 336 333 330 327 328 329 331 333 335 336 337 336 335 340 340 338 331 344 347 345 344 348 342 329 342 343 337 328 325
350 353 341 336 337 340 343 343 342 340 335 335 338 337 335 335 334 334 336 338 342 339 337 336 343 337 334 331 338 330 337 344 345 345 345 346 329 334 338 338 335 331 329
350 352 344 333 333 337 339 340 341 340 337 333 335 336 336 335 335 339 334 333 339 335 334 340 345 338 332 332 330 328 336 342 345 344 344 347 329 327 326 326 325 338 338
350 350 348 341 334 334 335 335 335 336 336 334 333 335 333 334 334 336 342 336 338 334 335 340 341 336 328 329 332 332 337 346 346 343 343 345 330 327 332 329 324 326 329
350 351 350 348 346 345 339 332 331 333 334 334 334 335 335 335 336 335 334 333 336 334 336 341 340 328 331 330 337 338 335 343 347 342 345 343 327 328 327 326 325 326 329
349 352 351 349 347 347 347 339 332 333 336 339 336 337 341 343 341 345 343 343 337 337 339 342 340 329 331 337 341 337 337 349 344 341 345 334 328 339 339 327 325 325 329
348 351 351 351 349 347 347 347 348 347 346 344 346 343 348 349 348 347 346 340 339 340 339 338 340 329 336 346 339 333 348 347 343 342 346 336 329 326 327 328 327 326 326
349 349 351 351 351 349 349 348 350 351 348 346 339 349 347 351 350 345 342 342 337 339 341 341 339 339 340 346 343 340 344 343 345 346 348 339 341 336 329 325 325 325 327
350 350 350 352 352 348 352 351 350 348 350 348 347 344 344 346 344 341 341 340 341 344 343 346 344 342 341 346 343 342 346 345 345 346 347 343 342 342 337 330 325 323 324
351 350 351 351 353 350 350 352 349 349 348 350 346 344 344 347 343 342 342 346 344 345 341 339 345 344 344 344 344 343 344 344 345 344 349 348 344 342 342 337 335 330 327
352 352 351 352 353 352 350 351 347 348 347 348 349 349 346 346 349 344 346 347 347 345 338 339 345 346 345 342 343 345 345 345 344 345 348 348 350 339 342 342 339 337 336
353 353 353 352 353 351 351 352 349 349 347 344 348 349 346 347 346 346 342 346 348 345 345 341 341 344 347 343 342 343 346 346 345 347 349 349 351 348 341 342 341 340 339
353 355 354 353 353 353 351 352 349 348 346 345 345 349 346 346 350 345 346 343 348 346 344 348 347 346 344 343 341 342 344 346 347 348 348 347 348 349 349 347 342 342 342
356 356 356 355 354 352 353 352 350 348 348 345 345 346 349 344 346 347 347 346 344 347 345 343 344 345 345 342 342 342 344 345 345 345 347 347 347 346 348 351 349 348 345
357 358 357 356 355 351 353 351 350 349 348 348 346 345 347 348 346 346 345 345 346 344 344 343 341 342 343 343 342 342 344 344 343 343 345 345 346 348 348 347 348 346 346
356 356 355 354 354 353 353 352 349 348 348 347 347 346 347 350 348 347 346 346 346 345 343 343 344 343 343 342 343 343 345 344 344 343 343 345 346 346 348 348 347 347 347
357 356 355 354 355 352 351 350 348 347 347 348 347 348 350 349 349 348 347 347 348 345 345 347 344 344 343 343 341 341 341 342 342 343 344 343 345 346 346 346 348 347 348
353 359 356 354 355 353 351 350 349 349 348 349 348 349 349 350 349 348 348 347 348 346 344 344 344 343 345 343 341 340 339 339 340 342 343 345 344 345 346 345 348 348 350
351 355 358 354 354 354 353 353 352 350 351 350 350 349 349 347 348 349 346 347 346 350 349 346 346 346 346 346 345 344 341 346 346 345 346 347 349 349 347 349 349 349 350
352 356 355 355 354 354 353 353 353 352 351 352 351 350 349 350 347 348 347 346 345 346 349 350 348 347 346 345 346 347 346 346 344 345 346 344 344 348 349 350 349 349 349
349 352 357 354 355 354 354 353 352 354 352 352 352 351 351 350 350 348 348 345 343 348 348 349 348 347 345 345 346 346 346 348 347 349 348 347 348 347 347 346 348 347 347

GFSSE_850_thetae_120.txt.gz
Theta_e
345 344 341 341 339 342 347 348 348 348 346 343 344 343 340 337 335 331 332 332 336 339 339 341 342 342 340 338 334 333 332 331 328 325 322 323 343 344 344 340 327 324 323
343 343 341 342 340 337 342 347 349 348 345 344 343 340 334 332 331 330 331 332 337 337 339 342 343 342 342 342 336 333 327 321 327 334 328 328 341 346 346 345 339 340 331
348 342 341 339 338 339 341 347 348 347 345 345 342 333 332 330 329 331 332 336 336 333 331 333 336 335 338 342 342 337 324 338 342 343 337 335 334 341 344 338 326 324 332
351 344 341 341 340 343 340 346 346 344 344 344 340 334 331 327 329 332 333 334 333 332 331 330 330 332 336 341 340 329 338 340 342 345 342 338 325 334 332 324 323 326 328
351 351 343 343 343 343 340 342 344 344 343 342 338 339 333 327 328 330 332 331 330 330 330 331 330 332 338 340 332 333 340 341 343 345 342 337 323 327 338 335 340 340 334
350 351 343 343 344 343 342 339 338 342 342 343 338 335 332 330 327 328 328 329 329 330 334 334 334 335 339 339 336 338 344 346 347 347 343 344 325 338 342 337 330 326 327
352 345 344 344 343 343 343 341 337 337 341 343 339 336 336 329 328 328 328 331 338 336 337 337 340 335 332 336 331 339 346 346 347 343 349 348 334 340 343 336 329 327 327
353 343 341 341 343 343 343 342 339 335 337 338 337 336 338 336 331 332 335 336 341 337 335 338 343 338 331 334 327 341 343 345 346 346 346 345 326 331 330 328 334 335 330
353 342 337 335 339 341 343 342 341 338 334 336 337 336 336 335 335 335 334 334 338 334 335 338 340 337 328 329 326 329 343 343 343 342 345 342 327 329 326 324 329 338 342
351 340 338 334 335 337 338 339 339 338 336 334 340 336 336 335 334 335 339 336 336 334 334 339 335 330 328 329 330 333 343 345 344 343 347 341 336 325 326 326 326 327 328
351 348 345 340 336 341 335 336 338 336 335 334 334 335 334 335 335 337 336 338 334 333 334 340 338 327 329 330 338 332 343 346 349 344 345 340 327 328 327 325 324 326 330
353 352 348 345 343 343 348 335 335 333 333 335 335 336 339 345 340 341 343 340 337 338 336 338 339 330 331 337 334 336 347 345 348 345 345 344 328 324 329 326 326 324 327
353 352 351 348 345 343 348 340 343 344 346 345 344 341 338 350 349 346 346 341 339 338 340 337 337 328 335 346 343 341 343 343 346 344 344 343 336 334 328 324 324 325 326
350 352 352 351 348 345 348 347 344 346 346 345 339 347 346 349 348 348 342 343 339 337 339 340 341 329 338 347 346 340 342 344 344 349 346 346 340 340 337 330 325 323 324
349 351 353 352 350 345 352 348 346 346 347 341 344 342 344 343 344 344 339 341 339 340 339 344 349 343 338 342 346 345 344 345 345 348 348 348 349 347 340 338 335 328 325
350 350 351 353 352 348 351 352 347 351 350 349 348 346 339 340 341 340 341 341 347 344 344 340 344 344 341 343 343 342 341 345 345 342 345 349 347 345 340 342 340 336 334
352 351 352 351 353 351 350 352 348 345 351 347 348 349 345 340 344 348 342 342 348 346 343 335 344 347 344 344 340 340 344 344 345 346 342 347 347 349 343 342 342 340 338
352 352 352 353 352 352 347 351 347 351 346 348 344 350 348 344 342 347 344 342 345 347 343 340 338 343 343 344 343 342 342 342 344 344 347 348 349 347 348 347 343 342 342
354 354 353 353 354 354 350 350 352 347 349 346 346 346 346 347 345 343 345 343 344 347 345 341 346 343 341 342 342 341 342 344 344 347 347 342 346 348 348 347 347 345 347
356 354 354 354 353 353 352 350 350 350 348 346 346 347 349 348 347 339 344 348 346 345 345 343 344 347 343 345 342 342 341 340 344 345 344 346 346 345 346 341 343 345 343
357 357 356 353 355 354 352 353 352 349 349 348 345 346 346 348 347 340 342 346 348 345 345 347 343 342 344 344 344 341 344 343 344 344 343 342 346 346 344 348 348 347 345
357 357 356 355 353 355 354 350 351 353 349 348 348 347 346 346 345 346 342 346 346 345 343 344 346 344 341 341 342 344 343 343 345 344 342 344 344 346 346 346 348 347 347
352 358 357 355 354 355 355 351 351 351 349 349 348 348 348 347 347 346 340 343 348 346 345 344 344 344 343 342 343 342 342 341 342 342 342 342 343 343 344 345 345 346 346
351 352 360 356 355 353 354 353 352 351 350 349 348 347 349 349 349 348 344 344 346 349 348 344 343 345 343 346 344 342 341 342 344 345 343 344 345 345 343 345 348 349 351
350 358 356 355 356 353 353 353 351 351 349 352 350 350 349 348 348 348 347 344 345 346 346 347 344 343 343 340 346 345 343 340 341 347 346 346 345 343 340 345 346 345 346
345 352 360 357 355 354 353 353 352 351 352 350 353 351 350 349 349 349 348 346 344 344 343 347 347 346 344 345 344 346 346 345 342 342 342 339 344 348 348 349 349 347 343